[[{"header":{"parameterUnit":"m.s-1","parameterCategory":1,"la1":30.6,"la2":29.2853,"lo1":-89.7004,"lo2":-87.6739,"dx":0.0162,"dy":0.0183,"nx":112,"ny":82,"refTime":"2022-12-20T00:00:00:Z","depth":0,"parameterNumber":2,"parameterNumberName":"U-component_of_WINDS"},"data":[0.0,0.0,0.0,0.0,0.0,0.0,0.0,0.0,0.0,0.0,0.0,0.0,0.0,0.0,0.0,0.0,0.0,0.0,0.0,0.0,0.0,0.0,0.0,0.0,0.0,0.0,0.0,0.0,0.0,0.0,0.0,0.0,0.0,0.0,0.0,0.0,0.0,0.0,0.0,0.0,0.0,0.0,0.0,0.0,0.0,0.0,0.0,0.0,0.0,0.0,0.0,0.0,0.0,0.0,0.0,0.0,0.0,0.0,0.0,0.0,0.0,0.0,0.0,0.0,0.0,0.0,0.0,0.0,0.0,0.0,0.0,0.0,0.0,0.0,0.0,0.0,0.0,0.0,0.0,0.0,0.0,0.0,0.0,0.0,0.0,0.0,0.0,0.0,0.0,0.0,0.0,6.052,6.3362,6.4603,6.3758,6.1796,5.8075,5.208,0.0,0.0,0.0,0.0,0.0,0.0,0.0,0.0,0.0,0.0,0.0,0.0,0.0,0.0,0.0,0.0,0.0,0.0,0.0,0.0,0.0,0.0,0.0,0.0,0.0,0.0,0.0,0.0,0.0,0.0,0.0,0.0,0.0,0.0,0.0,0.0,0.0,0.0,0.0,0.0,0.0,0.0,0.0,0.0,0.0,0.0,0.0,0.0,0.0,0.0,0.0,0.0,0.0,0.0,0.0,0.0,0.0,0.0,0.0,0.0,0.0,0.0,0.0,0.0,0.0,0.0,0.0,0.0,0.0,0.0,0.0,0.0,0.0,0.0,0.0,0.0,0.0,0.0,0.0,0.0,0.0,0.0,0.0,0.0,0.0,0.0,0.0,0.0,0.0,0.0,0.0,0.0,0.0,0.0,0.0,0.0,0.0,0.0,0.0,0.0,0.0,0.0,0.0,0.0,5.7214,6.4116,6.5831,6.5922,6.4536,6.3555,6.0443,5.4473,0.0,0.0,0.0,0.0,0.0,0.0,0.0,0.0,0.0,0.0,0.0,0.0,0.0,0.0,0.0,0.0,0.0,0.0,0.0,0.0,0.0,0.0,0.0,0.0,0.0,0.0,0.0,0.0,0.0,0.0,0.0,0.0,0.0,0.0,0.0,0.0,0.0,0.0,0.0,0.0,0.0,0.0,0.0,0.0,0.0,0.0,0.0,0.0,0.0,0.0,0.0,0.0,0.0,0.0,0.0,0.0,0.0,0.0,0.0,0.0,0.0,0.0,0.0,0.0,0.0,0.0,0.0,0.0,0.0,0.0,0.0,0.0,0.0,0.0,0.0,0.0,0.0,0.0,0.0,0.0,0.0,0.0,0.0,0.0,0.0,0.0,0.0,0.0,0.0,0.0,0.0,0.0,0.0,0.0,0.0,0.0,0.0,0.0,0.0,0.0,0.0,0.0,0.0,5.6842,6.0733,6.5764,6.6948,6.6812,6.5334,6.4164,6.1119,5.5547,5.1352,0.0,0.0,0.0,0.0,0.0,0.0,0.0,0.0,0.0,0.0,0.0,0.0,0.0,0.0,0.0,0.0,0.0,0.0,0.0,0.0,0.0,0.0,0.0,0.0,0.0,0.0,0.0,0.0,0.0,0.0,0.0,0.0,0.0,0.0,0.0,0.0,0.0,0.0,0.0,0.0,0.0,0.0,0.0,0.0,0.0,0.0,0.0,0.0,0.0,0.0,0.0,0.0,0.0,0.0,0.0,0.0,0.0,0.0,0.0,0.0,0.0,0.0,0.0,0.0,0.0,0.0,0.0,0.0,0.0,0.0,0.0,0.0,0.0,0.0,0.0,0.0,0.0,0.0,0.0,0.0,0.0,0.0,0.0,0.0,0.0,0.0,0.0,0.0,0.0,0.0,0.0,0.0,0.0,0.0,0.0,0.0,0.0,0.0,0.0,0.0,0.0,0.0,6.212,6.4613,6.7072,6.7692,6.7421,6.6315,6.4884,6.1796,5.6553,5.2875,0.0,0.0,0.0,0.0,0.0,0.0,0.0,0.0,0.0,0.0,0.0,0.0,0.0,0.0,0.0,0.0,0.0,0.0,0.0,0.0,0.0,0.0,0.0,0.0,0.0,0.0,0.0,0.0,0.0,0.0,0.0,0.0,0.0,0.0,0.0,0.0,0.0,0.0,0.0,0.0,0.0,0.0,0.0,0.0,0.0,0.0,0.0,0.0,0.0,0.0,0.0,0.0,0.0,0.0,0.0,0.0,0.0,0.0,0.0,0.0,0.0,0.0,0.0,0.0,0.0,0.0,0.0,0.0,0.0,0.0,0.0,0.0,0.0,0.0,0.0,0.0,0.0,0.0,0.0,0.0,0.0,0.0,0.0,0.0,0.0,0.0,0.0,0.0,0.0,0.0,0.0,0.0,0.0,0.0,0.0,0.0,0.0,0.0,0.0,0.0,0.0,0.0,6.4038,6.7895,6.8842,6.8335,6.7861,6.776,6.6383,6.3304,5.8094,5.4905,0.0,0.0,0.0,0.0,0.0,0.0,0.0,0.0,0.0,0.0,0.0,0.0,0.0,0.0,0.0,0.0,0.0,0.0,0.0,0.0,0.0,0.0,0.0,0.0,0.0,0.0,0.0,0.0,0.0,0.0,0.0,0.0,0.0,0.0,0.0,0.0,0.0,0.0,0.0,0.0,0.0,0.0,0.0,0.0,0.0,0.0,0.0,0.0,0.0,0.0,0.0,0.0,0.0,0.0,0.0,0.0,0.0,0.0,0.0,0.0,0.0,0.0,0.0,0.0,0.0,0.0,0.0,0.0,0.0,0.0,0.0,0.0,0.0,0.0,0.0,0.0,0.0,0.0,0.0,0.0,0.0,0.0,0.0,0.0,0.0,0.0,0.0,0.0,0.0,0.0,0.0,0.0,0.0,0.0,0.0,0.0,0.0,0.0,0.0,0.0,0.0,0.0,6.3396,6.7184,0.0,6.9248,6.9157,6.8707,6.7252,6.413,5.8921,0.0,0.0,0.0,0.0,0.0,0.0,0.0,0.0,0.0,0.0,0.0,0.0,0.0,0.0,0.0,0.0,0.0,0.0,0.0,0.0,0.0,0.0,0.0,0.0,0.0,0.0,0.0,0.0,0.0,0.0,0.0,0.0,0.0,0.0,0.0,0.0,0.0,0.0,0.0,0.0,0.0,0.0,0.0,0.0,0.0,0.0,0.0,0.0,0.0,0.0,0.0,0.0,0.0,0.0,0.0,0.0,0.0,0.0,0.0,0.0,0.0,0.0,0.0,0.0,0.0,0.0,0.0,0.0,0.0,0.0,0.0,0.0,0.0,0.0,0.0,0.0,0.0,0.0,0.0,0.0,0.0,0.0,0.0,0.0,0.0,0.0,0.0,0.0,0.0,0.0,0.0,0.0,0.0,0.0,0.0,0.0,0.0,0.0,0.0,0.0,0.0,0.0,5.9361,6.4208,6.7973,0.0,7.0534,7.0263,6.9519,6.7817,6.4468,5.8989,0.0,0.0,0.0,0.0,0.0,0.0,0.0,0.0,0.0,0.0,0.0,0.0,0.0,0.0,0.0,0.0,0.0,0.0,0.0,0.0,0.0,0.0,0.0,0.0,0.0,0.0,0.0,0.0,0.0,0.0,0.0,0.0,0.0,0.0,0.0,0.0,0.0,0.0,0.0,0.0,0.0,0.0,0.0,0.0,0.0,0.0,0.0,0.0,0.0,0.0,0.0,0.0,0.0,0.0,0.0,0.0,0.0,0.0,0.0,0.0,0.0,0.0,0.0,0.0,0.0,0.0,0.0,0.0,0.0,0.0,0.0,0.0,0.0,0.0,0.0,0.0,0.0,0.0,0.0,0.0,0.0,0.0,0.0,0.0,0.0,0.0,0.0,0.0,0.0,0.0,0.0,0.0,0.0,0.0,0.0,0.0,0.0,0.0,0.0,0.0,0.0,0.0,6.1849,6.6992,7.1052,7.3263,7.2191,7.103,7.0274,6.8132,6.4299,0.0,0.0,0.0,0.0,0.0,0.0,0.0,0.0,0.0,0.0,0.0,0.0,0.0,0.0,0.0,0.0,0.0,0.0,0.0,0.0,0.0,0.0,0.0,0.0,0.0,0.0,0.0,0.0,0.0,0.0,0.0,0.0,0.0,0.0,0.0,0.0,0.0,0.0,0.0,0.0,0.0,0.0,0.0,0.0,0.0,0.0,0.0,0.0,0.0,0.0,0.0,0.0,0.0,0.0,0.0,0.0,0.0,0.0,0.0,0.0,0.0,0.0,0.0,0.0,0.0,0.0,0.0,0.0,0.0,0.0,0.0,0.0,0.0,0.0,0.0,0.0,0.0,0.0,0.0,0.0,0.0,0.0,0.0,0.0,0.0,0.0,0.0,0.0,0.0,0.0,0.0,0.0,0.0,0.0,0.0,0.0,0.0,0.0,0.0,0.0,0.0,0.0,0.0,6.2675,6.8199,7.2203,7.3353,7.3116,7.2326,7.1075,6.9891,6.6406,5.9844,0.0,0.0,0.0,0.0,0.0,0.0,0.0,0.0,0.0,0.0,0.0,0.0,0.0,0.0,0.0,0.0,0.0,0.0,0.0,0.0,0.0,0.0,0.0,0.0,0.0,0.0,0.0,0.0,0.0,0.0,0.0,0.0,0.0,0.0,0.0,0.0,0.0,0.0,0.0,0.0,0.0,0.0,0.0,0.0,0.0,0.0,0.0,0.0,0.0,0.0,0.0,0.0,0.0,0.0,0.0,0.0,0.0,0.0,0.0,0.0,0.0,0.0,0.0,0.0,0.0,0.0,0.0,0.0,0.0,0.0,0.0,0.0,0.0,0.0,0.0,0.0,0.0,0.0,0.0,0.0,0.0,0.0,0.0,0.0,0.0,0.0,0.0,0.0,0.0,0.0,0.0,0.0,0.0,0.0,0.0,0.0,0.0,0.0,0.0,0.0,0.0,0.0,6.3869,6.9079,7.3037,7.4672,7.4289,7.3443,7.2293,7.0951,6.7476,6.1096,0.0,0.0,0.0,0.0,0.0,0.0,0.0,0.0,0.0,0.0,0.0,0.0,0.0,0.0,0.0,0.0,0.0,0.0,0.0,0.0,0.0,0.0,0.0,0.0,0.0,0.0,0.0,0.0,0.0,0.0,0.0,0.0,0.0,0.0,0.0,0.0,0.0,0.0,0.0,0.0,0.0,0.0,0.0,0.0,0.0,0.0,0.0,0.0,0.0,0.0,0.0,0.0,0.0,0.0,0.0,0.0,0.0,0.0,0.0,0.0,0.0,0.0,0.0,0.0,0.0,0.0,0.0,0.0,0.0,0.0,0.0,0.0,0.0,0.0,0.0,0.0,0.0,0.0,0.0,0.0,0.0,0.0,0.0,0.0,0.0,0.0,0.0,0.0,0.0,0.0,0.0,0.0,0.0,0.0,0.0,0.0,0.0,0.0,0.0,0.0,0.0,0.0,6.5436,6.9936,7.3815,7.669,7.5731,7.4525,7.359,7.1661,6.7991,6.2167,0.0,0.0,0.0,0.0,0.0,0.0,0.0,0.0,0.0,0.0,0.0,0.0,0.0,0.0,0.0,0.0,0.0,0.0,0.0,0.0,0.0,0.0,0.0,0.0,0.0,0.0,0.0,0.0,0.0,0.0,0.0,0.0,0.0,0.0,0.0,0.0,0.0,0.0,0.0,0.0,0.0,0.0,0.0,0.0,0.0,0.0,0.0,0.0,0.0,0.0,0.0,0.0,0.0,0.0,0.0,0.0,0.0,0.0,0.0,0.0,4.9323,0.0,0.0,0.0,0.0,0.0,0.0,0.0,0.0,0.0,0.0,0.0,0.0,0.0,0.0,0.0,0.0,0.0,0.0,0.0,0.0,0.0,0.0,0.0,0.0,0.0,0.0,0.0,0.0,0.0,0.0,0.0,0.0,0.0,0.0,0.0,0.0,0.0,0.0,0.0,0.0,0.0,6.7793,7.2259,7.5709,7.7582,7.7481,7.6263,7.3725,7.3082,7.0073,6.3649,0.0,0.0,0.0,0.0,0.0,0.0,0.0,0.0,0.0,0.0,0.0,0.0,0.0,0.0,0.0,0.0,0.0,0.0,0.0,0.0,0.0,0.0,0.0,0.0,0.0,0.0,0.0,0.0,0.0,0.0,0.0,0.0,0.0,0.0,0.0,0.0,0.0,0.0,0.0,0.0,0.0,0.0,0.0,0.0,0.0,0.0,0.0,0.0,0.0,0.0,0.0,0.0,0.0,0.0,0.0,0.0,0.0,0.0,0.0,0.0,0.0,5.1352,0.0,0.0,0.0,0.0,0.0,0.0,0.0,0.0,0.0,0.0,0.0,0.0,0.0,0.0,0.0,0.0,0.0,0.0,0.0,0.0,0.0,0.0,0.0,0.0,0.0,0.0,0.0,0.0,0.0,0.0,0.0,0.0,0.0,0.0,0.0,0.0,0.0,0.0,0.0,0.0,6.9022,7.3172,7.642,7.8314,7.8225,7.721,7.5315,7.4774,7.1955,6.5837,6.3586,0.0,0.0,0.0,0.0,0.0,0.0,0.0,0.0,0.0,0.0,0.0,0.0,0.0,0.0,0.0,0.0,0.0,0.0,0.0,0.0,0.0,0.0,0.0,0.0,0.0,0.0,0.0,0.0,0.0,0.0,0.0,0.0,0.0,0.0,0.0,0.0,0.0,0.0,0.0,0.0,0.0,0.0,0.0,0.0,0.0,0.0,0.0,0.0,0.0,0.0,0.0,0.0,0.0,5.679,5.7636,5.8355,5.849,5.9902,6.2033,5.8355,5.7315,5.7891,0.0,0.0,0.0,0.0,0.0,0.0,0.0,0.0,0.0,0.0,0.0,0.0,0.0,0.0,0.0,0.0,0.0,0.0,0.0,0.0,0.0,0.0,0.0,0.0,0.0,6.0452,6.0714,0.0,0.0,0.0,0.0,0.0,0.0,0.0,0.0,0.0,0.0,0.0,0.0,7.0646,7.4356,7.7266,7.9261,7.9058,7.8247,7.6995,7.642,7.3687,6.8017,6.6225,6.3211,0.0,0.0,0.0,0.0,0.0,0.0,0.0,0.0,0.0,0.0,0.0,0.0,0.0,0.0,0.0,0.0,0.0,0.0,0.0,0.0,0.0,0.0,0.0,0.0,0.0,0.0,0.0,0.0,0.0,0.0,0.0,0.0,4.6143,4.7177,0.0,0.0,0.0,0.0,0.0,0.0,0.0,0.0,0.0,0.0,0.0,0.0,0.0,5.4676,5.6359,5.9066,6.0419,6.0452,6.2448,6.3802,6.4556,6.5178,6.5686,6.6058,6.5449,0.0,5.9708,5.8278,0.0,0.0,0.0,0.0,0.0,0.0,0.0,0.0,0.0,0.0,0.0,0.0,0.0,0.0,0.0,0.0,0.0,0.0,0.0,0.0,0.0,0.0,6.5584,6.5517,6.5787,6.5821,0.0,6.024,5.5877,5.4752,0.0,0.0,0.0,0.0,0.0,0.0,0.0,0.0,7.5168,7.8111,7.9972,8.0898,8.1494,8.0467,7.7164,7.7379,7.5231,6.9404,6.8286,6.579,6.122,5.9553,0.0,0.0,0.0,0.0,0.0,0.0,0.0,0.0,0.0,0.0,0.0,0.0,0.0,0.0,0.0,0.0,0.0,0.0,0.0,0.0,0.0,0.0,0.0,0.0,0.0,0.0,0.0,0.0,0.0,4.6082,4.8612,5.0194,4.9078,4.7808,0.0,0.0,0.0,0.0,0.0,0.0,0.0,0.0,0.0,5.7771,5.8601,5.9887,6.1772,6.3521,6.44,6.44,6.5797,6.6846,6.7624,6.8368,6.8707,6.8707,6.8707,6.7083,6.4241,6.095,5.8278,5.6012,0.0,0.0,0.0,0.0,5.416,5.4693,5.7137,5.8161,0.0,0.0,0.0,0.0,0.0,0.0,0.0,0.0,0.0,0.0,0.0,0.0,0.0,6.9136,6.9339,6.9339,6.9339,6.7343,6.4468,0.0,6.0003,5.8964,5.5886,0.0,0.0,0.0,0.0,0.0,7.6251,7.8483,7.987,8.0581,8.0202,7.9409,7.824,7.6851,7.4615,7.1318,6.9649,6.7377,6.4197,6.1357,5.8489,0.0,0.0,0.0,0.0,0.0,0.0,0.0,0.0,0.0,0.0,0.0,0.0,0.0,0.0,0.0,0.0,0.0,0.0,0.0,0.0,0.0,0.0,0.0,0.0,0.0,0.0,0.0,0.0,4.9424,5.1412,5.3247,5.2469,5.1022,0.0,0.0,0.0,0.0,0.0,0.0,5.7627,5.7694,5.9259,6.2608,6.3429,6.459,6.6248,6.7184,6.7681,6.7681,6.8436,6.918,6.9958,7.0714,7.1052,7.1052,7.1052,7.0308,6.8707,6.4005,6.1772,6.1028,5.8819,5.7737,5.7602,5.9075,5.9379,5.9505,6.2482,6.3429,6.3159,6.2347,0.0,6.1772,5.9708,0.0,0.0,0.0,0.0,6.4556,6.6406,6.8673,7.0827,7.2112,7.2417,7.2417,7.2417,7.2417,7.1109,0.0,6.5628,6.4444,6.1095,0.0,0.0,0.0,0.0,7.3567,7.7502,7.8991,7.9732,7.9872,7.9036,7.831,7.794,7.5996,7.4019,7.2292,7.063,6.8684,6.6341,6.3408,6.1074,5.9398,0.0,0.0,0.0,0.0,0.0,0.0,0.0,0.0,0.0,0.0,0.0,0.0,0.0,0.0,0.0,0.0,0.0,0.0,0.0,0.0,0.0,0.0,0.0,0.0,0.0,0.0,0.0,0.0,0.0,5.6486,5.6528,0.0,0.0,0.0,0.0,5.635,5.7872,6.0037,6.2936,6.3115,6.4153,6.6464,6.7252,6.7692,6.7793,6.9293,7.0037,7.0037,7.0759,7.1503,7.2259,7.3015,7.3319,7.3319,7.3319,7.2879,7.1921,6.8808,6.6271,6.4377,6.4208,6.3294,6.2255,6.37,6.4691,6.5368,6.6261,6.7512,6.8571,6.776,6.6102,6.4546,6.5097,6.3812,0.0,0.0,6.7512,6.9417,7.2304,7.368,7.4514,7.5303,7.5473,7.5473,7.5473,7.3849,7.2326,0.0,7.3059,7.3262,7.0962,0.0,7.2394,7.3837,7.4277,7.6036,8.0492,8.1135,8.0645,7.9217,7.9626,7.8569,7.5046,7.5235,7.4334,7.144,7.1169,6.985,6.7075,6.6775,6.456,6.013,5.8577,0.0,0.0,0.0,0.0,0.0,0.0,0.0,0.0,0.0,0.0,0.0,0.0,0.0,0.0,0.0,0.0,0.0,0.0,0.0,0.0,0.0,0.0,0.0,0.0,0.0,0.0,0.0,0.0,5.8143,5.8211,0.0,5.6808,5.8287,5.9597,6.0361,6.2212,6.441,6.6971,6.7106,6.7884,6.9643,7.0398,7.0804,7.0804,7.1797,7.2304,7.2338,7.3071,7.3803,7.4559,7.5337,7.5676,7.5676,7.5676,7.5248,7.4424,7.3341,7.1345,6.8899,6.8899,6.8594,6.8199,6.873,6.9068,6.9339,6.9609,7.0049,7.0556,7.0737,7.0263,6.9857,7.1075,7.0872,7.0567,7.209,7.3308,7.4356,7.5417,7.6229,7.686,7.7109,7.7176,7.7176,7.7176,7.6567,7.5992,7.5992,7.4875,7.3646,7.2834,7.4537,7.5676,7.475,7.6239,7.7891,7.8975,7.9103,7.8521,7.6979,7.6173,7.5575,7.5248,7.3608,7.2568,7.2549,7.1214,6.9994,6.8991,6.8092,6.6475,6.3947,6.3423,5.9564,0.0,0.0,0.0,0.0,0.0,0.0,0.0,0.0,0.0,0.0,0.0,0.0,0.0,0.0,0.0,0.0,0.0,0.0,0.0,0.0,0.0,0.0,0.0,0.0,0.0,0.0,5.893,5.9699,6.0646,6.0858,5.9877,6.2076,6.3835,6.459,6.6248,6.8075,7.0128,7.0195,7.0906,7.2383,7.289,7.3274,7.351,7.4266,7.4639,7.4672,7.5405,7.6014,7.6487,7.7029,7.7266,7.7266,7.7266,7.6961,7.6499,7.6499,7.5303,7.3465,7.2721,7.2247,7.2056,7.2056,7.2056,7.2078,7.2315,7.2586,7.2856,7.3341,7.3713,7.4086,7.51,7.554,7.5845,7.633,7.6872,7.7333,7.757,7.801,7.8416,7.8699,7.8733,7.8733,7.8733,7.8733,7.8663,7.8341,7.6307,7.4619,7.4619,7.6206,7.7098,7.5885,7.7335,7.8471,7.8252,7.7975,7.7161,7.5622,7.4369,7.3817,7.4319,7.1835,7.0907,7.2409,7.0718,6.9768,6.9977,6.8271,6.6789,6.5697,6.5428,6.1882,5.4862,0.0,0.0,0.0,0.0,0.0,0.0,0.0,0.0,0.0,0.0,0.0,0.0,0.0,0.0,0.0,0.0,0.0,0.0,0.0,0.0,0.0,0.0,0.0,5.806,5.9302,6.0554,6.1332,6.4005,6.5233,6.3825,6.6261,6.8301,6.9147,6.9868,7.0917,7.2428,7.2496,7.3172,7.4649,7.4717,7.5055,7.5743,7.6555,7.6927,7.6927,7.765,7.8022,7.8022,7.8022,7.8056,7.8056,7.8056,7.8056,7.8056,7.8056,7.8056,7.7819,7.5562,7.4255,7.3624,7.3624,7.3624,7.3725,7.4458,7.5168,7.5777,7.5777,7.6284,7.6927,7.6961,7.7481,7.8022,7.8056,7.8056,7.8225,7.8945,7.9147,7.935,8.0073,8.0205,8.0179,8.0179,8.0141,7.9875,7.902,7.7733,7.6766,7.6806,7.6653,7.6843,7.776,7.7665,0.0,7.8681,7.7988,7.6835,7.5244,7.453,7.3531,7.2041,7.0171,6.9632,7.0859,6.9782,6.9363,7.0007,6.7508,6.5787,6.5114,6.4291,6.263,6.01,0.0,0.0,0.0,0.0,0.0,0.0,0.0,0.0,0.0,0.0,0.0,0.0,0.0,0.0,0.0,0.0,0.0,0.0,0.0,0.0,0.0,5.8152,5.9742,5.9505,6.2188,6.4251,6.4454,6.6136,6.7354,6.7546,6.8774,7.0094,7.1413,7.1684,7.2665,7.4695,7.4796,7.5473,7.7041,7.7075,7.7176,7.7379,7.7582,7.7718,7.7718,7.7887,7.8293,7.8809,7.8809,7.9092,7.9612,7.9612,7.9612,7.9612,7.9612,7.9295,7.8686,7.7502,7.6939,7.677,7.677,7.677,7.677,7.7007,7.721,7.7379,7.7379,7.7515,7.7819,7.8336,7.864,7.8923,7.9431,7.9612,7.9634,7.9837,8.0276,8.0763,8.0966,8.0499,8.0044,8.0044,7.9097,7.8164,7.7925,7.6684,7.6012,7.7102,7.7262,7.7322,7.7569,7.7536,0.0,7.6309,7.5977,7.5058,7.3029,7.2655,7.237,7.1926,7.1414,7.1248,7.1593,7.1294,7.0965,7.0679,6.9512,6.8361,6.7194,6.3213,6.0819,0.0,0.0,0.0,0.0,0.0,0.0,0.0,0.0,0.0,0.0,0.0,0.0,0.0,0.0,0.0,0.0,0.0,0.0,0.0,0.0,0.0,0.0,6.1332,6.3024,6.3328,6.4986,6.6406,6.706,6.8436,6.962,7.0398,7.1413,7.2529,7.368,7.4086,7.4965,7.6589,7.6669,7.7198,7.8416,7.845,7.8631,7.8936,7.8936,7.8936,7.8936,7.8936,7.916,7.9553,7.9553,7.9803,0.0,8.0209,8.0209,8.0209,8.0209,7.9938,0.0,0.0,0.0,0.0,0.0,7.8191,7.845,7.845,7.8665,7.8936,7.8936,7.8936,7.8991,7.9431,7.9769,8.0107,8.0547,8.0885,8.1122,8.1122,8.1426,8.1589,8.0907,8.037,7.9819,7.9089,7.8415,7.7746,7.708,0.0,0.0,7.6801,7.6351,7.612,7.6472,7.6463,7.621,7.5708,7.5314,7.456,7.328,7.291,7.2731,7.2731,7.1983,0.0,0.0,0.0,7.041,6.8914,6.8495,0.0,0.0,0.0,0.0,0.0,0.0,0.0,0.0,5.8411,5.7812,0.0,0.0,0.0,0.0,0.0,0.0,0.0,0.0,0.0,0.0,0.0,0.0,0.0,0.0,0.0,0.0,6.4772,6.7343,6.8166,6.7783,6.7918,6.9214,7.0658,7.1875,7.2699,7.395,7.5055,7.5879,7.6623,7.7333,7.809,0.0,0.0,0.0,0.0,7.952,8.0175,8.0276,8.031,8.031,8.0412,8.0445,8.0445,8.0445,8.0445,8.0445,8.0445,8.0445,8.0445,8.0445,8.0445,8.0378,7.9553,7.8822,7.8259,7.8259,7.872,7.935,7.935,0.0,0.0,8.0445,8.0445,8.0445,8.0445,8.0919,8.1405,8.1405,8.19,8.2322,8.2077,8.2072,8.1737,8.0211,7.9706,7.9227,7.7971,7.7963,7.7807,7.6512,7.7225,7.7592,7.6253,7.5018,7.4493,7.5257,7.5247,7.5401,7.6165,7.5577,7.5065,7.4933,0.0,0.0,7.3911,7.2265,7.171,7.2817,7.1082,6.8928,6.6535,6.646,6.6146,6.5443,6.5443,6.634,6.8107,6.8107,6.7792,6.7074,6.0489,5.9023,0.0,0.0,0.0,0.0,0.0,0.0,0.0,0.0,0.0,0.0,0.0,0.0,0.0,0.0,0.0,6.4488,6.6981,6.9102,7.0455,7.103,7.121,7.0928,7.2191,7.359,7.4931,7.5337,7.6048,7.7447,7.7684,7.8124,7.8843,7.8889,7.9228,7.9972,8.0006,8.0073,8.0209,8.0796,8.1101,8.1101,0.0,0.0,8.1955,8.1955,8.1955,8.1955,8.1955,8.1955,8.1955,8.1955,8.1955,8.182,8.0513,7.9904,7.9769,7.9769,8.0255,8.0864,8.0864,8.1359,8.1955,8.1955,8.1955,8.1955,8.1955,8.2056,0.0,8.2205,8.2293,8.1978,8.0127,8.0095,8.0271,7.9133,7.7917,7.7387,7.8661,7.7191,7.5816,7.6559,7.6508,7.6404,7.6579,7.6407,7.6302,7.6469,7.6467,7.65,7.668,7.6557,7.6036,7.5006,7.5275,7.5078,7.4001,7.3522,7.3193,7.2907,7.1501,7.026,6.9259,6.9229,6.8914,6.8256,6.8226,6.8405,6.8794,6.8794,6.8734,6.8555,6.6086,6.5548,0.0,0.0,0.0,0.0,0.0,0.0,0.0,0.0,0.0,0.0,0.0,5.8481,6.0351,0.0,6.5774,6.7635,6.953,7.1278,7.2755,7.3612,7.3916,7.3544,7.4153,7.518,7.669,7.7164,7.7739,7.8483,7.8889,7.9261,7.9621,7.9667,7.9837,8.0175,8.0547,8.0763,8.0763,8.146,8.1832,8.1832,8.2225,8.2395,8.2395,8.2395,8.2395,8.2395,8.2395,8.2395,8.2395,8.2395,8.2395,8.2327,8.1596,8.1291,8.1291,8.1291,8.1291,8.1304,8.1304,8.1304,8.1291,8.1291,8.1291,8.1291,8.1291,8.182,8.2306,8.1819,8.1997,8.1915,8.0294,7.9917,7.9601,7.826,7.7369,7.6877,7.7046,7.5955,7.5095,7.5736,7.6108,7.6467,7.6766,7.7365,7.7574,7.6916,7.6779,7.6779,7.6779,7.6779,7.6557,7.5916,7.5886,7.5647,7.4958,7.4587,7.3971,7.2967,7.2279,7.1338,7.0037,7.0007,6.9678,6.9004,6.9004,6.9004,6.9004,6.9004,6.9183,6.9482,6.881,6.8511,0.0,0.0,0.0,0.0,0.0,0.0,0.0,5.4913,5.5674,5.8051,6.0047,6.2033,6.4197,6.6768,6.9011,7.0409,7.2,7.3443,7.4649,7.5574,7.6183,7.6352,7.6217,7.6702,7.809,7.8754,7.9147,7.9283,7.987,8.0209,8.0209,8.0344,8.0412,8.0412,8.1135,8.1507,8.1507,8.2238,8.2598,8.2631,8.2767,8.2834,8.2834,8.2834,8.2733,8.2598,8.2598,8.2699,8.2834,8.3003,8.3037,8.3071,8.3206,8.3274,8.3206,8.2631,8.2035,8.1507,8.1507,8.1122,8.0598,8.043,8.0374,8.0356,8.017,8.0962,8.1744,8.0978,8.1221,8.1439,8.0176,7.9488,7.872,7.7209,7.6724,7.6408,7.5464,7.5065,7.4976,7.5215,7.5988,7.6766,7.7125,7.81,7.843,7.7365,7.7185,7.7155,7.7006,7.6988,7.6916,7.6647,7.6288,7.5958,7.5736,7.5095,7.4197,7.2967,7.2907,7.2206,7.0636,7.0576,7.0306,6.9782,6.9752,6.9752,6.9752,6.9752,7.0021,7.0576,7.0576,7.0201,5.3247,5.2672,5.3112,5.6436,5.6292,5.6722,0.0,6.1772,6.1231,6.4116,6.5425,6.6565,6.8166,6.9812,7.1199,7.2022,7.395,7.5371,7.554,7.6838,7.7988,7.864,7.8145,7.8077,7.8911,7.9046,7.9384,8.004,8.0141,8.0209,8.0209,8.083,8.1169,8.1169,8.19,8.2259,8.2259,8.3016,8.3389,8.3389,8.4052,8.4343,8.4343,8.4343,8.3984,8.3389,8.3389,8.3748,8.4424,8.5114,8.5432,8.5499,8.6149,8.6386,8.6081,8.3375,8.2361,8.2259,8.2259,8.2225,8.2017,8.1235,8.1005,8.0852,8.0089,7.9946,8.006,7.9978,7.9997,7.9569,7.7355,7.6725,7.6449,7.5406,7.4712,7.4688,7.6233,7.5707,7.5245,7.6377,7.6258,7.6544,7.828,7.8699,7.8747,7.8579,7.8579,7.837,7.7753,7.7694,7.7245,7.6108,7.6407,7.6228,7.5095,7.4407,7.3702,7.2937,7.2907,7.2787,7.2578,7.2578,7.2548,7.2458,7.2458,7.2458,7.2458,7.2458,7.2488,7.2578,7.2578,7.2206,5.8669,5.8118,5.8118,6.0544,6.0714,6.1018,6.3937,6.3869,6.3937,6.644,6.7929,6.9113,7.0184,7.1943,7.3465,7.4187,7.5473,7.669,7.757,7.8247,7.8923,7.9667,7.9464,7.9397,7.9701,7.9735,7.987,8.0175,8.0581,8.083,8.083,8.1528,8.1934,8.1934,8.2644,8.305,8.305,8.3781,8.4153,8.4153,8.4444,8.4864,8.5283,8.483,8.4424,8.4153,8.4153,8.4323,8.4547,8.3954,8.3707,8.374,8.404,8.4174,8.4186,8.4332,8.3497,8.2213,8.178,8.1347,8.0789,7.9447,7.9674,8.0213,7.8862,7.8751,7.8984,7.8439,7.8313,7.7995,7.6454,7.5791,7.5395,7.4984,7.4676,7.4706,7.5527,7.5587,7.5647,7.6168,7.6993,7.7711,7.816,7.8878,7.9238,7.8867,7.8807,7.8699,7.84,7.7694,7.6886,7.6006,7.6108,7.5916,7.4976,7.4646,7.4197,7.3522,7.3492,7.3313,7.2907,7.2907,7.2907,7.2907,7.2907,7.2907,7.2907,7.2907,7.3086,7.3492,7.3492,7.3762,6.2018,6.2009,6.2269,6.3724,6.44,6.4908,6.5662,6.5831,6.6406,6.8436,6.9722,7.0906,7.2281,7.3803,7.5236,7.6183,7.6995,7.7862,7.8945,7.9283,7.96,8.0141,8.0209,8.0276,8.0492,8.0513,8.0513,8.0513,8.1202,8.1608,8.1608,8.2306,8.2699,8.2699,8.3422,8.3896,8.4133,8.4458,8.4715,8.4931,8.4728,8.4898,8.5452,8.4661,8.4424,8.458,8.439,8.4424,8.4507,8.3085,8.2784,8.3101,8.2436,8.2429,8.2957,8.4052,8.337,8.1821,8.1294,8.0292,7.9064,7.76,7.7947,7.8676,7.722,7.7167,7.7449,7.6742,7.6585,7.6521,7.6022,7.5527,7.5215,7.5395,7.5407,7.5407,7.5407,7.5796,7.6198,7.6395,7.7562,7.8549,7.8639,7.9279,7.9758,7.9627,7.9166,7.8729,7.8549,7.7514,7.6647,7.6198,7.5988,7.5707,7.5215,7.5006,7.4676,7.4227,7.4197,7.3941,7.3462,7.3462,7.3462,7.3462,7.3462,7.3462,7.3462,7.3462,7.3791,7.445,7.445,7.5078,6.1535,6.2371,6.3792,6.5266,6.6721,6.7996,6.8774,6.8977,6.9383,7.0894,7.1233,7.2146,7.5033,7.5608,7.6149,7.7684,7.8551,7.9046,7.908,7.9735,8.0175,8.0209,8.0209,8.0492,8.1202,8.127,8.127,8.127,8.1934,8.2361,8.2361,8.3084,8.3456,8.3456,8.4187,8.4931,8.5736,8.4965,8.4999,8.5736,8.4965,8.4614,8.4614,8.3862,8.3917,8.4546,8.3862,8.395,8.454,8.3631,8.4217,8.5464,8.2985,8.2956,8.4072,8.1848,8.1092,8.1129,8.1096,7.9545,7.7412,7.651,7.6267,7.6149,7.5234,7.498,7.501,7.4988,7.4971,7.5104,7.5754,7.5869,7.6036,7.6617,7.6719,7.6719,7.6719,7.6766,7.6976,7.7604,7.7801,7.8442,8.0375,8.0207,8.0237,8.153,8.0064,7.8549,7.7921,7.7245,7.6779,7.6779,7.6258,7.5886,7.5886,7.5275,7.4886,7.4856,7.4856,7.4856,7.4826,7.4826,7.4826,7.4826,7.4826,7.4826,7.4826,7.4826,7.5185,7.5856,7.5856,7.6168,6.4015,6.4952,6.6159,6.8176,6.8684,6.9011,7.0252,7.0556,7.0962,7.2462,7.3544,7.4525,7.5506,7.6533,7.7548,7.8585,7.8945,7.9283,7.9769,8.004,8.0209,8.0209,8.0615,8.1033,8.127,8.1304,8.1507,8.2002,8.2712,8.3118,8.3118,8.3815,8.4458,8.5026,8.4762,8.4999,8.5804,8.4999,8.4762,8.4999,8.5283,8.51,8.4614,8.4911,8.4297,8.3054,8.3874,8.3773,8.2886,8.1558,8.1316,8.1615,7.9651,7.9195,7.973,8.005,7.9498,7.8575,7.8575,7.8061,7.7149,7.5772,7.6064,7.6748,7.5836,7.5245,7.5065,7.5916,7.5886,7.5707,7.6347,7.6497,7.6557,7.6749,7.6779,7.6779,7.6779,7.7155,7.7514,7.7771,7.8878,7.9716,7.9507,8.0016,8.0315,7.9884,7.9226,7.84,7.7275,7.6946,7.6779,7.6779,7.6617,7.6497,7.6497,7.6288,7.6006,7.5587,7.5557,7.5347,7.4916,7.4886,7.4886,7.4886,7.4886,7.5125,7.5557,7.5557,7.5886,7.6497,7.6497,7.6856,6.6688,6.7861,6.8831,7.0534,7.1041,7.1233,7.1921,7.209,7.2428,7.3646,7.4661,7.5473,7.6014,7.713,7.8327,7.9329,7.9722,8.004,8.0513,8.0593,8.0593,8.0593,8.0999,8.1507,8.2014,8.2082,8.2272,8.278,8.349,8.3883,8.3883,8.464,8.5134,8.5351,8.5148,8.5283,8.5804,8.4999,8.4614,8.4614,8.51,8.51,8.4614,8.5148,8.4533,8.311,8.4157,8.4021,8.2886,8.0918,8.0838,8.1618,7.838,7.787,7.8939,7.8779,7.8065,7.7129,7.7264,7.7069,7.6618,7.5592,7.6104,7.7012,7.6413,7.5916,7.5736,7.6587,7.6527,7.6377,7.7006,7.7155,7.7215,7.7454,7.7514,7.7514,7.7514,7.7861,7.822,7.8471,7.9746,8.0524,7.9656,8.0045,8.0075,7.8986,7.8807,7.8489,7.7634,7.7514,7.7514,7.7514,7.7305,7.7155,7.7155,7.6946,7.6647,7.6258,7.6228,7.6036,7.5587,7.5587,7.5587,7.5587,7.5587,7.5796,7.6228,7.6228,7.6527,7.7155,7.7155,7.7514,6.9327,7.0872,7.1672,7.2428,7.36,7.44,7.3678,7.3543,7.3736,7.4364,7.4568,7.5089,7.6521,7.7447,7.8462,7.987,8.0729,8.1236,8.1236,8.127,8.1304,8.1304,8.1372,8.1947,8.3355,8.3524,8.3558,8.3592,0.0,8.4647,8.4614,8.5351,8.5452,8.4749,8.5384,8.577,8.5804,8.4999,8.4614,8.4614,8.4614,8.4614,8.4614,8.4533,8.454,8.454,8.4574,8.4534,8.4284,8.1768,8.2613,8.4899,7.9054,7.8795,8.1253,7.8007,7.6779,7.6862,7.7139,7.6684,7.5946,7.5946,7.6347,7.6808,7.6838,7.6826,7.6808,7.6868,7.6886,7.7006,7.7664,7.7861,7.8011,7.8639,7.8807,7.8807,7.8807,7.8807,7.8998,7.9608,8.0255,8.0704,8.0734,8.0177,7.9519,7.8878,7.8807,7.8807,7.8807,7.8807,7.8807,7.8807,7.822,7.7861,7.7861,7.7275,7.6886,7.6838,7.6838,7.6838,7.6779,7.6779,7.6779,7.6779,7.6779,7.6826,7.6838,7.6838,7.7215,7.7861,7.7861,7.819,7.1142,7.28,7.4074,7.5439,7.5156,7.4413,7.3724,7.3948,7.4052,7.3163,7.425,7.5371,7.5224,7.6724,7.8124,7.8496,7.9646,8.0492,8.0492,8.0966,8.1304,8.1304,8.2285,8.3084,8.3456,8.3984,8.4559,8.5161,8.5398,8.5249,8.4614,8.5351,8.5973,8.6318,8.5405,8.5168,8.5804,8.4999,8.4614,8.4614,8.4614,8.4614,8.4587,8.3891,8.3598,8.364,8.4176,8.371,8.2549,8.1872,8.1329,8.0665,7.7895,7.7343,7.8007,7.7117,7.6779,7.6819,7.6899,7.6761,7.6587,7.6587,7.6659,7.6886,7.7394,7.7215,7.7006,7.8011,7.7921,7.7694,7.837,7.8549,7.8579,7.8759,7.8807,7.8807,7.8807,7.8807,7.8849,7.9028,7.9178,7.9477,7.9967,7.9507,7.8998,7.8837,7.8807,7.8807,7.8807,7.8807,7.8807,7.8807,7.8639,7.8549,7.8549,7.84,7.8071,7.7574,7.7544,7.7335,7.6808,7.6779,7.6779,7.6779,7.6779,7.7065,7.7544,7.7544,7.7891,7.8549,7.8549,7.8639,7.2969,7.4458,7.5371,7.6589,7.6487,7.5732,7.4365,7.434,7.4178,7.2701,7.3658,7.439,7.3364,7.554,7.7515,7.7515,7.9308,8.0784,8.1122,8.1528,8.1913,8.2218,8.2996,8.3625,8.395,8.4356,8.4796,8.5249,8.5601,8.5723,8.5608,8.6027,8.6332,8.6399,8.5587,8.5168,8.5283,8.483,8.4614,8.4614,8.4965,8.5148,8.5107,8.4933,8.4432,8.3779,0.0,8.3356,8.1773,8.1363,8.1038,8.0613,7.8491,7.8147,7.8716,7.7953,7.7664,7.7664,7.7664,7.7664,7.7634,7.7335,7.7424,7.7753,7.813,7.7981,7.7813,7.8579,7.8519,7.834,7.8699,7.8807,7.8807,7.8807,7.8807,7.8807,7.8807,7.8807,7.8878,7.9178,7.8998,7.8998,7.9668,7.9238,7.8807,7.8807,7.8807,7.8807,7.8807,7.8807,7.8807,7.8807,7.8807,7.8807,7.8807,7.8807,7.8639,7.825,7.825,7.8071,7.7694,7.7664,7.7664,7.7664,7.7664,7.7861,7.825,7.825,7.843,7.8807,7.8807,7.8807,7.4559,7.5845,7.6183,7.6995,7.7448,7.7122,7.494,7.4232,7.3625,7.2243,7.2483,7.2575,7.1503,7.4209,7.6657,7.686,7.9308,8.1405,8.2171,8.2327,8.2665,8.3422,8.3659,8.3998,8.4546,8.4681,8.4783,8.4884,8.5452,8.6075,8.6724,8.6859,8.6501,8.5669,8.5736,8.5418,8.4614,8.4783,8.4864,8.4762,8.5554,8.5831,8.564,8.6127,8.5545,8.4102,0.0,0.0,8.1586,8.0768,8.1153,8.2039,7.9689,7.9716,8.0877,7.9338,7.8807,7.8807,7.8807,7.8807,7.8699,7.813,7.834,7.8807,7.8807,7.8807,7.8807,7.8807,7.8807,7.8807,7.8807,7.8807,7.8807,7.8807,7.8807,7.8807,7.8807,7.8867,7.9088,7.9548,7.9267,7.9088,7.9578,7.9178,7.8807,7.8807,7.8807,7.8807,7.8807,7.8807,7.8807,7.8807,7.8807,7.8807,7.8807,7.8807,7.8807,7.8807,7.8807,7.8807,7.8807,7.8807,7.8807,7.8807,7.8807,7.8807,7.8807,7.8807,7.8807,7.8807,7.8807,7.8807,7.4999,7.6623,7.7785,7.8539,7.7446,7.5774,7.4146,7.232,7.0704,6.9853,6.9789,7.0161,7.1131,7.333,7.5427,7.669,7.8855,8.0648,8.1405,8.2035,8.2665,8.3422,8.462,8.5182,8.4647,8.5215,8.5824,8.6453,8.6061,8.5872,8.5973,8.6569,8.625,8.4864,8.5452,8.5418,8.4614,8.5878,8.6196,8.5601,8.6366,8.594,8.4528,8.3816,8.3341,8.3014,8.2242,0.0,8.1428,8.1296,8.052,7.9458,7.8998,7.8975,7.9225,7.8915,7.8807,7.8807,7.8807,7.8807,7.8777,7.8639,7.8717,7.8807,7.8807,7.8807,7.8807,7.8807,7.8807,7.8807,7.8807,7.8807,7.8807,7.8807,7.8807,7.8807,7.8807,7.9238,7.9489,7.9058,7.9327,7.9489,7.9058,7.8878,7.8807,7.8807,7.8807,7.8807,7.8807,7.8807,7.8807,7.8807,7.8807,7.8807,7.8807,7.8807,7.8807,7.8807,7.8807,7.8807,7.8807,7.8807,7.8807,7.8807,7.8807,7.8807,7.8807,7.8807,7.8807,7.8807,7.8807,7.8807,7.51,7.6251,7.7063,7.8247,7.745,7.5618,7.2663,7.1368,7.0043,6.7466,6.7758,6.8571,6.8899,7.1751,7.439,7.5528,7.8247,8.0581,8.1697,8.2509,8.3253,8.3984,8.508,8.5486,8.4681,8.5317,8.6108,8.6825,8.623,8.6142,8.692,8.6535,8.579,8.4647,8.4965,8.4999,8.4614,8.5757,8.6142,8.5804,8.6941,8.6552,8.4858,8.4763,8.3736,8.204,8.1612,0.0,8.0068,8.0068,7.9551,7.8807,7.8807,7.8807,7.8807,7.8807,7.8807,7.8807,7.8807,7.8807,7.8807,7.8807,7.8807,7.8807,7.8807,7.8807,7.8807,7.8807,7.8807,7.8807,7.8807,7.8807,7.8807,7.8807,7.9058,7.9238,7.8878,7.9597,8.0016,7.9016,7.9357,7.9578,7.8926,7.8807,7.8807,7.8807,7.8807,7.8807,7.8807,7.8807,7.8807,7.8807,7.8807,7.8807,7.8807,7.8807,7.8807,7.8807,7.8807,7.8807,7.8807,7.8807,7.8807,7.8807,7.8807,7.8807,7.8807,7.8807,7.8807,7.8807,7.8807,7.8807,7.4965,7.5709,7.6251,7.7447,7.7104,7.535,7.1223,7.0125,6.8982,6.5412,6.5812,6.6918,6.7233,7.0432,7.3488,7.4852,7.7705,8.0344,8.2158,8.278,8.3355,8.4255,8.5215,8.5432,8.4458,8.5033,8.5801,8.6609,8.6142,8.6311,8.7462,8.6278,8.5317,8.4864,8.5019,8.5087,8.5087,8.6027,8.6249,8.5717,8.7043,8.6594,8.4569,8.512,8.3754,8.0842,8.0842,0.0,0.0,7.8807,7.8807,7.8807,7.8807,7.8807,7.8807,7.8807,7.8807,7.8807,7.8807,7.8807,7.8807,7.8807,7.8807,7.8807,7.8807,7.8807,7.8807,7.8807,7.8807,7.8807,7.8807,7.8807,7.8807,7.8807,7.9208,7.9477,7.9088,7.9836,8.0285,7.9208,7.9429,7.9578,7.8926,7.8807,7.8807,7.8807,7.8807,7.8807,7.8807,7.8807,7.8807,7.8807,7.8807,7.8807,7.8807,7.8807,7.8807,7.8807,7.8807,7.8807,7.8807,7.8807,7.8807,7.8807,7.8807,7.8807,7.8807,7.8807,7.8807,7.8807,7.8807,7.8807,7.4446,7.5709,7.6826,7.6961,7.594,7.396,7.0415,6.7545,6.534,6.4207,6.3606,6.4429,6.8185,7.0319,7.2653,7.6115,7.7548,7.9172,8.1989,8.1866,8.2014,8.3422,8.489,8.5229,8.3727,8.4172,8.4912,8.5844,8.5838,8.5872,8.6007,8.5168,8.4999,8.5669,8.6332,8.669,8.669,8.8105,8.7686,8.5439,8.6261,8.4926,8.1761,8.1824,8.0842,7.9028,7.9028,0.0,0.0,7.8807,7.8807,7.8807,7.8807,7.8807,7.8807,7.8807,7.8807,7.8807,7.8807,7.8807,7.8807,7.8807,7.8807,7.8807,7.8807,7.8807,7.8807,7.8807,7.8807,7.8807,7.8807,7.8807,7.8807,7.8807,7.8867,7.9028,7.9578,7.9788,7.9848,7.9728,7.9758,7.9578,7.8926,7.8807,7.8807,7.8807,7.8807,7.8807,7.8807,7.8807,7.8807,7.8807,7.8807,7.8807,7.8807,7.8807,7.8807,7.8807,7.8807,7.8807,7.8807,7.8807,7.8807,7.8807,7.8807,7.8807,7.8807,7.8807,7.8807,7.8807,7.8807,7.8807,7.4378,7.5359,7.6284,7.6792,7.5142,7.2436,6.8531,6.6006,6.3716,6.093,6.1654,6.3594,6.6157,6.8841,7.1853,7.5574,7.721,7.8733,8.0784,8.1596,8.2171,8.278,8.4586,8.5364,8.4255,8.5239,8.568,8.5128,8.5533,8.5601,8.51,8.4749,8.4965,8.577,8.6075,8.6433,8.6893,8.6874,8.6394,8.5414,8.5117,8.3722,8.1394,8.1394,8.0457,7.8807,7.8807,0.0,0.0,7.8807,7.8807,7.8807,7.8807,7.8807,7.8807,7.8807,7.8807,7.8807,7.8807,7.8807,7.8807,7.8807,7.8807,7.8807,7.8807,7.8807,7.8807,7.8807,7.8807,7.8807,7.8807,7.8807,7.8878,7.9327,7.9716,8.0075,8.0345,8.1033,8.1242,8.0027,8.0117,8.0075,7.8986,7.8807,7.8807,7.8807,7.8807,7.8807,7.8807,7.8807,7.8807,7.8807,7.8807,7.8807,7.8807,7.8807,7.8807,7.8807,7.8807,7.8807,7.8807,7.8807,7.8807,7.8807,7.8807,7.8807,7.8807,7.8807,7.8807,7.8807,7.8807,7.8807,7.4345,7.5134,7.5845,7.6386,7.4835,7.2059,6.7651,6.5364,6.3031,5.9053,6.0379,6.2824,6.4672,6.7848,7.1424,7.51,7.6804,7.836,8.0255,8.1224,8.182,8.2069,8.3875,8.4809,8.4018,8.5337,8.5567,8.4021,8.4872,0.0,8.4965,8.4965,8.5303,8.6108,8.584,8.6041,8.6766,8.5584,8.4726,8.4217,8.3547,8.2325,8.0618,8.0618,7.9963,7.8807,0.0,0.0,0.0,7.8807,7.8807,7.8807,7.8807,7.8807,7.8807,7.8807,7.8807,7.8807,7.8807,7.8807,7.8807,7.8807,7.8807,7.8807,7.8807,7.8807,7.8807,7.8807,7.8807,7.8807,7.8807,7.8807,7.8968,7.9638,8.0147,8.0614,8.1003,8.153,8.156,8.0326,8.0165,7.9896,7.8938,7.8807,7.8807,7.8807,7.8807,7.8807,7.8807,7.8807,7.8807,7.8807,7.8807,7.8807,7.8807,7.8807,7.8807,7.8807,7.8807,7.8807,7.8807,7.8807,7.8807,7.8807,7.8807,7.8807,7.8807,7.8807,7.8807,7.8807,7.8807,7.8807,7.4209,7.5134,7.5709,7.5709,7.5156,7.3309,6.84,6.5725,6.3264,5.956,5.998,6.1821,6.4525,6.7848,7.1424,7.51,7.6386,7.7942,8.0864,8.0661,8.0479,8.1202,8.2624,8.3219,8.2496,8.3781,8.3967,8.2359,8.3715,0.0,8.5736,8.577,8.6142,8.6859,8.5919,8.5756,8.651,8.4851,8.3152,8.1446,8.1429,8.0527,7.8825,7.8825,7.8825,0.0,0.0,0.0,0.0,7.8807,7.8807,7.8807,7.8807,7.8807,7.8807,7.8807,7.8807,7.8807,7.8807,7.8807,7.8807,7.8807,7.8807,7.8807,7.8807,7.8807,7.8807,7.8807,7.8807,7.8807,7.8807,7.8807,7.8968,7.9638,7.9818,8.0177,8.15,8.0764,8.0027,8.0674,7.9716,7.8837,7.8807,7.8807,7.8807,7.8807,7.8807,7.8807,7.8807,7.8807,7.8807,7.8807,7.8807,7.8807,7.8807,7.8807,7.8807,7.8807,7.8807,7.8807,7.8807,7.8807,7.8807,7.8807,7.8807,7.8807,7.8807,7.8807,7.8807,7.8807,7.8807,7.8807,7.1616,7.2879,7.3962,7.2924,7.1412,6.9364,6.6426,6.4131,6.1943,5.9324,6.0644,6.2627,6.4001,6.7111,7.0804,7.5033,7.6386,7.7739,8.0209,8.1224,8.1786,8.2035,8.3828,8.5195,8.5439,8.4918,8.4392,8.3865,8.4824,0.0,8.577,8.6751,8.7414,8.7651,8.6185,8.5759,8.648,8.3657,8.1939,8.1377,8.0178,7.932,7.8807,7.8807,0.0,0.0,0.0,0.0,0.0,7.8807,7.8807,7.8807,7.8807,7.8807,7.8807,7.8807,7.8807,7.8807,7.8807,7.8807,7.8807,7.8807,7.8807,7.8807,7.8807,7.8807,7.8807,7.8807,7.8807,7.8807,7.8807,7.8807,7.9058,8.0225,8.0476,8.0734,8.162,8.1471,8.0943,8.0237,7.9758,7.9357,7.8878,7.8807,7.8807,7.8807,7.8807,7.8807,7.8807,7.8807,7.8807,7.8807,7.8807,7.8807,7.8807,7.8807,7.8807,7.8807,7.8807,7.8807,7.8807,7.8807,7.8807,7.8807,7.8807,7.8807,7.8807,7.8807,7.8807,7.8807,7.9267,7.9489,7.0003,7.1424,7.2462,7.1537,6.9882,6.7988,6.6113,6.3898,6.1711,5.9867,6.123,6.3023,6.3771,6.6732,7.0297,7.3883,7.5574,7.7232,7.9464,8.1054,8.2306,8.3139,8.4234,8.533,8.6399,8.5337,8.4614,8.4614,8.5351,0.0,8.621,8.7347,8.784,8.7462,8.5765,8.508,8.5535,8.2126,8.0422,8.0405,7.9302,7.8807,7.8807,7.8807,0.0,0.0,0.0,0.0,0.0,7.8807,7.8807,7.8807,7.8807,7.8807,7.8807,7.8807,7.8807,7.8807,7.8807,7.8807,7.8807,7.8807,7.8807,7.8807,7.8807,7.8807,7.8807,7.8807,7.8807,7.8867,7.9118,7.9178,7.9507,8.0853,8.1183,8.1381,8.2039,8.177,8.1183,8.0345,7.9776,7.9297,7.8867,7.8807,7.8807,7.8807,7.8807,7.8807,7.8807,7.8807,7.8807,7.8807,7.8807,7.8807,7.8807,7.8807,7.8807,7.8807,7.8807,7.8807,7.8807,7.8807,7.8807,7.8807,7.8807,7.8807,7.8807,7.8807,7.8807,7.8837,7.9489,7.9788,0.0,7.0331,7.0962,7.0861,6.9778,6.8392,6.6903,6.465,0.0,6.1009,6.1845,6.3099,6.3958,6.6787,6.9823,7.2225,7.4424,7.6589,7.8911,8.0615,8.2421,8.4593,8.4187,8.4349,8.5872,8.5202,8.4715,8.4749,8.5486,0.0,8.6927,8.7685,8.7647,8.6705,8.5039,8.4123,8.4011,8.0548,7.8861,7.8975,7.8861,7.8807,7.8807,7.8807,0.0,0.0,0.0,0.0,0.0,7.8807,7.8807,7.8807,7.8807,7.8807,7.8807,7.8807,7.8807,7.8807,7.8807,7.8807,7.8807,7.8807,7.8807,7.8807,7.8807,7.8807,7.8807,7.8807,7.8807,7.8938,7.9608,7.9788,8.0147,8.1471,8.18,8.1949,8.2537,8.168,8.0764,8.0674,7.9656,7.8807,7.8807,7.8807,7.8807,7.8807,7.8807,7.8807,7.8807,7.8807,7.8807,7.8807,7.8807,7.8807,7.8807,7.8807,7.8807,7.8807,7.8807,7.8807,7.8807,7.8807,7.8807,7.8807,7.8807,7.8807,7.8807,7.8867,7.8867,7.8878,7.9608,7.9967,6.4874,0.0,6.758,6.6474,6.5899,6.5415,0.0,6.3802,6.308,6.2149,6.271,6.3921,6.5791,6.7251,6.9654,7.4187,7.5879,7.7604,8.039,8.3063,8.5364,8.7008,8.6569,8.6704,8.8172,8.6616,8.5757,8.6318,8.7076,8.755,8.7719,8.8443,8.8715,8.8495,8.6798,8.5304,8.4011,8.0548,7.9463,8.0773,7.9427,7.8807,7.8807,7.8807,0.0,0.0,0.0,0.0,7.8807,7.8807,7.8807,7.8807,7.8807,7.8807,7.8807,7.8807,7.8807,7.8807,7.8807,7.8807,7.8807,7.8807,7.8807,7.8807,7.8807,7.8807,7.8807,7.8807,7.8807,7.8938,7.9608,7.9788,8.0147,8.1471,8.18,8.171,8.1351,8.1003,8.0494,7.9477,7.9016,7.8807,7.8807,7.8807,7.8807,7.8807,7.8807,7.8807,7.8807,7.8807,7.8807,7.8807,7.8807,7.8807,7.8807,7.8807,7.8807,7.8807,7.8807,7.8807,7.8807,7.8807,7.8807,7.8807,7.8807,7.8807,7.8807,7.9327,7.9548,7.9578,8.0764,8.159,6.2472,6.4333,6.6102,6.529,6.485,6.4512,6.4096,6.3487,6.2888,6.2492,6.299,6.4062,6.5967,6.7489,6.9722,7.3544,7.598,7.8653,8.2306,8.5114,8.7123,8.7888,8.7651,8.7719,8.8511,8.7225,8.6602,8.7347,0.0,8.8158,8.8511,8.8883,8.8742,8.7926,8.7009,8.5706,8.4027,8.1343,8.0086,8.0178,7.9261,7.8807,7.8807,7.8807,7.8807,0.0,0.0,0.0,7.8807,7.8807,7.8807,7.8807,7.8807,7.8807,7.8807,7.8807,7.8807,7.8807,7.8807,7.8807,7.8807,7.8807,7.8807,7.8807,7.8807,7.8807,7.8807,7.8807,7.9028,7.9417,8.0087,8.0494,8.0973,8.2009,8.2249,8.2069,8.1411,8.1003,8.0494,7.9477,7.8998,7.8807,7.8807,7.8807,7.8807,7.8807,7.8807,7.8807,7.8807,7.8807,7.8807,7.8807,7.8807,7.8807,7.8807,7.8807,7.8807,7.8807,7.8807,7.8807,7.8807,7.8807,7.8807,7.8807,7.9088,7.9267,7.9267,7.9907,8.0266,8.0266,8.1321,8.1979,6.1535,6.37,6.5774,6.53,6.4816,6.441,6.4275,6.3304,6.2424,6.2526,6.3057,6.4164,6.6315,6.8132,7.0229,7.3138,7.6466,8.0073,8.4039,8.6453,8.7922,8.8125,8.8057,8.8091,8.8328,8.7685,8.7516,8.8125,0.0,8.8564,8.9052,8.9086,8.8424,8.6932,8.6887,8.5951,8.4027,8.2275,8.0652,7.9207,7.8933,7.8807,7.8807,7.8807,7.8807,0.0,0.0,0.0,7.8807,7.8807,7.8807,7.8807,7.8807,7.8807,7.8807,7.8807,7.8807,7.8807,7.8807,7.8807,7.8807,7.8807,7.8807,7.8807,7.8807,7.8807,7.8819,7.8908,7.9339,7.9937,8.0644,8.1302,8.1979,8.2627,8.2717,8.2477,8.18,8.1123,8.0494,7.9907,7.9357,7.8938,7.8938,7.8938,7.8908,7.8837,7.8807,7.8807,7.8807,7.8807,7.8807,7.8807,7.8807,7.8807,7.8807,7.8807,7.8807,7.8807,7.8807,7.8807,7.8807,7.8807,7.8867,7.8938,7.9489,7.9848,7.9937,8.0644,8.0943,8.0973,8.165,8.2069,6.2642,6.4874,6.6024,6.3541,6.3294,6.3521,6.2898,6.256,6.2594,6.3183,6.3419,6.5111,7.0398,7.0646,7.2,7.801,8.0547,8.2395,8.4309,8.6014,8.7516,8.8781,8.8375,8.8497,8.9734,8.9207,8.8815,8.8917,0.0,8.9647,8.912,8.9086,8.8988,8.8714,8.8714,8.719,8.4027,8.2275,8.1289,8.098,7.9516,7.8807,7.8807,7.8807,7.8807,0.0,0.0,7.8807,7.8807,7.8807,7.8807,7.8807,7.8807,7.8807,7.8807,7.8807,7.8807,7.8807,7.8807,7.8807,7.8807,7.8807,7.8807,7.8807,7.8807,7.8807,7.8908,7.9489,7.9728,7.9937,8.0644,8.1302,8.1979,8.2627,8.2387,8.177,8.1093,8.0434,7.9907,7.9818,7.9728,7.9638,7.9638,7.9638,7.9429,7.8878,7.8807,7.8807,7.8807,7.8807,7.8807,7.8807,7.8807,7.8807,7.8807,7.8807,7.8807,7.8807,7.8807,7.8807,7.8807,7.8807,7.9058,7.9638,7.9758,8.0087,8.0644,8.1302,8.165,8.165,8.2309,8.3206,6.1255,6.3024,6.4478,6.4715,6.6576,6.8324,6.8379,6.8075,6.7793,6.7715,6.7704,6.8662,7.1819,7.2834,7.5112,8.1021,8.2902,8.412,8.5642,8.7144,8.8328,8.9018,8.914,8.9309,8.9579,8.9647,8.9681,0.0,0.0,0.0,8.9715,8.9323,8.9086,8.9086,8.9086,8.7882,8.5382,8.3673,8.1855,7.9998,7.919,7.8807,7.8807,7.8807,7.8807,7.8807,0.0,7.8807,7.8807,7.8807,7.8807,7.8807,7.8807,7.8807,7.8807,7.8807,7.8807,7.8807,7.8807,7.8807,7.8807,7.8807,7.8807,7.8807,7.8807,7.8807,7.8938,7.9608,8.0057,8.0476,8.1171,8.183,8.2417,8.2717,8.2567,8.2069,8.1003,8.0823,8.0674,7.9937,8.0087,8.0207,7.9848,7.9788,7.9578,7.8878,7.8807,7.8807,7.8807,7.8807,7.8807,7.8807,7.8807,7.8807,7.8807,7.8807,7.8807,7.8807,7.8807,7.8968,7.9327,7.9357,7.9656,8.0345,8.0704,8.1033,8.1351,8.2009,8.2357,8.2357,8.2657,8.3296,6.0544,6.1873,6.3642,6.6599,6.8977,7.1041,7.2845,7.2394,7.1718,7.2011,7.2078,7.245,7.3747,7.5912,7.8788,8.2611,8.4153,8.5337,8.6724,8.8023,8.8917,8.9086,8.9579,8.9782,8.939,9.0019,9.0459,0.0,0.0,0.0,9.0208,8.9492,8.9086,8.9086,8.9086,8.8262,8.6528,8.4852,8.2443,7.9391,7.9023,7.8807,7.8807,7.8807,7.8807,7.8807,7.8807,7.8807,7.8807,7.8807,7.8807,7.8807,7.8807,7.8807,7.8807,7.8807,7.8807,7.8807,7.8807,7.8807,7.8807,7.8807,7.8807,7.8807,7.8807,7.8908,7.9178,7.9866,8.0524,8.1153,8.168,8.2297,8.2806,8.2806,8.2687,8.2279,8.1261,8.1302,8.1242,8.0237,8.0464,8.0584,7.9907,7.9788,7.9578,7.8878,7.8807,7.8807,7.8807,7.8807,7.8807,7.8807,7.8807,7.8807,7.8807,7.8807,7.8867,7.9028,7.9028,7.9267,7.9788,7.9937,8.0345,8.1003,8.153,8.189,8.2039,8.2567,8.2806,8.2806,8.2806,8.3117,6.2463,6.3825,6.5155,6.8199,6.7049,6.644,7.1345,7.0838,7.0297,7.3668,7.4345,7.5224,7.8099,8.0987,8.2847,8.253,8.4302,8.6007,8.6792,8.7583,8.8342,8.9018,8.9154,8.9424,9.0053,9.0797,9.1203,0.0,0.0,0.0,9.0242,8.9492,8.9086,8.9086,8.9086,8.8262,8.6528,8.4852,8.3054,8.1203,7.9569,7.8807,7.8807,7.8807,7.8807,7.8807,7.8807,7.8807,7.8807,7.8807,7.8807,7.8807,7.8807,7.8807,7.8807,7.8807,7.8807,7.8807,7.8807,7.8807,7.8807,7.8807,7.8807,7.8807,7.8807,7.9238,7.9878,8.0554,8.1212,8.174,8.18,8.2297,8.2806,8.2806,8.2309,8.186,8.174,8.1291,8.0823,8.0764,8.0764,8.0584,7.9907,7.9788,7.9578,7.8878,7.8807,7.8807,7.8807,7.8807,7.8807,7.8807,7.8807,7.8807,7.8807,7.8807,7.9058,7.9698,7.9728,7.9758,7.9788,8.0405,8.1033,8.171,8.177,8.2118,8.2717,8.2776,8.2806,8.2806,8.2806,8.3117,6.1559,6.3328,6.5324,6.8335,6.8933,7.0015,7.4796,7.5946,7.6657,7.8978,7.9452,7.9655,8.0344,8.2137,8.3558,8.3748,8.4911,8.621,8.7414,8.782,8.826,8.9018,8.9478,8.9884,9.0174,9.129,0.0,0.0,0.0,0.0,8.9593,8.9255,8.9086,8.9086,8.9086,8.8262,8.6528,8.4852,8.312,8.1377,7.964,7.8807,7.8807,7.8807,7.8807,7.8807,7.8807,7.8807,7.8807,7.8807,7.8807,7.8807,7.8807,7.8807,7.8807,7.8807,7.8807,7.8807,7.8807,7.8807,7.8807,7.8807,7.8807,7.8807,7.8807,7.9267,7.9937,8.0614,8.1272,8.189,8.2309,8.2627,8.2806,8.2806,8.2627,8.2189,8.1381,8.1302,8.1183,8.0345,8.0524,8.0584,7.9907,7.9788,7.9578,7.8878,7.8807,7.8807,7.8807,7.8807,7.8807,7.8807,7.8807,7.8968,7.9387,7.9399,7.9716,8.0375,8.0027,8.0177,8.1003,8.1291,8.174,8.2417,8.2417,8.2567,8.2806,8.2806,8.2806,8.2806,8.2806,8.3117,6.2743,6.4309,6.6406,6.9688,7.0894,7.2552,7.7266,7.8957,8.0175,8.2598,8.2733,8.2272,8.1731,8.2644,8.3727,8.4492,8.5689,8.6853,8.7854,8.8192,8.8598,8.9357,8.9884,9.0377,9.085,9.1798,0.0,0.0,0.0,0.0,0.0,8.9221,8.9086,8.9086,8.9086,8.8262,8.6528,8.4852,8.312,8.1377,7.964,7.8807,7.8807,7.8807,7.8807,7.8807,7.8807,7.8807,7.8807,7.8807,7.8807,7.8807,7.8807,7.8807,7.8807,7.8807,7.8807,7.8807,7.8807,7.8807,7.8807,7.8807,7.8807,7.8807,7.8807,7.9267,7.9937,8.0614,8.1272,8.1949,8.2627,8.2806,8.2806,8.2806,8.2627,8.2219,8.1302,8.1302,8.1153,8.0027,8.0177,8.0285,7.9597,7.9489,7.9327,7.8867,7.8807,7.8807,7.8807,7.8807,7.8807,7.8807,7.8998,7.9297,7.9758,7.9997,8.0405,8.1063,8.0704,8.0823,8.177,8.2009,8.2309,8.2776,8.2806,8.2806,8.2806,8.2806,8.2806,8.2806,8.2806,8.3027,6.6768,6.7343,6.8808,7.2541,7.2428,7.2755,7.793,7.8551,7.9261,8.368,8.3443,8.2395,8.2395,8.3016,8.3761,8.4478,8.6521,8.7989,8.8023,8.8646,8.9357,9.0121,9.0208,9.0783,9.2257,9.2406,0.0,0.0,0.0,0.0,0.0,8.9492,8.9086,8.9086,8.9072,8.8233,8.648,8.482,8.3103,8.1343,7.964,7.8807,7.8807,7.8807,7.8807,7.8807,7.8807,7.8807,7.8807,7.8807,7.8807,7.8807,7.8807,7.8807,7.8807,7.8807,7.8807,7.8807,7.8807,7.8807,7.8807,7.8807,7.8807,7.8807,7.8807,7.9267,7.9937,8.0614,8.1272,8.1949,8.2627,8.2776,8.2776,8.2776,8.2279,8.18,8.177,8.1242,8.0584,7.9907,7.9788,7.9578,7.8908,7.8807,7.8807,7.8807,7.8807,7.8807,7.8807,7.8807,7.8807,7.8807,7.9417,7.9818,7.9818,8.0434,8.1093,8.177,8.18,8.18,8.18,8.2447,8.2806,8.2806,8.2806,8.2806,8.2806,8.2806,8.2806,8.2806,8.2806,8.2806,6.3081,6.6531,7.0421,7.1018,7.4774,7.8733,8.0289,8.0492,8.1135,8.4005,8.3849,8.3186,8.3186,8.4248,8.5195,8.5418,8.6873,8.8158,8.8714,8.8951,8.9357,9.0121,9.0662,9.1338,9.2305,9.2914,0.0,0.0,0.0,0.0,0.0,8.9221,8.9086,8.9086,8.7911,8.6468,8.4773,8.3038,8.1292,7.9569,7.9046,7.8807,7.8807,7.8807,7.8807,7.8807,7.8807,7.8807,7.8807,7.8807,7.8807,7.8807,7.8807,7.8807,7.8807,7.8807,7.8807,7.8807,7.8807,7.8807,7.8807,7.8807,7.8807,7.8807,7.8807,7.9267,7.9937,8.0614,8.1272,8.186,8.2039,8.2099,8.2099,8.2099,8.1949,8.153,8.0614,8.0237,7.9896,7.9238,7.9088,7.9028,7.8819,7.8807,7.8807,7.8807,7.8807,7.8807,7.8807,7.8807,7.8968,7.9429,7.9668,8.0177,8.1123,8.1411,8.18,8.2477,8.2507,8.2507,8.2507,8.2687,8.2806,8.2806,8.2806,8.2806,8.2806,8.2806,8.2806,8.2806,8.2806,8.2806,6.8019,7.1537,7.51,7.6127,7.8665,8.1169,8.234,8.2611,8.2915,8.395,8.3828,8.3592,8.3896,8.4945,8.5973,8.6582,8.7665,8.8578,8.9052,8.9357,8.9816,9.056,9.1305,9.2049,9.2778,9.3315,0.0,0.0,0.0,0.0,0.0,8.9424,8.9221,8.9526,8.7559,8.5706,8.4027,8.2275,8.0544,7.8807,7.8807,7.8807,7.8807,7.8807,7.8807,7.8807,7.8807,7.8807,7.8807,7.8807,7.8807,7.8807,7.8807,7.8807,7.8807,7.8807,7.8807,7.8807,7.8807,7.8807,7.8807,7.8807,7.8807,7.8807,7.8807,7.9088,7.9537,8.0225,8.0704,8.1063,8.1332,8.159,8.174,8.1471,8.1183,8.0794,7.9967,7.9578,7.9339,7.9238,7.8968,7.8986,7.9507,7.9357,7.9208,7.9208,7.9208,7.9208,7.9208,7.9417,7.9746,8.0147,8.0434,8.0913,8.174,8.2039,8.2368,8.2776,8.2806,8.2806,8.2806,8.2806,8.2806,8.2806,8.2806,8.2806,8.2806,8.2806,8.2806,8.2806,8.2806,8.2806,7.6881,7.9012,8.0919,8.4349,8.2827,8.1224,8.3971,8.4546,8.4323,8.3727,8.3592,8.3828,8.4559,8.5418,8.6447,8.7786,8.8612,8.9086,8.9086,8.9715,9.0478,9.1203,9.1933,9.2711,9.3518,9.3586,0.0,0.0,0.0,0.0,0.0,8.9966,8.9526,9.0174,8.7777,8.5706,8.4027,8.2275,8.0544,7.8807,7.8807,7.8807,7.8807,7.8807,7.8807,7.8807,7.8807,7.8807,7.8807,7.8807,7.8807,7.8807,7.8807,7.8807,7.8807,7.8807,7.8807,7.8807,7.8807,7.8807,7.8807,7.8807,7.8807,7.8807,7.8878,7.8867,7.8938,7.9668,7.9848,7.9937,8.0644,8.1242,8.156,8.0943,8.0375,7.9937,7.9818,7.9387,7.9148,7.9758,7.9417,7.9375,8.0584,8.0296,7.9878,7.9878,7.9878,7.9878,7.9878,8.0416,8.0823,8.0883,8.1441,8.183,8.189,8.2447,8.2806,8.2806,8.2806,8.2806,8.2806,8.2806,8.2806,8.2806,8.2806,8.2806,8.2806,8.2806,8.2806,8.2806,8.2806,8.2806,6.9169,7.4277,7.952,8.0331,8.1663,8.3118,8.4309,8.4153,8.3862,8.4289,8.4356,8.4593,8.5398,8.665,8.7617,8.7955,8.8612,8.9086,8.9086,8.9715,9.0478,9.1203,9.1933,9.2711,9.3518,9.3586,0.0,0.0,0.0,0.0,9.1338,9.0459,9.0053,9.0174,8.7777,8.5706,8.4027,8.2275,8.0544,0.0,7.8807,7.8807,7.8807,7.8807,7.8807,7.8807,7.8807,7.8807,7.8807,7.8807,7.8807,7.8807,7.8807,7.8807,7.8807,7.8807,7.8807,7.8807,7.8807,7.8807,7.8807,7.8807,7.8807,7.8878,7.9447,7.9238,7.9046,8.0255,8.0225,7.9937,8.0644,8.0913,8.0973,8.0823,8.1093,8.1063,8.0027,8.0105,8.0405,8.0554,8.0464,8.0464,8.0764,8.0674,8.0584,8.0584,8.0584,8.0584,8.0584,8.0704,8.1003,8.153,8.171,8.2009,8.2537,8.2717,8.2806,8.2806,8.2806,8.2806,8.2806,8.2806,8.2806,8.2806,8.2806,8.2806,8.2806,8.2806,8.2806,8.2806,8.2806,8.2806,7.1537,7.607,7.9959,8.138,8.2631,8.3693,8.4424,8.4018,8.3828,8.4945,8.5168,8.5418,8.6196,8.7245,8.8139,8.8477,8.8849,8.9221,8.9593,9.0256,9.1,9.1744,9.2522,9.3131,9.3552,9.3586,0.0,0.0,0.0,9.1865,9.1831,9.0459,8.985,9.0174,8.7014,8.4867,8.4011,8.1446,7.9711,7.8807,7.8807,7.8807,7.8807,7.8807,7.8807,7.8807,7.8807,7.8807,7.8807,7.8807,7.8807,7.8807,7.8807,7.8807,7.8807,7.8807,7.8807,7.8807,7.8807,7.8807,7.8807,7.8807,7.8807,7.8867,7.9208,7.9088,7.8998,8.0045,8.0057,7.9937,8.0644,8.1033,8.1183,8.0883,8.1063,8.1123,8.0434,8.0554,8.0883,8.1231,8.1003,8.1003,8.165,8.15,8.1291,8.1291,8.1291,8.1291,8.1291,8.156,8.189,8.2238,8.2297,8.2417,8.2776,8.2806,8.2806,8.2806,8.2806,8.2806,8.2806,8.2806,8.2806,8.2806,8.2806,8.2806,8.2806,8.2806,8.2806,8.2806,8.2806,8.2806,7.51,7.8653,8.0919,8.3849,8.4052,8.3693,8.4424,8.4018,8.393,8.5466,8.5905,8.621,8.6961,8.7685,8.8409,8.8984,8.9221,8.9478,9.0106,9.0932,9.1711,9.2339,9.3098,9.3586,9.3586,9.3586,0.0,0.0,0.0,9.1711,9.217,9.0357,8.9579,9.0174,8.6435,8.4299,8.4011,8.086,7.91,7.8807,7.8807,7.8807,7.8807,7.8807,7.8807,7.8807,7.8807,7.8807,7.8807,7.8807,7.8807,7.8807,7.8807,7.8807,7.8807,7.8807,7.8807,7.8807,7.8807,7.8807,7.8807,7.8807,7.8807,7.8819,7.8956,7.8968,7.9118,7.9788,7.9967,8.0117,8.0794,8.1362,8.168,8.1242,8.1153,8.1093,8.1003,8.1063,8.1302,8.186,8.153,8.15,8.2627,8.2357,8.1979,8.1979,8.1979,8.1979,8.1979,8.2477,8.2806,8.2806,8.2806,8.2806,8.2806,8.2806,8.2806,8.2806,8.2806,8.2806,8.2806,8.2806,8.2806,8.2806,8.2806,8.2806,8.2806,8.2806,8.2806,8.2806,8.2806,8.2587,6.8707,7.4695,8.0919,8.3849,8.4052,8.3693,8.4424,8.4018,8.393,8.5466,8.6298,8.6974,8.7719,8.8477,8.8984,8.9086,8.9647,9.0073,9.0174,9.1392,9.2305,9.2406,9.3098,9.3586,9.3586,9.3586,0.0,0.0,9.2373,9.2034,9.1474,9.056,9.0106,9.0208,8.7585,8.5475,8.4011,8.204,8.0283,7.8807,7.8807,7.8807,7.8807,7.8807,7.8807,7.8807,7.8807,7.8807,7.8807,7.8807,7.8807,7.8807,7.8807,7.8807,7.8807,7.8807,7.8807,7.8807,7.8807,7.8807,7.8807,7.8807,7.8807,7.8908,7.9489,7.9668,7.9788,8.0494,8.0674,8.0823,8.15,8.174,8.1919,8.2417,8.2537,8.2368,8.18,8.2129,8.2567,8.2657,8.2597,8.2597,8.2776,8.2717,8.2657,8.2657,8.2657,8.2657,8.2657,8.2747,8.2806,8.2806,8.2806,8.2806,8.2806,8.2806,8.2806,8.2806,8.2806,8.2806,8.2806,8.2806,8.2806,8.2806,8.2806,8.2806,8.2806,8.2806,8.2806,8.2806,8.2806,8.1744,7.0117,7.5845,8.0818,8.3342,8.3727,8.3592,8.393,8.3727,8.4031,8.6027,8.6656,8.7144,8.7854,8.8612,8.9086,8.9086,8.9715,9.0343,9.0763,9.173,9.2575,9.303,9.3383,9.3586,9.3586,9.3586,0.0,0.0,9.2286,9.1643,9.1305,9.0188,8.9579,8.9579,8.6663,8.4758,8.4011,8.1309,7.9569,7.8807,7.8807,7.8807,7.8807,7.8807,7.8807,7.8807,7.8807,7.8807,7.8807,7.8807,7.8807,7.8807,7.8807,7.8807,7.8807,7.8807,7.8807,7.8807,7.8807,7.8807,7.8807,7.8807,7.8807,7.8926,7.9608,7.9788,8.0027,8.1063,8.1381,8.153,8.2189,8.2357,8.2428,8.2717,8.2806,8.2717,8.2417,8.2597,8.2806,8.2806,8.2806,8.2806,8.2806,8.2806,8.2806,8.2806,8.2806,8.2806,8.2806,8.2806,8.2806,8.2806,8.2806,8.2806,8.2806,8.2806,8.2806,8.2806,8.2806,8.2806,8.2806,8.2806,8.2806,8.2806,8.2806,8.2806,8.2806,8.2806,8.2806,8.2787,8.1484,8.0346,7.1097,7.5676,7.8923,8.19,8.2949,8.3321,8.3693,8.3795,8.437,8.6453,8.6893,8.7164,8.8091,8.8748,8.9154,8.9357,8.9985,9.0729,9.1474,9.2237,9.2928,9.3518,9.3586,9.3586,9.3586,9.3417,9.3214,0.0,9.1793,9.0932,9.0729,8.9695,8.9086,8.9086,8.5767,8.4011,8.4011,8.0548,7.8807,7.8807,7.8807,7.8807,7.8807,7.8807,7.8807,7.8807,7.8807,7.8807,7.8807,7.8807,7.8807,7.8807,7.8807,7.8807,7.8807,7.8807,7.8807,7.8807,7.8807,7.8807,7.8819,7.8998,7.9058,7.9178,7.9848,8.0177,8.0524,8.153,8.1919,8.2159,8.2687,8.2806,8.2806,8.2806,8.2806,8.2806,8.2806,8.2806,8.2806,8.2806,8.2806,8.2806,8.2806,8.2806,8.2806,8.2806,8.2806,8.2806,8.2806,8.2806,8.2806,8.2806,8.2806,8.2806,8.2806,8.2806,8.2806,8.2806,8.2806,8.2806,8.2806,8.2806,8.2806,8.2806,8.2806,8.2806,8.2806,8.2806,8.2806,8.2769,8.0473,7.9083,6.8098,7.1075,7.4018,7.9092,8.1426,8.2834,8.4208,8.4546,8.4986,8.6589,8.6893,8.7347,8.8781,8.9052,8.9323,9.0019,9.0763,9.1508,9.2237,9.303,9.3552,9.3586,9.3586,9.3586,9.3586,9.2914,9.217,0.0,9.0696,8.9951,8.9255,8.912,8.9086,8.9086,8.5767,8.4011,8.4011,8.0548,7.8807,7.8807,7.8807,7.8807,7.8807,7.8807,7.8807,7.8807,7.8807,7.8807,7.8807,7.8807,7.8807,7.8807,7.8807,7.8807,7.8807,7.8807,7.8807,7.8807,7.8807,7.8807,7.8878,7.9548,7.9758,7.9878,8.0554,8.1183,8.171,8.177,8.2249,8.2747,8.2776,8.2806,8.2806,8.2806,8.2806,8.2806,8.2806,8.2806,8.2806,8.2806,8.2806,8.2806,8.2806,8.2806,8.2806,8.2806,8.2806,8.2806,8.2806,8.2806,8.2806,8.2806,8.2806,8.2806,8.2806,8.2806,8.2806,8.2806,8.2806,8.2806,8.2806,8.2806,8.2806,8.2806,8.2806,8.2806,8.2806,8.2806,8.2806,8.2769,8.0473,7.8273,6.7996,7.0364,7.2586,7.6352,7.916,8.1122,8.1663,8.3659,8.5655,8.669,8.7265,8.7922,8.8917,8.9086,8.9357,9.0087,9.0831,9.1575,9.2305,9.3098,9.3586,9.3586,9.3586,9.3586,9.3586,9.3349,9.2861,0.0,0.0,9.0594,8.985,8.9357,8.9086,8.9086,8.5767,8.2923,8.0687,7.9427,7.8807,7.8807,7.8807,7.8807,7.8807,7.8807,7.9028,7.9429,7.9429,7.9208,7.8807,7.8807,7.8807,7.8807,7.8807,7.8807,7.8807,7.8807,7.8807,7.8849,7.9297,7.9148,7.8968,8.0075,8.0147,7.9997,8.1093,8.162,8.189,8.2309,8.2627,8.2806,8.2806,8.2806,8.2806,8.2806,8.2806,8.2806,8.2806,8.2806,8.2806,8.2806,8.2806,8.2806,8.2806,8.2806,8.2806,8.2806,8.2806,8.2806,8.2806,8.2806,8.2806,8.2806,8.2806,8.2806,8.2806,8.2806,8.2806,8.2806,8.2806,8.2806,8.2806,8.2806,8.2806,8.2806,8.2806,8.2806,8.2806,8.2806,8.2806,8.2701,7.9003,7.6861,6.6779,6.8842,7.0996,7.4458,7.6826,7.8855,8.0851,8.305,8.508,8.6589,8.7482,8.824,8.8951,8.9086,8.9424,9.0425,9.1203,9.1947,9.2677,9.3267,9.3586,9.3586,9.3586,9.3586,9.3586,9.3146,9.2605,0.0,0.0,0.0,8.985,8.9357,8.8552,8.7411,8.518,8.231,7.8843,7.8807,7.8807,7.8807,7.8807,7.8807,7.8807,7.8807,7.9028,7.9477,7.9698,7.9548,7.9148,7.9387,7.9208,7.8819,7.9058,7.8998,7.8807,7.8807,7.9058,7.9507,7.9728,7.9956,8.0273,8.1171,8.1153,8.1003,8.211,8.2309,8.2238,8.2687,8.2806,8.2806,8.2806,8.2806,8.2806,8.2806,8.2937,8.3057,8.2836,8.2806,8.2806,8.2806,8.2806,8.2806,8.2806,8.2806,8.2806,8.2806,8.2806,8.2806,8.2806,8.2806,8.2806,8.2806,8.2806,8.2806,8.2806,8.2806,8.2806,8.2806,8.2806,8.2806,8.2806,8.2806,8.2806,8.2806,8.2806,8.2806,8.2806,8.2806,8.2416,8.1561,7.7848,7.5283,0.0,0.0,0.0,7.3296,7.4446,7.6036,8.19,8.2746,8.3139,8.6217,8.7414,8.8158,8.8951,8.912,8.9593,9.1068,9.1899,9.2643,9.3484,9.3586,9.3586,9.3586,9.3586,9.3586,9.3586,9.2266,9.1353,0.0,8.9999,8.9154,8.9154,8.9154,8.7547,8.4107,8.4011,8.231,7.8843,7.8807,7.8807,7.8807,7.8807,7.8807,7.8807,7.8807,7.8807,7.8867,7.9519,7.9788,7.9848,8.0494,7.9986,7.8878,7.9548,7.9417,7.8819,7.8867,7.9686,8.0704,8.0087,8.1123,8.2747,8.2806,8.2806,8.2877,8.3497,8.3247,8.2806,8.2806,8.2806,8.2806,8.2806,8.2806,8.2806,8.2806,8.3247,8.3527,8.2937,8.2806,8.2806,8.2806,8.2806,8.2806,8.2806,8.2806,8.2806,8.2806,8.2806,8.2806,8.2806,8.2806,8.2806,8.2806,8.2806,8.2806,8.2806,8.2806,8.2806,8.2806,8.2806,8.2806,8.2836,8.2806,8.2806,8.2836,8.2836,8.2836,8.2836,8.2806,8.1619,7.937,7.7045,7.3641,6.4478,0.0,0.0,0.0,0.0,0.0,7.6306,7.8179,8.0344,8.439,8.5405,8.625,8.8646,8.9545,9.0188,9.1135,9.1474,9.2083,9.3417,9.3586,9.3586,9.3586,9.3586,9.3586,9.3586,9.3214,0.0,0.0,9.1237,9.071,9.071,9.0188,8.808,8.4107,8.4011,8.231,7.8843,7.8807,7.8807,7.8807,7.8807,7.8807,7.8807,7.8807,7.9058,7.9519,7.9728,7.9788,7.9818,7.9997,7.9848,7.9548,7.9728,7.9698,7.9578,8.0075,8.0494,8.0913,8.171,8.171,8.159,8.2989,8.2828,8.2189,8.2847,8.2907,8.2806,8.2806,8.2806,8.2806,8.2806,8.2806,8.2806,8.2806,8.2907,8.3117,8.3397,8.3117,8.2806,8.2806,8.2806,8.2806,8.2806,8.2806,8.2806,8.2806,8.2806,8.2967,8.3397,8.3087,8.2967,8.3397,8.3057,8.2806,8.2806,8.2806,8.2806,8.2806,8.2806,8.2997,8.3408,8.3027,8.2997,8.3438,8.3438,8.3438,8.3438,8.2997,8.1619,7.9331,7.5492,7.2158,0.0,0.0,6.714,6.8504,0.0,0.0,7.5879,7.7739,7.9904,8.4965,8.625,8.7008,8.8781,8.9458,8.9985,9.0729,9.0831,9.1474,9.3349,9.3586,9.3586,9.3586,9.3586,9.3586,9.3586,9.33,9.2895,9.244,9.1711,9.1305,9.1305,9.0594,8.8446,8.4588,8.4171,8.231,7.8843,7.8807,7.8807,7.8807,7.8807,7.8807,7.8807,7.8807,7.8998,7.9417,7.9668,7.9788,7.9788,7.9788,7.9788,7.9848,8.0434,8.0644,8.0674,8.1063,8.1721,8.2469,8.2698,8.2817,8.2948,8.3527,8.3198,8.2679,8.3038,8.2997,8.2806,8.2806,8.2806,8.2806,8.2806,8.2806,8.2806,8.2806,8.3226,8.3517,8.3367,8.3476,8.3506,8.3217,8.2967,8.2806,8.2806,8.2806,8.2896,8.3147,8.2967,8.3117,8.4006,8.3576,8.3427,8.4066,8.3816,8.3476,8.3206,8.3158,8.3087,8.2806,8.3027,8.3337,8.3688,8.3636,8.3756,8.4126,8.4126,8.4126,8.4126,8.3487,8.139,7.7949,7.4446,7.1571,0.0,0.0,0.0,0.0,6.9157,0.0,7.7367,7.8653,7.9925,8.5486,8.7157,8.7732,8.8172,8.8308,8.8612,8.9342,8.9734,9.0797,9.3146,9.3484,9.3484,9.3586,9.3586,9.3586,9.3586,9.2962,9.2542,9.2542,9.1846,9.1372,9.1305,9.0696,8.8787,8.5487,8.4556,8.2504,7.9118,7.8897,7.8807,7.8807,7.8807,7.8807,7.8807,7.8807,7.8807,7.8819,7.9429,7.9698,7.9698,7.9758,7.9788,7.9937,8.1291,8.18,8.183,8.2039,8.3217,8.4564,8.3476,8.4194,8.5402,8.4215,8.3748,8.3688,8.3617,8.3217,8.2806,8.2806,8.2806,8.2806,8.2806,8.2806,8.2806,8.2806,8.3655,8.4205,8.3117,8.3745,8.4335,8.3807,8.3217,8.2806,8.2806,8.2866,8.3087,8.3617,8.3307,8.3446,8.4654,8.4245,8.4066,8.4724,8.4724,8.4425,8.3748,8.3688,8.3468,8.2907,8.3397,8.3748,8.3916,8.4425,8.4724,8.4814,8.4814,8.4754,8.4694,8.3602,8.0727,7.6228,7.3683,7.1432,0.0,0.0,0.0,0.0,0.0,0.0,7.1312,7.2529,7.4525,7.7502,7.8213,7.924,8.2251,8.3321,8.3964,8.4674,8.6839,8.941,9.2237,9.2643,9.288,9.3518,9.3586,9.3586,9.3586,9.3451,9.3383,9.3383,9.2609,9.1933,9.1338,9.1169,8.9856,8.7203,8.5662,8.3592,8.0911,7.9498,7.8807,7.8807,7.8807,7.8807,7.8807,7.8807,7.8807,7.8807,7.8956,7.8998,7.9028,7.9578,7.9788,7.9937,8.1291,8.18,8.1979,8.3547,8.4365,8.4724,8.5013,8.5013,8.4844,8.4574,8.4156,8.3617,8.3117,8.2896,8.2806,8.2806,8.2806,8.2806,8.2806,8.2806,8.2806,8.2806,8.2986,8.3236,8.3468,8.3337,8.3266,8.3647,8.3217,8.2806,8.2806,8.3187,8.3557,8.3688,8.4066,8.4624,8.5402,8.4904,8.4754,8.5432,8.5043,8.4425,8.3748,8.3688,8.3628,8.3527,8.3647,8.4186,8.5282,8.4923,8.4953,8.5492,8.5492,8.5252,8.4694,8.0873,7.8514,7.7448,7.2919,7.0556,0.0,0.0,0.0,6.9056,0.0,0.0,0.0,7.2124,7.3443,7.7164,7.7367,7.7751,8.0729,8.0987,8.1245,8.2712,8.483,8.6961,8.8835,9.0681,9.2015,9.2402,9.2793,9.2996,9.2996,9.3349,9.3586,9.3586,9.3233,9.2827,9.2469,9.2083,9.0909,8.8795,8.6386,8.409,8.1959,7.9862,7.8807,7.8807,7.8807,7.8807,7.8807,7.8807,7.8807,7.8807,7.8807,7.8998,7.9297,7.9297,7.9896,8.0883,8.189,8.2488,8.2948,8.4594,8.5402,8.5701,8.5701,8.5252,8.4634,8.4305,8.3767,8.3187,8.2896,8.2806,8.2806,8.2806,8.2806,8.2806,8.2806,8.2806,8.2806,8.2806,8.3027,8.3247,8.3247,8.3247,8.3337,8.3647,8.3468,8.3147,8.2866,8.3307,8.3807,8.4156,8.4485,8.5073,8.608,8.5611,8.5462,8.614,8.5881,8.5432,8.4754,8.4694,8.4545,8.4215,8.4515,8.5013,8.5671,8.5701,8.587,8.62,8.62,8.603,8.5701,8.1056,7.8168,7.6924,7.3545,7.1182,0.0,0.0,0.0,0.0,0.0,7.006,0.0,0.0,0.0,7.7266,7.7333,7.7312,7.924,7.872,7.8606,8.0412,8.2293,8.3714,8.4214,8.736,0.0,9.056,9.1696,9.2339,9.2203,9.2658,9.3146,9.3552,9.3045,9.2977,9.3552,9.2846,9.1714,9.0228,8.7014,8.4557,8.2972,8.0178,7.8849,7.8998,7.8849,7.8807,7.8807,7.8807,7.8807,7.8807,7.8807,7.9118,7.9578,7.9178,8.0034,8.168,8.2507,8.3266,8.4066,8.5402,8.6229,8.6619,8.608,8.5462,8.4784,8.4126,8.3397,8.2806,8.2806,8.2806,8.2806,8.2806,8.2806,8.2806,8.2806,8.2806,8.2806,8.2806,8.3158,8.3397,8.2926,8.3158,8.3557,8.3688,8.3688,8.3587,8.3236,8.3696,8.4275,8.4814,8.5013,8.5492,8.6559,8.6229,8.611,8.6648,8.6708,8.6439,8.5761,8.5701,8.5462,8.4923,8.5402,8.5761,8.59,8.6409,8.6708,8.6708,8.6708,8.642,8.5823,8.1697,7.8693,7.6752,7.4378,7.2009,0.0,0.0,0.0,0.0,7.3003,0.0,0.0,0.0,7.2022,7.0635,0.0,7.2349,7.324,0.0,0.0,0.0,7.7435,7.9532,7.8969,8.1494,8.464,8.7989,9.0749,9.2136,9.1474,9.0932,9.1406,9.3451,9.1116,9.0778,9.3451,9.2846,9.2029,9.116,8.7859,8.5594,8.4645,8.0763,7.9088,7.9668,7.9088,7.8807,7.8807,7.8807,7.8807,7.8807,7.8807,7.8819,7.8938,7.9459,8.0147,8.1033,8.2327,8.3536,8.4754,8.611,8.6619,8.6678,8.6619,8.617,8.5492,8.4784,8.3775,8.2806,8.2806,8.2806,8.2806,8.2806,8.2806,8.2806,8.2806,8.2806,8.2806,8.2806,8.2866,8.2896,8.2806,8.2866,8.3057,8.3617,8.3688,8.3886,8.4395,8.5043,8.5492,8.5581,8.611,8.6529,8.6678,8.6619,8.6619,8.6678,8.6708,8.6439,8.5761,8.5701,8.5671,8.5581,8.5671,8.599,8.6559,8.6648,8.6708,8.6708,8.6708,8.5384,8.2717,8.0664,7.9549,7.9165,7.4339,7.1664,0.0,0.0,0.0,0.0,0.0,0.0,6.9113,0.0,6.9271,0.0,0.0,0.0,0.0,0.0,0.0,0.0,7.554,7.7029,7.6702,7.8877,8.1549,8.439,0.0,0.0,8.983,0.0,0.0,0.0,9.1203,9.0865,9.3451,9.3267,9.2962,9.2638,8.9856,8.7501,8.5676,8.2534,8.0355,7.9208,7.8938,7.8807,7.8807,7.8807,7.8807,7.8819,7.9208,7.9597,8.0016,8.0674,8.1781,8.3128,8.3666,8.4235,8.4844,8.62,8.6708,8.6708,8.6708,8.602,8.4953,8.3925,8.3236,8.2806,8.2806,8.2806,8.2806,8.2806,8.2806,8.2806,8.2806,8.2806,8.2806,8.2806,8.2806,8.2896,8.3247,8.3337,8.3636,8.4664,8.4844,8.5073,8.5731,8.5761,8.5701,8.5701,8.6289,8.6708,8.6708,8.6708,8.6708,8.6708,8.6708,8.6589,8.6289,8.6289,8.6289,8.6289,8.6289,8.6409,8.6678,8.6708,8.6708,8.6708,8.6708,8.5412,8.28,8.0697,7.9016,7.7579,7.3712,7.161,7.6263,0.0,0.0,0.0,0.0,0.0,0.0,0.0,0.0,0.0,0.0,0.0,0.0,0.0,0.0,0.0,0.0,7.527,7.4864,7.6386,7.8539,8.1177,8.2868,0.0,0.0,0.0,0.0,0.0,0.0,9.056,9.3451,9.3586,9.3484,9.3267,9.088,8.8576,8.6445,8.3612,8.124,7.9327,7.8986,7.8807,7.8807,7.8807,7.8807,7.8837,7.9489,7.9967,8.0315,8.1381,8.2758,8.4205,8.4545,8.4904,8.5372,8.6349,8.6708,8.6678,8.6499,8.5551,8.4245,8.3147,8.2806,8.2806,8.2806,8.2806,8.2806,8.2806,8.2926,8.3057,8.3057,8.3057,8.3057,8.3057,8.2926,8.2926,8.3367,8.3587,8.4036,8.5192,8.5581,8.591,8.6589,8.6289,8.597,8.597,8.6379,8.6708,8.6708,8.6708,8.6708,8.6708,8.6708,8.6708,8.6708,8.6708,8.6708,8.6708,8.6708,8.6708,8.6708,8.6708,8.6708,8.6708,8.6708,8.5218,8.2246,8.0537,7.8157,7.5195,7.3105,7.1836,0.0,0.0,0.0,7.4774,0.0,0.0,0.0,0.0,7.1853,0.0,0.0,0.0,0.0,0.0,0.0,0.0,0.0,0.0,0.0,7.3184,7.5033,7.8775,8.2382,8.4931,0.0,8.4586,0.0,0.0,8.8246,0.0,9.3349,9.3586,9.3233,9.2474,9.0084,8.8236,8.6968,8.3308,8.1201,8.0734,7.9417,7.8807,7.8807,7.8807,7.8807,7.8837,7.9489,7.9429,7.9016,8.0992,8.2219,8.2986,8.4235,8.5492,8.6648,8.6678,8.6708,8.6619,8.594,8.4844,8.3647,8.2997,8.2806,8.2806,8.2806,8.2806,8.2806,8.2806,8.3217,8.3658,8.3658,8.3658,8.3658,8.3658,8.3217,8.2806,8.2806,8.3277,8.3897,8.4604,8.5252,8.591,8.6589,8.6678,8.6648,8.6648,8.6678,8.6708,8.6708,8.6708,8.6708,8.6708,8.6708,8.6708,8.6708,8.6708,8.6708,8.6708,8.6708,8.6708,8.6708,8.6708,8.6708,8.6708,8.6708,8.4436,7.9796,7.9731,7.7337,7.281,7.2739,7.239,0.0,0.0,8.437,7.8619,0.0,0.0,0.0,0.0,0.0,0.0,0.0,0.0,0.0,0.0,0.0,0.0,0.0,0.0,0.0,7.3048,7.3793,7.4559,7.8822,8.1583,8.1393,8.4031,0.0,0.0,8.897,0.0,9.3451,9.3586,9.3484,9.3199,9.2408,9.1001,8.8937,8.6461,8.4112,8.1897,8.0261,7.9238,7.8807,7.8807,7.8807,7.8837,7.9489,7.9668,7.9627,8.162,8.2847,8.3547,8.4863,8.591,8.6708,8.6708,8.6708,8.6589,8.591,8.5103,8.4245,8.3587,8.3147,8.2806,8.2806,8.2806,8.2806,8.2806,8.2937,8.3187,8.3617,8.3688,8.3807,8.4275,8.4205,8.4175,8.4613,8.4863,8.5222,8.59,8.6229,8.6439,8.6648,8.6708,8.6708,8.6708,8.6708,8.6708,8.6708,8.6708,8.6708,8.6708,8.6708,8.6708,8.6708,8.6708,8.6708,8.6708,8.6708,8.6708,8.6708,8.6708,8.6708,8.6708,8.6708,8.4386,7.9687,7.9687,7.7293,7.2717,7.2717,7.2616,8.5567,8.692,0.0,8.1968,8.067,0.0,7.3781,0.0,0.0,0.0,0.0,0.0,0.0,0.0,0.0,0.0,0.0,0.0,0.0,7.2473,7.2947,7.2462,7.6318,7.9261,7.9837,8.1989,8.4864,8.8497,8.8415,8.9782,0.0,0.0,9.3586,9.3586,9.3315,9.2237,9.0264,8.86,8.6245,8.3199,8.1553,8.0194,7.9148,7.8908,7.8807,7.8837,7.9489,7.9668,7.9597,8.162,8.2668,8.3138,8.4455,8.5551,8.6379,8.6619,8.6409,8.593,8.5492,8.4773,8.3936,8.3517,8.3117,8.2806,8.2806,8.2806,8.2806,8.2806,8.2937,8.3217,8.3617,8.3688,8.3807,8.4245,8.4335,8.4455,8.4904,8.5372,8.5821,8.6259,8.6529,8.6708,8.6708,8.6708,8.6708,8.6708,8.6708,8.6708,8.6708,8.6708,8.6708,8.6708,8.6708,8.6708,8.6708,8.6708,8.6708,8.6708,8.6708,8.6708,8.6708,8.6708,8.6708,8.6708,8.5881,8.3555,7.9687,7.8863,7.6464,7.2717,7.2717,7.2717]},{"header":{"parameterUnit":"m.s-1","parameterCategory":1,"la1":30.6,"la2":29.2853,"lo1":-89.7004,"lo2":-87.6739,"dx":0.0162,"dy":0.0183,"nx":112,"ny":82,"refTime":"2022-12-20T00:00:00:Z","depth":0,"parameterNumber":3,"parameterNumberName":"V-component_of_WINDS"},"data":[0.0,0.0,0.0,0.0,0.0,0.0,0.0,0.0,0.0,0.0,0.0,0.0,0.0,0.0,0.0,0.0,0.0,0.0,0.0,0.0,0.0,0.0,0.0,0.0,0.0,0.0,0.0,0.0,0.0,0.0,0.0,0.0,0.0,0.0,0.0,0.0,0.0,0.0,0.0,0.0,0.0,0.0,0.0,0.0,0.0,0.0,0.0,0.0,0.0,0.0,0.0,0.0,0.0,0.0,0.0,0.0,0.0,0.0,0.0,0.0,0.0,0.0,0.0,0.0,0.0,0.0,0.0,0.0,0.0,0.0,0.0,0.0,0.0,0.0,0.0,0.0,0.0,0.0,0.0,0.0,0.0,0.0,0.0,0.0,0.0,0.0,0.0,0.0,0.0,0.0,0.0,3.4941,3.6582,3.7322,3.6834,3.57,3.3551,3.0106,0.0,0.0,0.0,0.0,0.0,0.0,0.0,0.0,0.0,0.0,0.0,0.0,0.0,0.0,0.0,0.0,0.0,0.0,0.0,0.0,0.0,0.0,0.0,0.0,0.0,0.0,0.0,0.0,0.0,0.0,0.0,0.0,0.0,0.0,0.0,0.0,0.0,0.0,0.0,0.0,0.0,0.0,0.0,0.0,0.0,0.0,0.0,0.0,0.0,0.0,0.0,0.0,0.0,0.0,0.0,0.0,0.0,0.0,0.0,0.0,0.0,0.0,0.0,0.0,0.0,0.0,0.0,0.0,0.0,0.0,0.0,0.0,0.0,0.0,0.0,0.0,0.0,0.0,0.0,0.0,0.0,0.0,0.0,0.0,0.0,0.0,0.0,0.0,0.0,0.0,0.0,0.0,0.0,0.0,0.0,0.0,0.0,0.0,0.0,0.0,0.0,0.0,0.0,0.0,3.3012,3.6994,3.8008,3.8084,3.7283,3.6716,3.4919,3.143,0.0,0.0,0.0,0.0,0.0,0.0,0.0,0.0,0.0,0.0,0.0,0.0,0.0,0.0,0.0,0.0,0.0,0.0,0.0,0.0,0.0,0.0,0.0,0.0,0.0,0.0,0.0,0.0,0.0,0.0,0.0,0.0,0.0,0.0,0.0,0.0,0.0,0.0,0.0,0.0,0.0,0.0,0.0,0.0,0.0,0.0,0.0,0.0,0.0,0.0,0.0,0.0,0.0,0.0,0.0,0.0,0.0,0.0,0.0,0.0,0.0,0.0,0.0,0.0,0.0,0.0,0.0,0.0,0.0,0.0,0.0,0.0,0.0,0.0,0.0,0.0,0.0,0.0,0.0,0.0,0.0,0.0,0.0,0.0,0.0,0.0,0.0,0.0,0.0,0.0,0.0,0.0,0.0,0.0,0.0,0.0,0.0,0.0,0.0,0.0,0.0,0.0,0.0,3.2797,3.5042,3.7969,3.8652,3.8574,3.7697,3.7068,3.531,3.207,2.9648,0.0,0.0,0.0,0.0,0.0,0.0,0.0,0.0,0.0,0.0,0.0,0.0,0.0,0.0,0.0,0.0,0.0,0.0,0.0,0.0,0.0,0.0,0.0,0.0,0.0,0.0,0.0,0.0,0.0,0.0,0.0,0.0,0.0,0.0,0.0,0.0,0.0,0.0,0.0,0.0,0.0,0.0,0.0,0.0,0.0,0.0,0.0,0.0,0.0,0.0,0.0,0.0,0.0,0.0,0.0,0.0,0.0,0.0,0.0,0.0,0.0,0.0,0.0,0.0,0.0,0.0,0.0,0.0,0.0,0.0,0.0,0.0,0.0,0.0,0.0,0.0,0.0,0.0,0.0,0.0,0.0,0.0,0.0,0.0,0.0,0.0,0.0,0.0,0.0,0.0,0.0,0.0,0.0,0.0,0.0,0.0,0.0,0.0,0.0,0.0,0.0,0.0,3.5842,3.7305,3.8749,3.9082,3.8926,3.8263,3.7461,3.57,3.2672,3.0527,0.0,0.0,0.0,0.0,0.0,0.0,0.0,0.0,0.0,0.0,0.0,0.0,0.0,0.0,0.0,0.0,0.0,0.0,0.0,0.0,0.0,0.0,0.0,0.0,0.0,0.0,0.0,0.0,0.0,0.0,0.0,0.0,0.0,0.0,0.0,0.0,0.0,0.0,0.0,0.0,0.0,0.0,0.0,0.0,0.0,0.0,0.0,0.0,0.0,0.0,0.0,0.0,0.0,0.0,0.0,0.0,0.0,0.0,0.0,0.0,0.0,0.0,0.0,0.0,0.0,0.0,0.0,0.0,0.0,0.0,0.0,0.0,0.0,0.0,0.0,0.0,0.0,0.0,0.0,0.0,0.0,0.0,0.0,0.0,0.0,0.0,0.0,0.0,0.0,0.0,0.0,0.0,0.0,0.0,0.0,0.0,0.0,0.0,0.0,0.0,0.0,0.0,3.6973,3.9199,3.9746,3.9453,3.918,3.9121,3.8302,3.6526,3.3519,3.1699,0.0,0.0,0.0,0.0,0.0,0.0,0.0,0.0,0.0,0.0,0.0,0.0,0.0,0.0,0.0,0.0,0.0,0.0,0.0,0.0,0.0,0.0,0.0,0.0,0.0,0.0,0.0,0.0,0.0,0.0,0.0,0.0,0.0,0.0,0.0,0.0,0.0,0.0,0.0,0.0,0.0,0.0,0.0,0.0,0.0,0.0,0.0,0.0,0.0,0.0,0.0,0.0,0.0,0.0,0.0,0.0,0.0,0.0,0.0,0.0,0.0,0.0,0.0,0.0,0.0,0.0,0.0,0.0,0.0,0.0,0.0,0.0,0.0,0.0,0.0,0.0,0.0,0.0,0.0,0.0,0.0,0.0,0.0,0.0,0.0,0.0,0.0,0.0,0.0,0.0,0.0,0.0,0.0,0.0,0.0,0.0,0.0,0.0,0.0,0.0,0.0,0.0,3.6601,3.8789,0.0,3.998,3.9903,3.9668,3.8828,3.7049,3.4039,0.0,0.0,0.0,0.0,0.0,0.0,0.0,0.0,0.0,0.0,0.0,0.0,0.0,0.0,0.0,0.0,0.0,0.0,0.0,0.0,0.0,0.0,0.0,0.0,0.0,0.0,0.0,0.0,0.0,0.0,0.0,0.0,0.0,0.0,0.0,0.0,0.0,0.0,0.0,0.0,0.0,0.0,0.0,0.0,0.0,0.0,0.0,0.0,0.0,0.0,0.0,0.0,0.0,0.0,0.0,0.0,0.0,0.0,0.0,0.0,0.0,0.0,0.0,0.0,0.0,0.0,0.0,0.0,0.0,0.0,0.0,0.0,0.0,0.0,0.0,0.0,0.0,0.0,0.0,0.0,0.0,0.0,0.0,0.0,0.0,0.0,0.0,0.0,0.0,0.0,0.0,0.0,0.0,0.0,0.0,0.0,0.0,0.0,0.0,0.0,0.0,0.0,3.4293,3.707,3.922,0.0,4.0723,4.0566,4.0137,3.9179,3.7244,3.4079,0.0,0.0,0.0,0.0,0.0,0.0,0.0,0.0,0.0,0.0,0.0,0.0,0.0,0.0,0.0,0.0,0.0,0.0,0.0,0.0,0.0,0.0,0.0,0.0,0.0,0.0,0.0,0.0,0.0,0.0,0.0,0.0,0.0,0.0,0.0,0.0,0.0,0.0,0.0,0.0,0.0,0.0,0.0,0.0,0.0,0.0,0.0,0.0,0.0,0.0,0.0,0.0,0.0,0.0,0.0,0.0,0.0,0.0,0.0,0.0,0.0,0.0,0.0,0.0,0.0,0.0,0.0,0.0,0.0,0.0,0.0,0.0,0.0,0.0,0.0,0.0,0.0,0.0,0.0,0.0,0.0,0.0,0.0,0.0,0.0,0.0,0.0,0.0,0.0,0.0,0.0,0.0,0.0,0.0,0.0,0.0,0.0,0.0,0.0,0.0,0.0,0.0,3.5686,3.8654,4.0996,4.2245,4.168,4.1035,4.0547,3.9336,3.7146,0.0,0.0,0.0,0.0,0.0,0.0,0.0,0.0,0.0,0.0,0.0,0.0,0.0,0.0,0.0,0.0,0.0,0.0,0.0,0.0,0.0,0.0,0.0,0.0,0.0,0.0,0.0,0.0,0.0,0.0,0.0,0.0,0.0,0.0,0.0,0.0,0.0,0.0,0.0,0.0,0.0,0.0,0.0,0.0,0.0,0.0,0.0,0.0,0.0,0.0,0.0,0.0,0.0,0.0,0.0,0.0,0.0,0.0,0.0,0.0,0.0,0.0,0.0,0.0,0.0,0.0,0.0,0.0,0.0,0.0,0.0,0.0,0.0,0.0,0.0,0.0,0.0,0.0,0.0,0.0,0.0,0.0,0.0,0.0,0.0,0.0,0.0,0.0,0.0,0.0,0.0,0.0,0.0,0.0,0.0,0.0,0.0,0.0,0.0,0.0,0.0,0.0,0.0,3.6208,3.9375,4.166,4.2324,4.2187,4.1758,4.1035,4.0351,3.834,3.4551,0.0,0.0,0.0,0.0,0.0,0.0,0.0,0.0,0.0,0.0,0.0,0.0,0.0,0.0,0.0,0.0,0.0,0.0,0.0,0.0,0.0,0.0,0.0,0.0,0.0,0.0,0.0,0.0,0.0,0.0,0.0,0.0,0.0,0.0,0.0,0.0,0.0,0.0,0.0,0.0,0.0,0.0,0.0,0.0,0.0,0.0,0.0,0.0,0.0,0.0,0.0,0.0,0.0,0.0,0.0,0.0,0.0,0.0,0.0,0.0,0.0,0.0,0.0,0.0,0.0,0.0,0.0,0.0,0.0,0.0,0.0,0.0,0.0,0.0,0.0,0.0,0.0,0.0,0.0,0.0,0.0,0.0,0.0,0.0,0.0,0.0,0.0,0.0,0.0,0.0,0.0,0.0,0.0,0.0,0.0,0.0,0.0,0.0,0.0,0.0,0.0,0.0,3.6875,3.9883,4.2168,4.3085,4.2891,4.2402,4.1738,4.0938,3.9376,3.6733,0.0,0.0,0.0,0.0,0.0,0.0,0.0,0.0,0.0,0.0,0.0,0.0,0.0,0.0,0.0,0.0,0.0,0.0,0.0,0.0,0.0,0.0,0.0,0.0,0.0,0.0,0.0,0.0,0.0,0.0,0.0,0.0,0.0,0.0,0.0,0.0,0.0,0.0,0.0,0.0,0.0,0.0,0.0,0.0,0.0,0.0,0.0,0.0,0.0,0.0,0.0,0.0,0.0,0.0,0.0,0.0,0.0,0.0,0.0,0.0,0.0,0.0,0.0,0.0,0.0,0.0,0.0,0.0,0.0,0.0,0.0,0.0,0.0,0.0,0.0,0.0,0.0,0.0,0.0,0.0,0.0,0.0,0.0,0.0,0.0,0.0,0.0,0.0,0.0,0.0,0.0,0.0,0.0,0.0,0.0,0.0,0.0,0.0,0.0,0.0,0.0,0.0,3.7756,4.0352,4.2617,4.4277,4.3751,4.3027,4.246,4.1348,4.035,3.9605,0.0,0.0,0.0,0.0,0.0,0.0,0.0,0.0,0.0,0.0,0.0,0.0,0.0,0.0,0.0,0.0,0.0,0.0,0.0,0.0,0.0,0.0,0.0,0.0,0.0,0.0,0.0,0.0,0.0,0.0,0.0,0.0,0.0,0.0,0.0,0.0,0.0,0.0,0.0,0.0,0.0,0.0,0.0,0.0,0.0,0.0,0.0,0.0,0.0,0.0,0.0,0.0,0.0,0.0,0.0,0.0,0.0,0.0,0.0,0.0,2.8476,0.0,0.0,0.0,0.0,0.0,0.0,0.0,0.0,0.0,0.0,0.0,0.0,0.0,0.0,0.0,0.0,0.0,0.0,0.0,0.0,0.0,0.0,0.0,0.0,0.0,0.0,0.0,0.0,0.0,0.0,0.0,0.0,0.0,0.0,0.0,0.0,0.0,0.0,0.0,0.0,0.0,3.9141,4.1719,4.3711,4.4764,4.4705,4.4003,4.2538,4.2167,4.1586,4.0622,0.0,0.0,0.0,0.0,0.0,0.0,0.0,0.0,0.0,0.0,0.0,0.0,0.0,0.0,0.0,0.0,0.0,0.0,0.0,0.0,0.0,0.0,0.0,0.0,0.0,0.0,0.0,0.0,0.0,0.0,0.0,0.0,0.0,0.0,0.0,0.0,0.0,0.0,0.0,0.0,0.0,0.0,0.0,0.0,0.0,0.0,0.0,0.0,0.0,0.0,0.0,0.0,0.0,0.0,0.0,0.0,0.0,0.0,0.0,0.0,0.0,2.9648,0.0,0.0,0.0,0.0,0.0,0.0,0.0,0.0,0.0,0.0,0.0,0.0,0.0,0.0,0.0,0.0,0.0,0.0,0.0,0.0,0.0,0.0,0.0,0.0,0.0,0.0,0.0,0.0,0.0,0.0,0.0,0.0,0.0,0.0,0.0,0.0,0.0,0.0,0.0,0.0,3.9825,4.2246,4.4121,4.5215,4.5135,4.4549,4.3456,4.3144,4.3235,4.3706,4.1441,0.0,0.0,0.0,0.0,0.0,0.0,0.0,0.0,0.0,0.0,0.0,0.0,0.0,0.0,0.0,0.0,0.0,0.0,0.0,0.0,0.0,0.0,0.0,0.0,0.0,0.0,0.0,0.0,0.0,0.0,0.0,0.0,0.0,0.0,0.0,0.0,0.0,0.0,0.0,0.0,0.0,0.0,0.0,0.0,0.0,0.0,0.0,0.0,0.0,0.0,0.0,0.0,0.0,3.2808,3.3297,3.3691,3.3769,3.4606,3.5837,3.3691,3.307,3.3402,0.0,0.0,0.0,0.0,0.0,0.0,0.0,0.0,0.0,0.0,0.0,0.0,0.0,0.0,0.0,0.0,0.0,0.0,0.0,0.0,0.0,0.0,0.0,0.0,0.0,3.4902,3.5075,0.0,0.0,0.0,0.0,0.0,0.0,0.0,0.0,0.0,0.0,0.0,0.0,4.0762,4.293,4.4609,4.5762,4.5644,4.5176,4.4453,4.4121,4.4824,4.6965,4.425,4.3545,0.0,0.0,0.0,0.0,0.0,0.0,0.0,0.0,0.0,0.0,0.0,0.0,0.0,0.0,0.0,0.0,0.0,0.0,0.0,0.0,0.0,0.0,0.0,0.0,0.0,0.0,0.0,0.0,0.0,0.0,0.0,0.0,2.6641,2.7272,0.0,0.0,0.0,0.0,0.0,0.0,0.0,0.0,0.0,0.0,0.0,0.0,0.0,3.1548,3.2539,3.4101,3.4883,3.4902,3.6055,3.6836,3.7248,3.7654,3.7948,3.8162,3.7811,0.0,3.4473,3.3668,0.0,0.0,0.0,0.0,0.0,0.0,0.0,0.0,0.0,0.0,0.0,0.0,0.0,0.0,0.0,0.0,0.0,0.0,0.0,0.0,0.0,0.0,3.7889,3.785,3.8006,3.8026,0.0,3.4802,3.2281,3.1651,0.0,0.0,0.0,0.0,0.0,0.0,0.0,0.0,4.3398,4.5098,4.6172,4.6677,4.7051,4.6487,4.4551,4.4647,4.582,4.8119,4.7399,4.7144,4.7776,4.6737,0.0,0.0,0.0,0.0,0.0,0.0,0.0,0.0,0.0,0.0,0.0,0.0,0.0,0.0,0.0,0.0,0.0,0.0,0.0,0.0,0.0,0.0,0.0,0.0,0.0,0.0,0.0,0.0,0.0,2.6589,2.8066,2.8998,2.8353,2.7585,0.0,0.0,0.0,0.0,0.0,0.0,0.0,0.0,0.0,3.3375,3.3812,3.4554,3.5664,3.6697,3.7205,3.7205,3.7988,3.8594,3.9043,3.9473,3.9668,3.9668,3.9668,3.873,3.709,3.5212,3.3668,3.2359,0.0,0.0,0.0,0.0,3.1269,3.1597,3.2988,3.3558,0.0,0.0,0.0,0.0,0.0,0.0,0.0,0.0,0.0,0.0,0.0,0.0,0.0,3.9941,4.0058,4.0058,4.0058,3.8905,3.7244,0.0,3.4665,3.4043,3.2266,0.0,0.0,0.0,0.0,0.0,4.4023,4.5312,4.6113,4.6523,4.7863,4.7743,4.5343,4.7586,4.9269,4.9677,5.0342,5.1177,5.2189,5.0047,4.7258,0.0,0.0,0.0,0.0,0.0,0.0,0.0,0.0,0.0,0.0,0.0,0.0,0.0,0.0,0.0,0.0,0.0,0.0,0.0,0.0,0.0,0.0,0.0,0.0,0.0,0.0,0.0,0.0,2.8535,2.9701,3.0742,3.0293,2.9439,0.0,0.0,0.0,0.0,0.0,0.0,3.3313,3.3352,3.4235,3.6169,3.6621,3.7267,3.8224,3.8789,3.91,3.91,3.9512,3.9941,4.0391,4.0801,4.0996,4.0996,4.0996,4.0567,3.9668,3.6953,3.5664,3.5234,3.3981,3.3356,3.3277,3.4085,3.4261,3.4355,3.6074,3.6621,3.6465,3.5996,0.0,3.5664,3.4473,0.0,0.0,0.0,0.0,3.7248,3.834,3.9648,4.0918,4.166,4.1836,4.1836,4.1836,4.1836,4.1055,0.0,3.7891,3.7207,3.5273,0.0,0.0,0.0,0.0,4.25,4.4746,4.5605,4.6353,4.7195,4.8879,4.9231,4.7528,5.0509,5.2221,5.1684,5.2832,5.4146,5.5544,5.3206,5.1247,4.9841,0.0,0.0,0.0,0.0,0.0,0.0,0.0,0.0,0.0,0.0,0.0,0.0,0.0,0.0,0.0,0.0,0.0,0.0,0.0,0.0,0.0,0.0,0.0,0.0,0.0,0.0,0.0,0.0,0.0,3.2633,3.2637,0.0,0.0,0.0,0.0,3.2554,3.3434,3.4684,3.6382,3.6462,3.7086,3.8397,3.8828,3.9082,3.9141,3.9981,4.041,4.041,4.0879,4.1308,4.1719,4.2128,4.2304,4.2304,4.2304,4.205,4.1523,3.9726,3.8262,3.7168,3.707,3.6543,3.592,3.6777,3.7326,3.7716,3.828,3.9003,3.959,3.9121,3.8164,3.7266,3.756,3.6818,0.0,0.0,3.9003,4.0078,4.1718,4.2539,4.3048,4.3476,4.3574,4.3574,4.3574,4.2637,4.1758,0.0,4.2207,4.2325,4.0996,0.0,4.1797,4.2657,4.2911,4.3927,4.6443,4.6814,4.7652,4.9771,5.0514,5.1146,5.191,5.2527,5.3328,5.4417,5.4579,5.5065,5.6127,5.6,5.4142,5.0427,4.9179,0.0,0.0,0.0,0.0,0.0,0.0,0.0,0.0,0.0,0.0,0.0,0.0,0.0,0.0,0.0,0.0,0.0,0.0,0.0,0.0,0.0,0.0,0.0,0.0,0.0,0.0,0.0,0.0,3.359,3.3629,0.0,3.2777,3.3652,3.443,3.4827,3.5918,3.7187,3.869,3.8768,3.9218,4.0234,4.0644,4.0879,4.0879,4.1426,4.1718,4.1738,4.2187,4.2637,4.3047,4.3496,4.3691,4.3691,4.3691,4.3417,4.2969,4.2344,4.1191,3.9804,3.9804,3.9628,3.9375,3.9706,3.9902,4.0058,4.0214,4.0468,4.0761,4.084,4.0566,4.0332,4.1035,4.0918,4.0742,4.1621,4.2324,4.293,4.3514,4.3983,4.4375,4.4491,4.453,4.453,4.453,4.4178,4.3846,4.3846,4.3202,4.2519,4.2051,4.3007,4.3691,4.3184,4.4044,4.571,4.8307,4.8623,4.9483,5.1709,5.3368,5.3876,5.2781,5.5436,5.6728,5.5732,5.6678,5.7442,5.7794,5.7104,5.5749,5.3658,5.3248,5.0008,0.0,0.0,0.0,0.0,0.0,0.0,0.0,0.0,0.0,0.0,0.0,0.0,0.0,0.0,0.0,0.0,0.0,0.0,0.0,0.0,0.0,0.0,0.0,0.0,0.0,0.0,3.4023,3.4489,3.5036,3.5137,3.457,3.584,3.6855,3.7267,3.8224,3.9278,4.0488,4.0527,4.0937,4.1817,4.211,4.2305,4.2441,4.2851,4.3065,4.3085,4.3535,4.3887,4.416,4.4473,4.4609,4.4609,4.4609,4.4433,4.4139,4.4139,4.3476,4.2442,4.2012,4.1738,4.1601,4.1601,4.1601,4.1641,4.1777,4.1934,4.209,4.2344,4.2558,4.2773,4.3359,4.3613,4.3789,4.4042,4.4354,4.4648,4.4785,4.5039,4.5273,4.5408,4.5428,4.5428,4.5428,4.5428,4.5703,4.6637,4.5624,4.4642,4.4642,4.6471,4.7333,4.5568,4.7246,4.8975,4.9762,5.0698,5.2138,5.4346,5.5724,5.6195,5.5465,5.759,5.8484,5.7371,5.8037,5.851,5.8685,5.7255,5.6043,5.5157,5.4931,5.1925,4.601,0.0,0.0,0.0,0.0,0.0,0.0,0.0,0.0,0.0,0.0,0.0,0.0,0.0,0.0,0.0,0.0,0.0,0.0,0.0,0.0,0.0,0.0,0.0,3.35,3.4238,3.4961,3.541,3.6953,3.7638,3.6873,3.828,3.9434,3.9922,4.0313,4.0918,4.1816,4.1855,4.2246,4.3126,4.3165,4.336,4.373,4.4199,4.4414,4.4414,4.4803,4.5018,4.5018,4.5018,4.5037,4.5037,4.5037,4.5037,4.5037,4.5037,4.5037,4.4901,4.3653,4.2871,4.248,4.248,4.248,4.2538,4.2988,4.3398,4.375,4.375,4.4043,4.4414,4.4433,4.4705,4.5018,4.5037,4.5037,4.5135,4.5607,4.5725,4.5842,4.623,4.6394,4.6437,4.6437,4.6503,4.7344,5.0009,4.985,4.9259,4.9196,5.1703,5.2813,5.0167,5.2509,0.0,5.0974,5.3007,5.5536,5.7737,5.7448,5.7967,6.0115,5.888,5.8428,5.9458,5.8554,5.8202,5.871,5.6646,5.5232,5.4697,5.3976,5.2553,5.0402,0.0,0.0,0.0,0.0,0.0,0.0,0.0,0.0,0.0,0.0,0.0,0.0,0.0,0.0,0.0,0.0,0.0,0.0,0.0,0.0,0.0,3.3574,3.4492,3.4355,3.5881,3.7072,3.7189,3.8184,3.8887,3.9022,3.9707,4.0469,4.123,4.1387,4.1953,4.3125,4.3183,4.3574,4.4452,4.4471,4.453,4.4647,4.4764,4.4842,4.4842,4.494,4.5174,4.5529,4.5529,4.5664,4.5935,4.5935,4.5935,4.5935,4.5935,4.5781,4.543,4.4746,4.4393,4.4295,4.4295,4.4295,4.4295,4.4432,4.4549,4.4647,4.4647,4.4725,4.4901,4.5256,4.5432,4.5566,4.5859,4.5935,4.5976,4.6094,4.6348,4.6599,4.6716,4.8279,4.9774,4.9774,5.1121,5.2537,5.3307,5.454,5.4941,5.3332,5.3786,5.411,5.3343,5.4008,0.0,5.5728,5.6509,5.7659,5.9468,5.9494,5.9657,6.0253,5.989,5.9784,6.0041,5.979,5.9514,5.9307,5.8328,5.733,5.6351,5.3013,5.1005,0.0,0.0,0.0,0.0,0.0,0.0,0.0,0.0,0.0,0.0,0.0,0.0,0.0,0.0,0.0,0.0,0.0,0.0,0.0,0.0,0.0,0.0,3.541,3.6387,3.6562,3.7519,3.834,3.8693,3.9512,4.0195,4.0644,4.123,4.1875,4.2539,4.2773,4.3281,4.4219,4.4237,4.457,4.5273,4.5293,4.5369,4.5545,4.5545,4.5545,4.5545,4.5545,4.5703,4.5959,4.5959,4.6074,0.0,4.6308,4.6308,4.6308,4.6308,4.6152,0.0,0.0,0.0,0.0,0.0,4.5115,4.5293,4.5293,4.5389,4.5545,4.5545,4.5545,4.5605,4.5859,4.6055,4.625,4.6504,4.6699,4.6836,4.6836,4.7012,4.7432,4.8434,4.9916,5.1372,5.2348,5.3767,5.5136,5.613,0.0,0.0,5.8467,5.8026,5.7295,5.6168,5.7163,5.8082,5.8224,5.924,6.031,6.1251,6.1145,6.0995,6.0995,6.0367,0.0,0.0,0.0,5.9081,5.7826,5.7474,0.0,0.0,0.0,0.0,0.0,0.0,0.0,0.0,4.9012,4.851,0.0,0.0,0.0,0.0,0.0,0.0,0.0,0.0,0.0,0.0,0.0,0.0,0.0,0.0,0.0,0.0,3.742,3.8905,3.9355,3.9159,3.9237,3.9961,4.082,4.1523,4.1973,4.2695,4.336,4.3808,4.4238,4.4648,4.5057,0.0,0.0,0.0,0.0,4.594,4.6289,4.6348,4.6367,4.6367,4.6426,4.6445,4.6445,4.6445,4.6445,4.6445,4.6445,4.6445,4.6445,4.6445,4.6445,4.6406,4.5959,4.5508,4.5154,4.5154,4.5449,4.5842,4.5842,0.0,0.0,4.6445,4.6445,4.6445,4.6445,4.6719,4.697,4.697,4.7285,4.7648,4.7836,4.7923,4.8568,5.0977,5.1762,5.2563,5.4818,5.5707,5.6725,5.8909,6.003,6.1271,6.3419,6.2948,6.1441,5.8996,6.1138,6.2121,5.9674,6.1474,6.2952,6.2807,0.0,0.0,6.2019,6.0638,6.0205,6.1135,5.9678,5.787,5.586,5.5767,5.5534,5.4974,5.4974,5.5666,5.7085,5.7085,5.6853,5.6251,5.0728,4.9499,0.0,0.0,0.0,0.0,0.0,0.0,0.0,0.0,0.0,0.0,0.0,0.0,0.0,0.0,0.0,3.7209,3.8672,3.9921,4.0703,4.1035,4.1113,4.0976,4.168,4.246,4.3262,4.3496,4.3906,4.4686,4.4822,4.5076,4.5549,4.5547,4.5742,4.6172,4.6191,4.623,4.6308,4.6618,4.6794,4.6794,0.0,0.0,4.7346,4.7346,4.7346,4.7346,4.7346,4.7346,4.7346,4.7346,4.7346,4.7268,4.6484,4.6133,4.6055,4.6055,4.6306,4.6658,4.6658,4.6973,4.7346,4.7346,4.7346,4.7346,4.7346,4.7405,0.0,4.7461,4.7542,4.7928,4.9343,4.9988,5.0954,5.3754,5.5771,5.7558,5.9376,6.058,6.1738,6.3111,6.3173,6.3298,6.4187,6.4149,6.3848,6.3282,6.3773,6.3978,6.3456,6.3848,6.3802,6.2902,6.3128,6.2998,6.2094,6.1692,6.1416,6.121,6.003,5.8956,5.8083,5.8058,5.7826,5.7273,5.7248,5.7399,5.7725,5.7725,5.7675,5.7524,5.5422,5.497,0.0,0.0,0.0,0.0,0.0,0.0,0.0,0.0,0.0,0.0,0.0,3.3785,3.4844,0.0,3.7951,3.9024,4.0118,4.1152,4.2031,4.25,4.2676,4.2461,4.2812,4.3378,4.4277,4.4551,4.4883,4.5312,4.5547,4.5762,4.5998,4.5996,4.6094,4.6289,4.6504,4.6599,4.6599,4.7031,4.7246,4.7246,4.7503,4.76,4.76,4.76,4.76,4.76,4.76,4.76,4.76,4.76,4.76,4.7561,4.7109,4.6933,4.6933,4.6933,4.6933,4.6911,4.6911,4.6911,4.6933,4.6933,4.6933,4.6933,4.6933,4.7268,4.7909,4.9344,4.9879,5.0536,5.2862,5.343,5.4039,5.6632,5.8104,5.9458,6.1457,6.237,6.2978,6.355,6.3898,6.4199,6.445,6.4953,6.5128,6.4576,6.4496,6.4496,6.4496,6.4496,6.4274,6.3701,6.3676,6.3475,6.2898,6.2551,6.2069,6.126,6.0683,5.9859,5.8736,5.871,5.8434,5.7901,5.7901,5.7901,5.7901,5.7901,5.8052,5.8303,5.7706,5.7455,0.0,0.0,0.0,0.0,0.0,0.0,0.0,3.1684,3.2164,3.3516,3.4668,3.5837,3.7088,3.8573,3.9844,4.0625,4.1543,4.2402,4.3126,4.3633,4.3984,4.4082,4.4004,4.4256,4.5057,4.5469,4.5725,4.5803,4.6113,4.6308,4.6308,4.6387,4.6426,4.6426,4.6814,4.7028,4.7028,4.748,4.7718,4.7737,4.7815,4.7855,4.7855,4.7855,4.7796,4.7718,4.7718,4.7776,4.7855,4.7952,4.7972,4.7991,4.8069,4.8109,4.8069,4.7737,4.7363,4.7028,4.7028,4.6836,4.665,4.717,4.7344,4.7451,4.7993,4.8647,4.9695,5.2025,5.2872,5.368,5.6368,5.6731,5.6997,5.9412,5.991,6.0438,6.2658,6.2952,6.2877,6.3078,6.3797,6.445,6.4752,6.5534,6.581,6.4953,6.4802,6.4777,6.4651,6.4672,6.4576,6.435,6.4048,6.3772,6.355,6.2978,6.2225,6.126,6.121,6.0588,5.9238,5.9187,5.8961,5.8554,5.8529,5.8529,5.8529,5.8529,5.8755,5.9187,5.9187,5.8905,3.0742,3.041,3.0664,3.2563,3.25,3.2769,0.0,3.5664,3.5351,3.6994,3.7773,3.8456,3.9355,4.0331,4.1133,4.1582,4.2695,4.3516,4.3613,4.4334,4.4998,4.5432,4.5117,4.5078,4.5588,4.5666,4.5861,4.6211,4.6269,4.6308,4.6308,4.6638,4.6833,4.6833,4.7285,4.7522,4.7522,4.793,4.8144,4.8144,4.8558,4.8757,4.8757,4.8757,4.8519,4.8144,4.8144,4.8382,4.8773,4.9141,4.9293,4.9332,4.9769,4.9906,4.973,4.8167,4.7581,4.7522,4.7522,4.7503,4.7861,5.03,5.111,5.157,5.4084,5.4849,5.496,5.5354,5.5464,5.5941,5.7797,5.8244,5.8927,6.1746,6.2034,6.2186,6.3931,6.3525,6.3103,6.4124,6.4023,6.4228,6.5685,6.6036,6.604,6.5936,6.5936,6.576,6.5279,6.5229,6.4852,6.3898,6.4149,6.3998,6.2978,6.24,6.1843,6.1235,6.121,6.111,6.0934,6.0934,6.0909,6.0833,6.0833,6.0833,6.0833,6.0833,6.0858,6.0934,6.0934,6.0588,3.3851,3.3555,3.3555,3.4977,3.5075,3.5251,3.6914,3.6875,3.6914,3.8359,3.9219,3.9902,4.0546,4.1562,4.2442,4.2832,4.3574,4.4277,4.4785,4.5176,4.5566,4.5996,4.5879,4.584,4.6016,4.6035,4.6113,4.6289,4.6523,4.6638,4.6638,4.707,4.7305,4.7305,4.7715,4.7949,4.7949,4.8402,4.8617,4.8617,4.8815,4.9027,4.9238,4.9007,4.8773,4.8617,4.8617,4.8714,4.9029,5.0569,5.1202,5.1222,5.1405,5.1487,5.1242,4.9397,4.9429,5.035,5.0084,4.9819,5.0055,5.2585,5.2454,5.1842,5.4359,5.527,5.5821,5.7514,5.7949,5.8441,6.0883,6.1272,6.1327,6.2502,6.2626,6.2651,6.3375,6.3425,6.3475,6.3948,6.4605,6.5208,6.5584,6.6187,6.6488,6.614,6.609,6.6036,6.5785,6.5229,6.4551,6.3776,6.3898,6.3701,6.2877,6.2601,6.2225,6.1692,6.1667,6.1517,6.121,6.121,6.121,6.121,6.121,6.121,6.121,6.121,6.1361,6.1667,6.1667,6.1893,3.5784,3.5801,3.5974,3.6814,3.7205,3.7498,3.791,3.8008,3.834,3.9512,4.0254,4.0937,4.1758,4.2637,4.3437,4.3984,4.4453,4.4982,4.5607,4.5803,4.5957,4.6269,4.6308,4.6348,4.6443,4.6484,4.6484,4.6484,4.6853,4.7087,4.7087,4.7519,4.7776,4.7776,4.8164,4.8437,4.8574,4.8792,4.8972,4.9066,4.8949,4.9046,4.9336,4.891,4.8773,4.8894,4.8753,4.8773,4.9098,5.154,5.217,5.1738,5.3152,5.3307,5.2627,5.176,5.1748,5.2157,5.1821,5.1863,5.2455,5.4937,5.4579,5.3663,5.6136,5.7068,5.7736,5.9823,6.0341,6.0799,6.3087,6.3375,6.3078,6.3229,6.3274,6.3274,6.3274,6.3601,6.3973,6.4103,6.5082,6.5911,6.5986,6.656,6.6962,6.6815,6.6391,6.6061,6.5911,6.5078,6.435,6.3973,6.3797,6.3525,6.3078,6.2902,6.2626,6.225,6.2225,6.2044,6.1642,6.1642,6.1642,6.1642,6.1642,6.1642,6.1642,6.1642,6.1918,6.2471,6.2471,6.2998,3.5527,3.6033,3.6853,3.7658,3.8497,3.9258,3.9707,3.9824,4.0059,4.0957,4.1152,4.168,4.332,4.3652,4.3965,4.4822,4.5351,4.5666,4.5686,4.6035,4.6289,4.6308,4.6308,4.6443,4.6853,4.6892,4.6892,4.6892,4.7305,4.7581,4.7581,4.7969,4.8183,4.8183,4.8636,4.9066,4.9469,4.9086,4.9105,4.9469,4.9086,4.8913,4.8913,4.8418,4.848,4.8874,4.8418,4.8499,4.9117,5.1847,5.164,5.0092,5.5024,5.5561,5.3785,5.5598,5.4344,5.1716,5.1695,5.2931,5.4931,5.7687,5.8522,5.8994,6.1709,6.2568,6.2593,6.2679,6.27,6.2845,6.353,6.3697,6.3802,6.4325,6.4446,6.4446,6.4446,6.445,6.4626,6.5153,6.5283,6.5857,6.7442,6.7339,6.7364,6.8374,6.7144,6.5911,6.5383,6.4852,6.4496,6.4496,6.4023,6.3676,6.3676,6.3128,6.2802,6.2777,6.2777,6.2777,6.2752,6.2752,6.2752,6.2752,6.2752,6.2752,6.2752,6.2752,6.3053,6.3651,6.3651,6.3948,3.6936,3.75,3.8221,3.9337,3.963,3.9844,4.0585,4.0761,4.0996,4.1836,4.2461,4.3027,4.3594,4.4159,4.4744,4.5371,4.5607,4.5803,4.6055,4.6211,4.6308,4.6308,4.6543,4.6755,4.6892,4.6911,4.7028,4.7344,4.7754,4.7988,4.7988,4.8421,4.8792,4.9059,4.8968,4.9105,4.9508,4.9105,4.8968,4.9105,4.9238,4.9164,4.8913,4.9023,4.9841,5.1145,4.9406,4.9654,5.1417,5.3854,5.443,5.4052,5.7308,5.8068,5.7265,5.641,5.6379,5.6729,5.6729,5.7171,5.8136,6.061,6.0369,5.9625,6.2514,6.3103,6.2952,6.3701,6.3676,6.3525,6.4099,6.4224,6.4274,6.4471,6.4496,6.4496,6.4496,6.4777,6.5078,6.5258,6.6187,6.689,6.6714,6.7141,6.7392,6.6994,6.6441,6.5785,6.4877,6.4601,6.4496,6.4496,6.4325,6.4224,6.4224,6.4048,6.3776,6.3425,6.34,6.3224,6.2827,6.2802,6.2802,6.2802,6.2802,6.3003,6.34,6.34,6.3676,6.4224,6.4224,6.4526,3.8478,3.918,3.9765,4.0723,4.1016,4.1152,4.1523,4.1621,4.1816,4.2519,4.3105,4.3574,4.3887,4.4531,4.5193,4.5801,4.6057,4.6211,4.6484,4.6501,4.6501,4.6501,4.6736,4.7028,4.7321,4.736,4.75,4.7793,4.8203,4.846,4.846,4.8867,4.9183,4.9277,4.916,4.9238,4.9508,4.9105,4.8913,4.8913,4.9164,4.9164,4.8913,4.916,4.998,5.1055,4.9541,4.9771,5.1417,5.4741,5.5137,5.4118,5.9164,6.009,5.8612,5.8894,5.9901,6.0975,5.9724,5.9976,6.1116,6.2626,6.2249,6.1499,6.3411,6.3701,6.355,6.43,6.4249,6.4124,6.4651,6.4777,6.4827,6.5028,6.5078,6.5078,6.5078,6.5333,6.5634,6.5882,6.6915,6.7568,6.684,6.7166,6.7191,6.6241,6.609,6.586,6.5179,6.5078,6.5078,6.5078,6.4902,6.4777,6.4777,6.4601,6.435,6.4023,6.3998,6.3802,6.3425,6.3425,6.3425,6.3425,6.3425,6.3601,6.3998,6.3998,6.4249,6.4777,6.4777,6.5078,4.0001,4.0918,4.1406,4.1816,4.252,4.3009,4.2699,4.2541,4.2598,4.3151,4.3188,4.338,4.418,4.4686,4.5271,4.6113,4.6579,4.6872,4.6872,4.6892,4.6911,4.6911,4.695,4.7282,4.8125,4.8223,4.8242,4.8262,0.0,4.8933,4.8913,4.9277,4.9336,4.8991,4.9297,4.9488,4.9508,4.9105,4.8913,4.8913,4.8913,4.8913,4.8913,4.9052,4.9117,4.9117,4.9137,4.9206,4.9709,5.4668,5.4099,5.1044,6.0729,6.17,5.8225,6.2818,6.4496,6.4032,6.071,6.1408,6.3726,6.3726,6.4099,6.4521,6.4547,6.45,6.4521,6.4572,6.4551,6.4651,6.5204,6.5333,6.5459,6.5986,6.609,6.609,6.609,6.609,6.6287,6.6836,6.7342,6.7719,6.7744,6.7314,6.6761,6.6187,6.609,6.609,6.609,6.609,6.609,6.609,6.5634,6.5333,6.5333,6.4877,6.4551,6.4547,6.4547,6.4547,6.4496,6.4496,6.4496,6.4496,6.4496,6.45,6.4547,6.4547,6.4827,6.5333,6.5333,6.5609,4.1074,4.2031,4.2794,4.3555,4.3419,4.3532,4.5289,4.4241,4.3375,4.5082,4.4421,4.3516,4.3458,4.4297,4.5076,4.5291,4.5955,4.6443,4.6443,4.6716,4.6911,4.6911,4.7477,4.7969,4.8183,4.8519,4.8851,4.9137,4.9273,4.9219,4.8913,4.9277,4.9605,4.9867,4.934,4.9203,4.9508,4.9105,4.8913,4.8913,4.8913,4.8913,4.8959,5.1126,5.2048,5.1979,5.2376,5.3554,5.5256,5.6598,5.7511,5.8506,6.2832,6.3757,6.2818,6.4031,6.4496,6.4387,6.3497,6.3664,6.43,6.43,6.4396,6.4551,6.4978,6.4827,6.4651,6.5459,6.5383,6.5229,6.576,6.5911,6.5936,6.6086,6.609,6.609,6.609,6.609,6.6162,6.6312,6.6438,6.6689,6.7138,6.6714,6.6287,6.6115,6.609,6.609,6.609,6.609,6.609,6.609,6.5986,6.5911,6.5911,6.5785,6.5509,6.5128,6.5103,6.4927,6.4521,6.4496,6.4496,6.4496,6.4496,6.4701,6.5103,6.5103,6.5358,6.5911,6.5911,6.5986,4.2129,4.2988,4.3516,4.4219,4.416,4.4138,4.4987,4.4118,4.3314,4.4116,4.3659,4.2949,4.2383,4.3613,4.4725,4.4725,4.576,4.6641,4.6836,4.707,4.7263,4.7438,4.7887,4.8281,4.8499,4.8734,4.8988,4.9219,4.9391,4.9492,4.9457,4.9668,4.9844,4.9883,4.9414,4.9203,4.9238,4.9007,4.8913,4.8913,4.9086,4.916,4.923,5.1064,5.2408,5.3373,0.0,5.5172,5.7491,5.8741,5.9453,6.0094,6.3773,6.4563,6.3743,6.4797,6.5204,6.5204,6.5204,6.5204,6.5179,6.4927,6.5003,6.5279,6.5559,6.5434,6.5329,6.5936,6.5886,6.5735,6.6036,6.609,6.609,6.609,6.609,6.609,6.609,6.609,6.6187,6.6438,6.6287,6.6287,6.6887,6.6488,6.609,6.609,6.609,6.609,6.609,6.609,6.609,6.609,6.609,6.609,6.609,6.609,6.5986,6.566,6.566,6.5509,6.5229,6.5204,6.5204,6.5204,6.5204,6.5333,6.566,6.566,6.581,6.609,6.609,6.609,4.3047,4.3789,4.3984,4.4453,4.4996,4.5089,4.3868,4.3454,4.3099,4.229,4.2112,4.1875,4.1308,4.2872,4.4258,4.4375,4.576,4.697,4.7441,4.7561,4.7757,4.8164,4.8301,4.8496,4.8874,4.8952,4.9011,4.907,4.9336,4.9664,5.0102,5.018,4.9941,4.943,4.9469,4.9316,4.8913,4.9011,4.9027,4.8968,4.9394,4.9773,5.0101,5.0891,5.239,5.4388,0.0,0.0,5.8363,6.0863,6.0807,5.9605,6.4279,6.4805,6.3223,6.5329,6.609,6.609,6.609,6.609,6.6036,6.5559,6.5735,6.609,6.609,6.609,6.609,6.609,6.609,6.609,6.609,6.609,6.609,6.609,6.609,6.609,6.609,6.614,6.6363,6.6786,6.6513,6.6363,6.6811,6.6438,6.609,6.609,6.609,6.609,6.609,6.609,6.609,6.609,6.609,6.609,6.609,6.609,6.609,6.609,6.609,6.609,6.609,6.609,6.609,6.609,6.609,6.609,6.609,6.609,6.609,6.609,6.609,6.609,4.3301,4.4238,4.4881,4.5373,4.6534,4.732,4.6388,4.5328,4.4449,4.3968,4.1985,4.0508,4.1094,4.2364,4.3575,4.4277,4.5527,4.6562,4.697,4.7363,4.7757,4.8164,4.8824,4.918,4.8933,4.9199,4.9551,4.9945,4.9687,4.9547,4.9605,4.998,4.9828,4.9027,4.9336,4.9316,4.8913,4.9613,4.9766,4.9391,4.9863,5.1129,5.314,5.5608,5.6944,5.7488,5.9924,0.0,6.1674,6.217,6.3299,6.4812,6.5739,6.5828,6.5526,6.5961,6.609,6.609,6.609,6.609,6.6065,6.5986,6.6015,6.609,6.609,6.609,6.609,6.609,6.609,6.609,6.609,6.609,6.609,6.609,6.609,6.609,6.609,6.6488,6.6736,6.6338,6.6564,6.6736,6.6338,6.6187,6.609,6.609,6.609,6.609,6.609,6.609,6.609,6.609,6.609,6.609,6.609,6.609,6.609,6.609,6.609,6.609,6.609,6.609,6.609,6.609,6.609,6.609,6.609,6.609,6.609,6.609,6.609,6.609,4.3359,4.4023,4.4492,4.5176,4.5764,4.6084,4.5736,4.4272,4.2922,4.2774,4.1041,3.959,3.9804,4.1426,4.2949,4.3634,4.5176,4.6523,4.7168,4.7637,4.8066,4.8519,4.9121,4.9355,4.8952,4.9258,4.9683,5.016,4.9785,4.9703,5.0152,4.9961,4.9531,4.8933,4.9086,4.9105,4.8913,4.9512,4.9703,4.9508,5.0195,5.1781,5.4223,5.5805,5.7955,6.0464,6.1884,0.0,6.4369,6.4369,6.5069,6.609,6.609,6.609,6.609,6.609,6.609,6.609,6.609,6.609,6.609,6.609,6.609,6.609,6.609,6.609,6.609,6.609,6.609,6.609,6.609,6.609,6.609,6.609,6.6338,6.6488,6.6187,6.6789,6.7141,6.6266,6.6589,6.6811,6.619,6.609,6.609,6.609,6.609,6.609,6.609,6.609,6.609,6.609,6.609,6.609,6.609,6.609,6.609,6.609,6.609,6.609,6.609,6.609,6.609,6.609,6.609,6.609,6.609,6.609,6.609,6.609,6.609,6.609,4.3281,4.3711,4.4023,4.4686,4.4966,4.494,4.4505,4.3236,4.1962,4.1272,4.0182,3.9246,3.8939,4.0664,4.2402,4.3243,4.4863,4.6387,4.7464,4.7793,4.8125,4.8675,4.9199,4.9293,4.8792,4.9745,5.0289,5.0067,4.9703,4.9801,5.0464,4.9781,4.9258,4.9027,4.9148,4.9187,4.9187,4.9668,5.0142,5.0586,5.1336,5.3293,5.6241,5.654,5.9089,6.3268,6.3268,0.0,0.0,6.609,6.609,6.609,6.609,6.609,6.609,6.609,6.609,6.609,6.609,6.609,6.609,6.609,6.609,6.609,6.609,6.609,6.609,6.609,6.609,6.609,6.609,6.609,6.609,6.609,6.6463,6.6689,6.6363,6.699,6.7367,6.6463,6.6686,6.6811,6.619,6.609,6.609,6.609,6.609,6.609,6.609,6.609,6.609,6.609,6.609,6.609,6.609,6.609,6.609,6.609,6.609,6.609,6.609,6.609,6.609,6.609,6.609,6.609,6.609,6.609,6.609,6.609,6.609,6.609,4.3008,4.3711,4.4355,4.4433,4.5855,4.6609,4.4322,4.4522,4.4306,4.12,4.0181,3.9821,3.9789,4.0625,4.1973,4.3945,4.4744,4.5681,4.7366,4.7266,4.7321,4.8164,4.8981,4.9176,4.834,5.1265,5.2225,4.975,4.9527,4.9547,4.9625,4.9203,4.9105,4.943,4.9844,5.0082,5.0082,5.0835,5.2168,5.4038,5.4492,5.7182,6.1752,6.1799,6.3268,6.5764,6.5764,0.0,0.0,6.609,6.609,6.609,6.609,6.609,6.609,6.609,6.609,6.609,6.609,6.609,6.609,6.609,6.609,6.609,6.609,6.609,6.609,6.609,6.609,6.609,6.609,6.609,6.609,6.609,6.614,6.6312,6.6811,6.6987,6.7037,6.6937,6.6962,6.6811,6.619,6.609,6.609,6.609,6.609,6.609,6.609,6.609,6.609,6.609,6.609,6.609,6.609,6.609,6.609,6.609,6.609,6.609,6.609,6.609,6.609,6.609,6.609,6.609,6.609,6.609,6.609,6.609,6.609,6.609,4.2969,4.3536,4.4043,4.4336,4.5513,4.6314,4.5226,4.4994,4.4666,4.3261,4.1318,4.0052,4.0591,4.0753,4.1484,4.3633,4.4549,4.5428,4.6641,4.7109,4.7441,4.7793,4.8805,4.9254,4.8675,5.0398,5.0879,4.9272,4.9352,4.9391,4.9164,4.8991,4.9086,4.9488,4.9664,4.9902,5.0199,5.2232,5.3691,5.4513,5.6404,5.9134,6.2491,6.2491,6.382,6.609,6.609,0.0,0.0,6.609,6.609,6.609,6.609,6.609,6.609,6.609,6.609,6.609,6.609,6.609,6.609,6.609,6.609,6.609,6.609,6.609,6.609,6.609,6.609,6.609,6.609,6.609,6.6187,6.6564,6.689,6.7191,6.7417,6.7995,6.817,6.7188,6.7263,6.7191,6.6241,6.609,6.609,6.609,6.609,6.609,6.609,6.609,6.609,6.609,6.609,6.609,6.609,6.609,6.609,6.609,6.609,6.609,6.609,6.609,6.609,6.609,6.609,6.609,6.609,6.609,6.609,6.609,6.609,6.609,4.295,4.3379,4.3789,4.4101,4.466,4.5082,4.4857,4.4687,4.4417,4.3722,4.2008,4.075,4.1126,4.0817,4.1211,4.3359,4.4315,4.5213,4.6306,4.6894,4.7268,4.7383,4.8395,4.8965,4.8538,4.9301,4.9839,4.9925,4.9558,0.0,4.9086,4.9086,4.9281,4.9683,5.0532,5.1189,5.1652,5.4392,5.6145,5.6906,5.8908,6.1195,6.3554,6.3554,6.45,6.609,0.0,0.0,0.0,6.609,6.609,6.609,6.609,6.609,6.609,6.609,6.609,6.609,6.609,6.609,6.609,6.609,6.609,6.609,6.609,6.609,6.609,6.609,6.609,6.609,6.609,6.609,6.6262,6.6861,6.7288,6.7643,6.797,6.8374,6.8399,6.7439,6.7267,6.7041,6.6237,6.609,6.609,6.609,6.609,6.609,6.609,6.609,6.609,6.609,6.609,6.609,6.609,6.609,6.609,6.609,6.609,6.609,6.609,6.609,6.609,6.609,6.609,6.609,6.609,6.609,6.609,6.609,6.609,6.609,4.2872,4.3379,4.3711,4.3711,4.3419,4.3021,4.2534,4.3451,4.3811,4.168,4.1828,4.2117,4.1355,4.0817,4.1211,4.3359,4.4101,4.5,4.6658,4.654,4.6465,4.6853,4.7673,4.8047,4.7659,4.8402,4.9862,5.2185,5.0208,0.0,4.9469,4.9488,4.9703,5.018,5.2974,5.4632,5.5047,5.7502,5.9999,6.2425,6.2447,6.3732,6.6069,6.6069,6.6069,0.0,0.0,0.0,0.0,6.609,6.609,6.609,6.609,6.609,6.609,6.609,6.609,6.609,6.609,6.609,6.609,6.609,6.609,6.609,6.609,6.609,6.609,6.609,6.609,6.609,6.609,6.609,6.6262,6.6861,6.7012,6.7314,6.8349,6.7769,6.7188,6.7693,6.689,6.6115,6.609,6.609,6.609,6.609,6.609,6.609,6.609,6.609,6.609,6.609,6.609,6.609,6.609,6.609,6.609,6.609,6.609,6.609,6.609,6.609,6.609,6.609,6.609,6.609,6.609,6.609,6.609,6.609,6.609,6.609,4.1348,4.205,4.2675,4.2129,4.2697,4.3055,4.1861,4.2674,4.3247,4.1539,4.0929,4.0695,4.0724,4.0374,4.0879,4.332,4.4101,4.4883,4.6308,4.6894,4.7249,4.7363,4.8398,4.9156,4.9359,4.9089,4.9216,4.9957,4.9561,0.0,4.9488,5.0054,5.0469,5.0605,5.3138,5.47,5.5094,5.9226,6.1711,6.2514,6.417,6.535,6.609,6.609,0.0,0.0,0.0,0.0,0.0,6.609,6.609,6.609,6.609,6.609,6.609,6.609,6.609,6.609,6.609,6.609,6.609,6.609,6.609,6.609,6.609,6.609,6.609,6.609,6.609,6.609,6.609,6.609,6.6338,6.7317,6.7565,6.7744,6.845,6.8324,6.7919,6.7364,6.6962,6.6589,6.6187,6.609,6.609,6.609,6.609,6.609,6.609,6.609,6.609,6.609,6.609,6.609,6.609,6.609,6.609,6.609,6.609,6.609,6.609,6.609,6.609,6.609,6.609,6.609,6.609,6.609,6.609,6.609,6.6513,6.6736,4.0391,4.1211,4.1836,4.1328,4.1679,4.179,4.0514,4.1175,4.1723,4.0476,4.0049,4.0005,4.0431,4.0171,4.0586,4.2656,4.3633,4.459,4.5879,4.6797,4.7519,4.803,4.8633,4.9234,4.9883,4.9301,4.8913,4.8913,4.9277,0.0,4.9742,5.043,5.1291,5.239,5.4836,5.6247,5.648,6.1396,6.3863,6.3885,6.5372,6.609,6.609,6.609,0.0,0.0,0.0,0.0,0.0,6.609,6.609,6.609,6.609,6.609,6.609,6.609,6.609,6.609,6.609,6.609,6.609,6.609,6.609,6.609,6.609,6.609,6.609,6.609,6.609,6.614,6.6388,6.6438,6.6714,6.7844,6.812,6.8249,6.8801,6.8575,6.812,6.7417,6.694,6.6538,6.614,6.609,6.609,6.609,6.609,6.609,6.609,6.609,6.609,6.609,6.609,6.609,6.609,6.609,6.609,6.609,6.609,6.609,6.609,6.609,6.609,6.609,6.609,6.609,6.609,6.609,6.609,6.6115,6.6736,6.6987,0.0,4.0605,4.0996,4.0937,4.0312,3.9511,3.8651,3.9086,0.0,3.8587,3.9092,3.9813,4.0281,4.008,4.0312,4.1699,4.2969,4.4219,4.5588,4.6543,4.7556,4.8871,4.8636,4.8668,4.9547,4.9222,4.8972,4.8991,4.9355,0.0,5.0219,5.0625,5.208,5.474,5.7224,5.863,5.8791,6.3642,6.6026,6.5828,6.6026,6.609,6.609,6.609,0.0,0.0,0.0,0.0,0.0,6.609,6.609,6.609,6.609,6.609,6.609,6.609,6.609,6.609,6.609,6.609,6.609,6.609,6.609,6.609,6.609,6.609,6.609,6.609,6.609,6.6237,6.6836,6.6987,6.7288,6.8324,6.86,6.8726,6.918,6.85,6.7769,6.7693,6.684,6.609,6.609,6.609,6.609,6.609,6.609,6.609,6.609,6.609,6.609,6.609,6.609,6.609,6.609,6.609,6.609,6.609,6.609,6.609,6.609,6.609,6.609,6.609,6.609,6.609,6.609,6.614,6.614,6.6187,6.6836,6.7138,3.7479,0.0,3.9042,3.8379,3.8047,3.7791,0.0,3.7302,3.7296,3.6723,3.7078,3.7793,3.8851,3.922,4.0215,4.2832,4.3808,4.4805,4.6384,4.7926,4.9254,5.0234,4.998,5.0058,5.0874,4.9976,4.9512,4.9867,5.0273,5.0547,5.0644,5.103,5.1575,5.2258,5.4666,5.6898,5.8791,6.3642,6.5177,6.3356,6.522,6.609,6.609,6.609,0.0,0.0,0.0,0.0,6.609,6.609,6.609,6.609,6.609,6.609,6.609,6.609,6.609,6.609,6.609,6.609,6.609,6.609,6.609,6.609,6.609,6.609,6.609,6.609,6.609,6.6237,6.6836,6.6987,6.7288,6.8324,6.86,6.8525,6.8224,6.797,6.7543,6.6689,6.6266,6.609,6.609,6.609,6.609,6.609,6.609,6.609,6.609,6.609,6.609,6.609,6.609,6.609,6.609,6.609,6.609,6.609,6.609,6.609,6.609,6.609,6.609,6.609,6.609,6.609,6.609,6.6564,6.6786,6.6811,6.7769,6.8424,3.6091,3.7166,3.8164,3.7695,3.7441,3.7246,3.7029,3.6677,3.6309,3.6057,3.6367,3.701,3.8086,3.8965,4.0254,4.2461,4.3867,4.541,4.7519,4.9141,5.0269,5.0742,5.0605,5.0644,5.1069,5.0328,5.0,5.043,0.0,5.0898,5.1069,5.1284,5.1915,5.306,5.4402,5.6291,5.8768,6.2558,6.4347,6.417,6.5483,6.609,6.609,6.609,6.609,0.0,0.0,0.0,6.609,6.609,6.609,6.609,6.609,6.609,6.609,6.609,6.609,6.609,6.609,6.609,6.609,6.609,6.609,6.609,6.609,6.609,6.609,6.609,6.6312,6.6639,6.7238,6.7543,6.7945,6.8776,6.8977,6.8826,6.8274,6.797,6.7543,6.6689,6.6287,6.609,6.609,6.609,6.609,6.609,6.609,6.609,6.609,6.609,6.609,6.609,6.609,6.609,6.609,6.609,6.609,6.609,6.609,6.609,6.609,6.609,6.609,6.609,6.6363,6.6513,6.6513,6.7087,6.7389,6.7389,6.8199,6.8751,3.5527,3.6777,3.7951,3.7677,3.7422,3.7187,3.7109,3.6526,3.6018,3.6077,3.6406,3.7068,3.8263,3.9336,4.0547,4.2226,4.412,4.623,4.8581,4.9945,5.0762,5.0879,5.084,5.0859,5.0996,5.0625,5.0527,5.0879,0.0,5.1133,5.1382,5.1401,5.2379,5.4453,5.4524,5.5917,5.8768,6.1263,6.351,6.5548,6.594,6.609,6.609,6.609,6.609,0.0,0.0,0.0,6.609,6.609,6.609,6.609,6.609,6.609,6.609,6.609,6.609,6.609,6.609,6.609,6.609,6.609,6.609,6.609,6.609,6.609,6.6137,6.6212,6.661,6.7113,6.7668,6.8221,6.8751,6.9255,6.9331,6.913,6.86,6.807,6.7543,6.7087,6.6589,6.6237,6.6237,6.6237,6.6212,6.6115,6.609,6.609,6.609,6.609,6.609,6.609,6.609,6.609,6.609,6.609,6.609,6.609,6.609,6.609,6.609,6.609,6.614,6.6237,6.6736,6.7037,6.7113,6.7668,6.7919,6.7945,6.8475,6.8826,3.6189,3.7479,3.8143,3.6662,3.6543,3.6697,3.6291,3.6096,3.6116,3.6502,3.6638,3.7615,4.0644,4.0762,4.1543,4.5039,4.6504,4.76,4.8737,4.9691,5.0527,5.1226,5.0991,5.1094,5.1841,5.1504,5.1245,5.1304,0.0,5.1758,5.1421,5.1401,5.1571,5.1964,5.1964,5.4186,5.8768,6.1263,6.2693,6.3091,6.5112,6.609,6.609,6.609,6.609,0.0,0.0,6.609,6.609,6.609,6.609,6.609,6.609,6.609,6.609,6.609,6.609,6.609,6.609,6.609,6.609,6.609,6.609,6.609,6.609,6.609,6.6212,6.6736,6.6937,6.7113,6.7668,6.8221,6.8751,6.9255,6.9055,6.8575,6.8045,6.7493,6.7087,6.7012,6.6937,6.6861,6.6861,6.6861,6.6686,6.6187,6.609,6.609,6.609,6.609,6.609,6.609,6.609,6.609,6.609,6.609,6.609,6.609,6.609,6.609,6.609,6.609,6.6338,6.6861,6.6962,6.7238,6.7668,6.8221,6.8475,6.8475,6.9027,6.978,3.5388,3.6387,3.7226,3.7363,3.8437,3.9472,3.9454,3.9278,3.9141,3.912,3.9138,3.9667,4.1465,4.2051,4.3339,4.6777,4.7894,4.8597,4.9476,5.0312,5.0996,5.1362,5.1465,5.1562,5.1719,5.1758,5.1777,0.0,0.0,0.0,5.1797,5.1538,5.1401,5.1401,5.1401,5.3132,5.6781,5.9271,6.1822,6.4457,6.557,6.609,6.609,6.609,6.609,6.609,0.0,6.609,6.609,6.609,6.609,6.609,6.609,6.609,6.609,6.609,6.609,6.609,6.609,6.609,6.609,6.609,6.609,6.609,6.609,6.609,6.6237,6.6836,6.7213,6.7565,6.8073,6.8625,6.908,6.9331,6.9205,6.8826,6.797,6.7819,6.7693,6.7113,6.7238,6.7339,6.7037,6.6987,6.6811,6.6187,6.609,6.609,6.609,6.609,6.609,6.609,6.609,6.609,6.609,6.609,6.609,6.609,6.609,6.6262,6.6564,6.6589,6.684,6.7417,6.7719,6.7995,6.8224,6.8776,6.9029,6.9029,6.928,6.9855,3.4977,3.5723,3.6721,3.8475,3.9824,4.1016,4.2031,4.1797,4.1406,4.1602,4.1641,4.1856,4.2578,4.3828,4.5488,4.7695,4.8617,4.9301,5.0102,5.082,5.1304,5.1401,5.1719,5.1836,5.1577,5.1973,5.2226,0.0,0.0,0.0,5.2114,5.1636,5.1401,5.1401,5.1401,5.2575,5.5091,5.7571,6.097,6.5264,6.5832,6.609,6.609,6.609,6.609,6.609,6.609,6.609,6.609,6.609,6.609,6.609,6.609,6.609,6.609,6.609,6.609,6.609,6.609,6.609,6.609,6.609,6.609,6.609,6.609,6.6212,6.6438,6.7015,6.7568,6.8095,6.85,6.8979,6.9406,6.9406,6.9306,6.9002,6.8148,6.8221,6.817,6.7364,6.7518,6.7618,6.7087,6.6987,6.6811,6.6187,6.609,6.609,6.609,6.609,6.609,6.609,6.609,6.609,6.609,6.609,6.614,6.6312,6.6312,6.6513,6.6987,6.7113,6.7417,6.797,6.8374,6.8675,6.8801,6.9205,6.9406,6.9406,6.9406,6.9705,3.6108,3.6873,3.7617,3.9375,3.8711,3.8359,4.1191,4.0898,4.0586,4.2559,4.295,4.3458,4.5119,4.6758,4.7832,4.7679,4.8672,4.9625,5.0141,5.0566,5.0972,5.1362,5.144,5.1597,5.1992,5.2422,5.2656,0.0,0.0,0.0,5.2134,5.1636,5.1401,5.1401,5.1401,5.2575,5.5091,5.7571,6.0135,6.2804,6.5047,6.609,6.609,6.609,6.609,6.609,6.609,6.609,6.609,6.609,6.609,6.609,6.609,6.609,6.609,6.609,6.609,6.609,6.609,6.609,6.609,6.609,6.609,6.609,6.609,6.6488,6.7062,6.7593,6.8145,6.855,6.86,6.8979,6.9406,6.9406,6.9027,6.865,6.855,6.8173,6.7819,6.7769,6.7769,6.7618,6.7087,6.6987,6.6811,6.6187,6.609,6.609,6.609,6.609,6.609,6.609,6.609,6.609,6.609,6.609,6.6338,6.6912,6.6937,6.6962,6.6987,6.7467,6.7995,6.8525,6.8575,6.8829,6.9331,6.9381,6.9406,6.9406,6.9406,6.9705,3.5564,3.6562,3.7715,3.9453,3.9823,4.0449,4.3183,4.3848,4.4258,4.5627,4.59,4.6018,4.6387,4.7422,4.8242,4.8382,4.9023,4.9742,5.0469,5.0703,5.0957,5.1362,5.166,5.1894,5.2095,5.274,0.0,0.0,0.0,0.0,5.1694,5.1499,5.1401,5.1401,5.1401,5.2575,5.5091,5.7571,6.0044,6.2514,6.496,6.609,6.609,6.609,6.609,6.609,6.609,6.609,6.609,6.609,6.609,6.609,6.609,6.609,6.609,6.609,6.609,6.609,6.609,6.609,6.609,6.609,6.609,6.609,6.609,6.6513,6.7113,6.7643,6.8196,6.8675,6.9027,6.9255,6.9406,6.9406,6.9255,6.8926,6.8249,6.8221,6.812,6.7417,6.7568,6.7618,6.7087,6.6987,6.6811,6.6187,6.609,6.609,6.609,6.609,6.609,6.609,6.609,6.6262,6.6614,6.666,6.689,6.7442,6.7188,6.7314,6.797,6.8173,6.855,6.908,6.908,6.9205,6.9406,6.9406,6.9406,6.9406,6.9406,6.9705,3.6247,3.7129,3.834,4.0234,4.0957,4.1914,4.4609,4.5586,4.6289,4.7718,4.7796,4.75,4.7187,4.7715,4.834,4.8812,4.9473,5.0113,5.0723,5.0918,5.1152,5.1558,5.1894,5.2212,5.2486,5.3033,0.0,0.0,0.0,0.0,0.0,5.1479,5.1401,5.1401,5.1401,5.2575,5.5091,5.7571,6.0044,6.2514,6.496,6.609,6.609,6.609,6.609,6.609,6.609,6.609,6.609,6.609,6.609,6.609,6.609,6.609,6.609,6.609,6.609,6.609,6.609,6.609,6.609,6.609,6.609,6.609,6.609,6.6513,6.7113,6.7643,6.8196,6.8726,6.9255,6.9406,6.9406,6.9406,6.9255,6.8952,6.8221,6.8221,6.8095,6.7188,6.7314,6.7367,6.6789,6.6736,6.6564,6.614,6.609,6.609,6.609,6.609,6.609,6.609,6.6287,6.6538,6.6962,6.7163,6.7467,6.802,6.7719,6.7819,6.8575,6.8776,6.9027,6.9381,6.9406,6.9406,6.9406,6.9406,6.9406,6.9406,6.9406,6.9629,3.8573,3.8905,3.9726,4.1855,4.1816,4.2031,4.5021,4.5351,4.5762,4.8343,4.8206,4.76,4.76,4.793,4.8359,4.8835,4.9984,5.0801,5.082,5.1148,5.1558,5.2031,5.2114,5.2447,5.3331,5.3384,0.0,0.0,0.0,0.0,0.0,5.1636,5.1401,5.1401,5.1426,5.2624,5.5094,5.7617,6.0067,6.2558,6.496,6.609,6.609,6.609,6.609,6.609,6.609,6.609,6.609,6.609,6.609,6.609,6.609,6.609,6.609,6.609,6.609,6.609,6.609,6.609,6.609,6.609,6.609,6.609,6.609,6.6513,6.7113,6.7643,6.8196,6.8726,6.9255,6.9381,6.9381,6.9381,6.9002,6.86,6.8575,6.817,6.7618,6.7087,6.6987,6.6811,6.6212,6.609,6.609,6.609,6.609,6.609,6.609,6.609,6.609,6.609,6.6639,6.7012,6.7012,6.7493,6.8045,6.8575,6.86,6.86,6.86,6.9105,6.9406,6.9406,6.9406,6.9406,6.9406,6.9406,6.9406,6.9406,6.9406,6.9406,3.6443,3.8436,4.0683,4.0977,4.3144,4.5428,4.6326,4.6443,4.6814,4.8561,4.8441,4.8027,4.8027,4.861,4.9156,4.9316,5.0156,5.0898,5.1187,5.1323,5.1558,5.2031,5.2344,5.2734,5.3326,5.3678,0.0,0.0,0.0,0.0,0.0,5.1479,5.1401,5.1401,5.3084,5.5186,5.7686,6.0158,6.2625,6.5047,6.5742,6.609,6.609,6.609,6.609,6.609,6.609,6.609,6.609,6.609,6.609,6.609,6.609,6.609,6.609,6.609,6.609,6.609,6.609,6.609,6.609,6.609,6.609,6.609,6.609,6.6513,6.7113,6.7643,6.8196,6.865,6.8801,6.8851,6.8851,6.8851,6.8726,6.8374,6.7643,6.7364,6.7041,6.6488,6.6363,6.6312,6.6137,6.609,6.609,6.609,6.609,6.609,6.609,6.609,6.6262,6.6686,6.6887,6.7314,6.807,6.8274,6.86,6.913,6.9155,6.9155,6.9155,6.9306,6.9406,6.9406,6.9406,6.9406,6.9406,6.9406,6.9406,6.9406,6.9406,6.9406,3.9296,4.1328,4.3359,4.3924,4.5389,4.6833,4.7539,4.7695,4.7871,4.8499,4.8398,4.8262,4.8437,4.9043,4.9605,4.9957,5.0581,5.1109,5.1382,5.1558,5.1855,5.2285,5.2715,5.3144,5.3599,5.3842,0.0,0.0,0.0,0.0,0.0,5.1597,5.1479,5.1655,5.3887,5.6291,5.8768,6.1263,6.371,6.609,6.609,6.609,6.609,6.609,6.609,6.609,6.609,6.609,6.609,6.609,6.609,6.609,6.609,6.609,6.609,6.609,6.609,6.609,6.609,6.609,6.609,6.609,6.609,6.609,6.609,6.6363,6.6739,6.7317,6.7719,6.802,6.8246,6.8424,6.855,6.8324,6.812,6.7794,6.7138,6.6811,6.661,6.6488,6.6262,6.6241,6.6714,6.6589,6.6463,6.6463,6.6463,6.6463,6.6463,6.6639,6.6915,6.7288,6.7493,6.7894,6.855,6.8801,6.9077,6.9381,6.9406,6.9406,6.9406,6.9406,6.9406,6.9406,6.9406,6.9406,6.9406,6.9406,6.9406,6.9406,6.9406,6.9406,4.4415,4.5646,4.6719,4.8668,4.779,4.6894,4.8542,4.8874,4.8714,4.834,4.8262,4.8398,4.8851,4.9316,4.9879,5.0683,5.1128,5.1401,5.1401,5.1797,5.2271,5.2656,5.3111,5.356,5.3959,5.3998,0.0,0.0,0.0,0.0,0.0,5.1909,5.1655,5.2095,5.4054,5.6291,5.8768,6.1263,6.371,6.609,6.609,6.609,6.609,6.609,6.609,6.609,6.609,6.609,6.609,6.609,6.609,6.609,6.609,6.609,6.609,6.609,6.609,6.609,6.609,6.609,6.609,6.609,6.609,6.609,6.6187,6.614,6.6237,6.6887,6.7037,6.7113,6.7668,6.817,6.8399,6.7919,6.7442,6.7113,6.7012,6.6614,6.6413,6.6962,6.6639,6.6567,6.7618,6.7414,6.7062,6.7062,6.7062,6.7062,6.7062,6.7514,6.7819,6.7869,6.8299,6.8625,6.8675,6.9105,6.9406,6.9406,6.9406,6.9406,6.9406,6.9406,6.9406,6.9406,6.9406,6.9406,6.9406,6.9406,6.9406,6.9406,6.9406,6.9406,3.996,4.2911,4.594,4.6409,4.7148,4.7988,4.8737,4.8617,4.8418,4.8695,4.8734,4.8871,4.9273,4.9996,5.0586,5.0781,5.1128,5.1401,5.1401,5.1797,5.2271,5.2656,5.3111,5.356,5.3959,5.3998,0.0,0.0,0.0,0.0,5.2734,5.2226,5.1992,5.2095,5.4054,5.6291,5.8768,6.1263,6.371,0.0,6.609,6.609,6.609,6.609,6.609,6.609,6.609,6.609,6.609,6.609,6.609,6.609,6.609,6.609,6.609,6.609,6.609,6.609,6.609,6.609,6.609,6.609,6.609,6.6187,6.6664,6.6488,6.6291,6.7342,6.7317,6.7113,6.7668,6.7894,6.7945,6.7819,6.8045,6.802,6.7188,6.7216,6.7467,6.7593,6.7518,6.7518,6.7769,6.7693,6.7618,6.7618,6.7618,6.7618,6.7618,6.7719,6.797,6.8374,6.8525,6.8776,6.918,6.9331,6.9406,6.9406,6.9406,6.9406,6.9406,6.9406,6.9406,6.9406,6.9406,6.9406,6.9406,6.9406,6.9406,6.9406,6.9406,6.9406,4.1328,4.3946,4.6194,4.7014,4.7737,4.832,4.8773,4.8538,4.8398,4.9043,4.9203,4.9316,4.9766,5.0371,5.0855,5.105,5.1265,5.1479,5.1694,5.2109,5.2539,5.2969,5.3418,5.3769,5.3978,5.3998,0.0,0.0,0.0,5.3072,5.3052,5.2226,5.1875,5.2095,5.5201,5.7479,5.8791,6.2425,6.4873,6.609,6.609,6.609,6.609,6.609,6.609,6.609,6.609,6.609,6.609,6.609,6.609,6.609,6.609,6.609,6.609,6.609,6.609,6.609,6.609,6.609,6.609,6.609,6.609,6.614,6.6463,6.6363,6.6287,6.7166,6.7213,6.7113,6.7668,6.7995,6.812,6.7869,6.802,6.807,6.7493,6.7593,6.7869,6.8123,6.797,6.797,6.8475,6.8349,6.8173,6.8173,6.8173,6.8173,6.8173,6.8399,6.8675,6.8929,6.8979,6.908,6.9381,6.9406,6.9406,6.9406,6.9406,6.9406,6.9406,6.9406,6.9406,6.9406,6.9406,6.9406,6.9406,6.9406,6.9406,6.9406,6.9406,6.9406,4.3359,4.541,4.6719,4.8441,4.8558,4.832,4.8773,4.8538,4.8457,4.9313,4.9566,4.9742,5.0238,5.0625,5.1011,5.1343,5.1479,5.166,5.2056,5.25,5.2949,5.3345,5.375,5.3998,5.3998,5.3998,0.0,0.0,0.0,5.2949,5.3248,5.2168,5.1719,5.2095,5.6031,5.8378,5.8791,6.3245,6.5677,6.609,6.609,6.609,6.609,6.609,6.609,6.609,6.609,6.609,6.609,6.609,6.609,6.609,6.609,6.609,6.609,6.609,6.609,6.609,6.609,6.609,6.609,6.609,6.609,6.6137,6.6216,6.6262,6.6388,6.6987,6.7138,6.7263,6.7794,6.8271,6.85,6.817,6.8095,6.8045,6.797,6.802,6.8221,6.865,6.8374,6.8349,6.9255,6.9029,6.8751,6.8751,6.8751,6.8751,6.8751,6.913,6.9406,6.9406,6.9406,6.9406,6.9406,6.9406,6.9406,6.9406,6.9406,6.9406,6.9406,6.9406,6.9406,6.9406,6.9406,6.9406,6.9406,6.9406,6.9406,6.9406,6.9406,6.9606,3.9668,4.3125,4.6719,4.8441,4.8558,4.832,4.8773,4.8538,4.8457,4.9313,4.9824,5.0215,5.0644,5.105,5.1343,5.1401,5.1758,5.2036,5.2095,5.2798,5.3326,5.3384,5.375,5.3998,5.3998,5.3998,0.0,0.0,5.3365,5.317,5.2812,5.2285,5.2056,5.2114,5.4365,5.6642,5.8791,6.1576,6.4039,6.609,6.609,6.609,6.609,6.609,6.609,6.609,6.609,6.609,6.609,6.609,6.609,6.609,6.609,6.609,6.609,6.609,6.609,6.609,6.609,6.609,6.609,6.609,6.609,6.6212,6.6736,6.6887,6.6987,6.7543,6.7693,6.7819,6.8349,6.855,6.8701,6.908,6.918,6.9077,6.86,6.8876,6.9205,6.928,6.923,6.923,6.9381,6.9331,6.928,6.928,6.928,6.928,6.928,6.9356,6.9406,6.9406,6.9406,6.9406,6.9406,6.9406,6.9406,6.9406,6.9406,6.9406,6.9406,6.9406,6.9406,6.9406,6.9406,6.9406,6.9406,6.9406,6.9406,6.9406,6.9406,7.0474,4.0507,4.3789,4.666,4.8148,4.834,4.8262,4.8457,4.834,4.8516,4.9668,5.0063,5.0312,5.0723,5.1128,5.1401,5.1401,5.1797,5.2192,5.2402,5.2994,5.3482,5.3711,5.3881,5.3998,5.3998,5.3998,0.0,0.0,5.3281,5.291,5.2715,5.207,5.1719,5.1719,5.5244,5.7709,5.8791,6.2602,6.5047,6.609,6.609,6.609,6.609,6.609,6.609,6.609,6.609,6.609,6.609,6.609,6.609,6.609,6.609,6.609,6.609,6.609,6.609,6.609,6.609,6.609,6.609,6.609,6.609,6.619,6.6836,6.6987,6.7188,6.802,6.8249,6.8374,6.8926,6.9029,6.9127,6.9331,6.9406,6.9331,6.908,6.923,6.9406,6.9406,6.9406,6.9406,6.9406,6.9406,6.9406,6.9406,6.9406,6.9406,6.9406,6.9406,6.9406,6.9406,6.9406,6.9406,6.9406,6.9406,6.9406,6.9406,6.9406,6.9406,6.9406,6.9406,6.9406,6.9406,6.9406,6.9406,6.9406,6.9406,6.9406,6.9428,7.0716,7.183,4.1074,4.3691,4.5566,4.7285,4.7891,4.8105,4.832,4.8379,4.8711,4.9945,5.0199,5.0356,5.0859,5.1206,5.144,5.1558,5.1953,5.2383,5.2812,5.3287,5.3652,5.3959,5.3998,5.3998,5.3998,5.39,5.3783,0.0,5.2963,5.25,5.2383,5.1753,5.1401,5.1401,5.6198,5.8791,5.8791,6.3642,6.609,6.609,6.609,6.609,6.609,6.609,6.609,6.609,6.609,6.609,6.609,6.609,6.609,6.609,6.609,6.609,6.609,6.609,6.609,6.609,6.609,6.609,6.6137,6.6287,6.6338,6.6438,6.7037,6.7314,6.7568,6.8374,6.8701,6.8901,6.9306,6.9406,6.9406,6.9406,6.9406,6.9406,6.9406,6.9406,6.9406,6.9406,6.9406,6.9406,6.9406,6.9406,6.9406,6.9406,6.9406,6.9406,6.9406,6.9406,6.9406,6.9406,6.9406,6.9406,6.9406,6.9406,6.9406,6.9406,6.9406,6.9406,6.9406,6.9406,6.9406,6.9406,6.9406,6.9406,6.9406,6.9406,6.9406,6.9451,7.1746,7.3103,3.9316,4.1035,4.2734,4.5664,4.7012,4.7855,4.8679,4.8874,4.9128,5.0023,5.0199,5.043,5.1226,5.1382,5.1538,5.1973,5.2402,5.2832,5.3287,5.3711,5.3978,5.3998,5.3998,5.3998,5.3998,5.3678,5.3248,0.0,5.2363,5.1933,5.1499,5.1421,5.1401,5.1401,5.6198,5.8791,5.8791,6.3642,6.609,6.609,6.609,6.609,6.609,6.609,6.609,6.609,6.609,6.609,6.609,6.609,6.609,6.609,6.609,6.609,6.609,6.609,6.609,6.609,6.609,6.609,6.6187,6.6786,6.6962,6.7062,6.7593,6.812,6.8525,6.8575,6.8977,6.9356,6.9381,6.9406,6.9406,6.9406,6.9406,6.9406,6.9406,6.9406,6.9406,6.9406,6.9406,6.9406,6.9406,6.9406,6.9406,6.9406,6.9406,6.9406,6.9406,6.9406,6.9406,6.9406,6.9406,6.9406,6.9406,6.9406,6.9406,6.9406,6.9406,6.9406,6.9406,6.9406,6.9406,6.9406,6.9406,6.9406,6.9406,6.9406,6.9406,6.9451,7.1746,7.3914,3.9258,4.0625,4.1934,4.4082,4.5703,4.6836,4.7148,4.8301,4.9453,5.0082,5.0414,5.0762,5.1304,5.1401,5.1558,5.2012,5.2441,5.2871,5.3326,5.375,5.3998,5.3998,5.3998,5.3998,5.3998,5.3861,5.3613,0.0,0.0,5.2305,5.1875,5.1558,5.1401,5.1401,5.6198,6.0316,6.3466,6.522,6.609,6.609,6.609,6.609,6.609,6.609,6.6312,6.6686,6.6686,6.6463,6.609,6.609,6.609,6.609,6.609,6.609,6.609,6.609,6.609,6.6162,6.6538,6.6413,6.6262,6.7191,6.7288,6.7163,6.8045,6.845,6.8675,6.9027,6.9255,6.9406,6.9406,6.9406,6.9406,6.9406,6.9406,6.9406,6.9406,6.9406,6.9406,6.9406,6.9406,6.9406,6.9406,6.9406,6.9406,6.9406,6.9406,6.9406,6.9406,6.9406,6.9406,6.9406,6.9406,6.9406,6.9406,6.9406,6.9406,6.9406,6.9406,6.9406,6.9406,6.9406,6.9406,6.9406,6.9406,6.9406,6.9406,6.9406,6.9406,6.9471,7.319,7.5325,3.8555,3.9746,4.1015,4.2988,4.4355,4.5527,4.668,4.7949,4.9121,5.0023,5.0508,5.0913,5.1323,5.1401,5.1597,5.2207,5.2656,5.3086,5.3541,5.3848,5.3998,5.3998,5.3998,5.3998,5.3998,5.3744,5.3432,0.0,0.0,0.0,5.1875,5.1558,5.2161,5.3828,5.7084,6.115,6.6047,6.609,6.609,6.609,6.609,6.609,6.609,6.609,6.6312,6.6689,6.6912,6.6786,6.6413,6.6614,6.6463,6.6137,6.6338,6.6287,6.609,6.609,6.6338,6.6714,6.6937,6.7091,6.732,6.8073,6.8095,6.797,6.8899,6.9027,6.8929,6.9306,6.9406,6.9406,6.9406,6.9406,6.9406,6.9406,6.9554,6.9654,6.9431,6.9406,6.9406,6.9406,6.9406,6.9406,6.9406,6.9406,6.9406,6.9406,6.9406,6.9406,6.9406,6.9406,6.9406,6.9406,6.9406,6.9406,6.9406,6.9406,6.9406,6.9406,6.9406,6.9406,6.9406,6.9406,6.9406,6.9406,6.9406,6.9406,6.9406,6.9406,6.9809,7.0627,7.4361,7.6902,0.0,0.0,0.0,4.2344,4.3008,4.3927,4.7285,4.7773,4.803,4.9809,5.0469,5.0898,5.1323,5.1421,5.1694,5.2578,5.3091,5.3521,5.3939,5.3998,5.3998,5.3998,5.3998,5.3998,5.3998,5.3236,5.2709,0.0,5.1928,5.144,5.144,5.144,5.3682,5.8653,5.8791,6.115,6.6047,6.609,6.609,6.609,6.609,6.609,6.609,6.609,6.609,6.614,6.6761,6.6987,6.7037,6.7543,6.7116,6.6187,6.6786,6.6639,6.6137,6.614,6.6865,6.7719,6.7238,6.807,6.9356,6.9406,6.9406,6.9504,7.0102,6.9853,6.9406,6.9406,6.9406,6.9406,6.9406,6.9406,6.9406,6.9406,6.9853,7.0127,6.9554,6.9406,6.9406,6.9406,6.9406,6.9406,6.9406,6.9406,6.9406,6.9406,6.9406,6.9406,6.9406,6.9406,6.9406,6.9406,6.9406,6.9406,6.9406,6.9406,6.9406,6.9406,6.9406,6.9406,6.9431,6.9406,6.9406,6.9431,6.9431,6.9431,6.9431,6.9406,7.056,7.2849,7.5136,7.8583,3.7226,0.0,0.0,0.0,0.0,0.0,4.4083,4.5137,4.6387,4.8753,4.934,4.9828,5.1148,5.1699,5.207,5.2617,5.2812,5.3164,5.39,5.3998,5.3998,5.3998,5.3998,5.3998,5.3998,5.3783,0.0,0.0,5.2676,5.2338,5.2338,5.207,5.4009,5.8653,5.8791,6.115,6.6047,6.609,6.609,6.609,6.609,6.609,6.609,6.609,6.6338,6.6761,6.6937,6.6987,6.7012,6.7163,6.7037,6.6786,6.6937,6.6912,6.6811,6.7191,6.7543,6.7894,6.8525,6.8525,6.8424,6.9675,6.9501,6.8926,6.9479,6.9529,6.9406,6.9406,6.9406,6.9406,6.9406,6.9406,6.9406,6.9406,6.9529,6.9705,6.9978,6.9705,6.9406,6.9406,6.9406,6.9406,6.9406,6.9406,6.9406,6.9406,6.9406,6.9579,6.9978,6.9679,6.9579,6.9978,6.9654,6.9406,6.9406,6.9406,6.9406,6.9406,6.9406,6.9604,7.0026,6.9629,6.9604,7.0051,7.0051,7.0051,7.0051,6.9604,7.056,7.2892,7.6696,8.0052,0.0,0.0,3.8788,3.9551,0.0,0.0,4.3808,4.4883,4.6133,4.9086,4.9828,5.0234,5.1226,5.1616,5.1953,5.2383,5.2441,5.2812,5.3861,5.3998,5.3998,5.3998,5.3998,5.3998,5.3998,5.3867,5.3633,5.3404,5.2949,5.2715,5.2715,5.2305,5.4233,5.892,5.8903,6.115,6.6047,6.609,6.609,6.609,6.609,6.609,6.609,6.609,6.6287,6.6639,6.6887,6.6987,6.6987,6.6987,6.6987,6.7037,6.7493,6.7668,6.7693,6.802,6.8572,6.92,6.9353,6.9454,6.9602,7.0127,6.985,6.9376,6.9677,6.9604,6.9406,6.9406,6.9406,6.9406,6.9406,6.9406,6.9406,6.9406,6.9757,7.0079,6.9953,7.0006,7.0031,6.9828,6.9579,6.9406,6.9406,6.9406,6.9481,6.973,6.9579,6.9705,7.0529,7.0129,7.0003,7.0579,7.033,7.0006,6.978,6.9777,6.9679,6.9406,6.9629,6.9928,7.03,7.0179,7.028,7.0629,7.0629,7.0629,7.0629,7.0054,7.1299,7.4254,7.7767,8.063,0.0,0.0,0.0,0.0,3.9903,0.0,4.4668,4.541,4.6174,4.9355,5.0289,5.062,5.0874,5.0952,5.1128,5.1582,5.1841,5.2422,5.3744,5.3939,5.3939,5.3998,5.3998,5.3998,5.3998,5.3672,5.3463,5.3463,5.3027,5.2754,5.2715,5.2363,5.4276,5.8857,5.8898,6.1085,6.5656,6.5983,6.609,6.609,6.609,6.609,6.609,6.609,6.609,6.6137,6.6686,6.6912,6.6912,6.6962,6.6987,6.7113,6.8173,6.86,6.8625,6.8801,6.9828,7.0958,7.0006,7.0608,7.1661,7.0704,7.035,7.03,7.0202,6.9828,6.9406,6.9406,6.9406,6.9406,6.9406,6.9406,6.9406,6.9406,7.0156,7.0656,6.9705,7.0232,7.0805,7.0401,6.9828,6.9406,6.9406,6.9456,6.9679,7.0202,6.9903,6.9981,7.1033,7.0729,7.0579,7.1131,7.1131,7.088,7.035,7.03,7.0076,6.9529,6.9978,7.035,7.0453,7.088,7.1131,7.1207,7.1207,7.1156,7.1106,7.1127,7.2926,7.6352,7.8757,8.0961,0.0,0.0,0.0,0.0,0.0,0.0,4.1172,4.1875,4.3027,4.4746,4.5156,4.572,4.7458,4.8105,4.8476,4.8887,5.0137,5.1621,5.3287,5.3521,5.3658,5.3959,5.3998,5.3998,5.3998,5.392,5.3881,5.3881,5.3502,5.3111,5.2734,5.2637,5.3791,5.6427,5.8325,6.0524,6.3179,6.5134,6.609,6.609,6.609,6.609,6.609,6.609,6.609,6.609,6.6216,6.6287,6.6312,6.6811,6.6987,6.7113,6.8173,6.86,6.8751,7.0104,7.083,7.1131,7.1334,7.1334,7.1232,7.1006,7.0654,7.0202,6.9705,6.9481,6.9406,6.9406,6.9406,6.9406,6.9406,6.9406,6.9406,6.9406,6.9556,6.9805,7.0076,6.9928,6.983,7.0227,6.9828,6.9406,6.9406,6.9803,7.0152,7.03,7.0579,7.1008,7.1661,7.1282,7.1156,7.1686,7.1359,7.088,7.035,7.03,7.025,7.0127,7.0227,7.0679,7.156,7.1259,7.1284,7.1736,7.1736,7.1535,7.1106,7.4677,7.6819,7.7618,8.1207,8.3114,0.0,0.0,0.0,3.9844,0.0,0.0,0.0,4.1641,4.2402,4.4551,4.4668,4.4862,4.6579,4.6758,4.6936,4.7754,4.9007,5.0238,5.1289,5.2388,5.3125,5.3315,5.3574,5.3691,5.3691,5.3861,5.3998,5.3998,5.3828,5.3594,5.3354,5.3164,5.4085,5.6331,5.8371,6.0502,6.2783,6.4996,6.609,6.609,6.609,6.609,6.609,6.609,6.609,6.609,6.609,6.6287,6.6538,6.6538,6.7041,6.7869,6.8675,6.9177,6.9602,7.0983,7.1661,7.1912,7.1912,7.1535,7.1056,7.078,7.0328,6.9803,6.9481,6.9406,6.9406,6.9406,6.9406,6.9406,6.9406,6.9406,6.9406,6.9406,6.9629,6.9853,6.9853,6.9853,6.9928,7.0227,7.0076,6.973,6.9456,6.9903,7.0401,7.0654,7.093,7.1384,7.219,7.1836,7.1711,7.224,7.2062,7.1686,7.1156,7.1106,7.0981,7.0704,7.0956,7.1334,7.1887,7.1912,7.2014,7.229,7.229,7.2188,7.1912,7.6542,7.8168,7.7092,8.0481,8.2475,0.0,0.0,0.0,0.0,0.0,4.0449,0.0,0.0,0.0,4.4609,4.4648,4.4608,4.572,4.5449,4.5412,4.6426,4.7542,4.8363,4.859,5.0406,0.0,5.2285,5.2974,5.3345,5.3267,5.3496,5.3744,5.3978,5.3685,5.3646,5.3978,5.3638,5.426,5.6107,5.8347,6.0453,6.2417,6.4855,6.6162,6.6287,6.6162,6.609,6.609,6.609,6.609,6.609,6.609,6.6388,6.6811,6.6438,6.7119,6.85,6.9155,6.983,7.0579,7.1661,7.2315,7.2641,7.219,7.1711,7.1182,7.0629,6.9978,6.9406,6.9406,6.9406,6.9406,6.9406,6.9406,6.9406,6.9406,6.9406,6.9406,6.9406,6.9777,6.9978,6.9506,6.9777,7.0152,7.03,7.03,7.0177,6.9805,7.0229,7.0755,7.1207,7.1334,7.1736,7.2591,7.2315,7.2215,7.2666,7.2717,7.2491,7.1962,7.1912,7.1711,7.1259,7.1661,7.1962,7.2039,7.2466,7.2717,7.2717,7.2717,7.2877,7.3219,7.757,7.8693,7.6878,7.9979,8.2066,0.0,0.0,0.0,0.0,4.2148,0.0,0.0,0.0,4.1582,4.0781,0.0,4.1797,4.2285,0.0,0.0,0.0,4.4707,4.5918,4.5564,4.7051,4.8867,5.0801,5.2427,5.3228,5.2812,5.25,5.2773,5.392,5.2573,5.2377,5.392,5.3638,5.3334,5.3197,5.7637,6.0003,5.9994,6.4062,6.6363,6.6887,6.6363,6.609,6.609,6.609,6.609,6.609,6.609,6.6137,6.6237,6.6711,6.7288,6.7995,6.9004,7.0056,7.1156,7.2215,7.2641,7.2692,7.2641,7.2265,7.1736,7.1182,7.0257,6.9406,6.9406,6.9406,6.9406,6.9406,6.9406,6.9406,6.9406,6.9406,6.9406,6.9406,6.9456,6.9481,6.9406,6.9456,6.9654,7.0202,7.03,7.0428,7.0855,7.1359,7.1736,7.1811,7.2215,7.2566,7.2692,7.2641,7.2641,7.2692,7.2717,7.2491,7.1962,7.1912,7.1887,7.1811,7.1887,7.2114,7.2591,7.2666,7.2717,7.2717,7.2717,7.3491,7.5093,7.8194,7.9549,7.9381,8.329,8.4888,0.0,0.0,0.0,0.0,0.0,0.0,3.9902,0.0,4.0019,0.0,0.0,0.0,0.0,0.0,0.0,0.0,4.3613,4.4473,4.4256,4.5568,4.7112,4.8753,0.0,0.0,5.1831,0.0,0.0,0.0,5.2656,5.2461,5.392,5.3848,5.3672,5.3451,5.6627,5.8812,5.9886,6.2867,6.5071,6.6463,6.6237,6.609,6.609,6.609,6.609,6.6137,6.6463,6.6789,6.7141,6.7693,6.8622,6.9752,7.0204,7.0681,7.1232,7.229,7.2717,7.2717,7.2717,7.2139,7.1284,7.0382,6.9805,6.9406,6.9406,6.9406,6.9406,6.9406,6.9406,6.9406,6.9406,6.9406,6.9406,6.9406,6.9406,6.9481,6.9853,6.9928,7.0179,7.1081,7.1232,7.1384,7.1937,7.1962,7.1912,7.1912,7.2365,7.2717,7.2717,7.2717,7.2717,7.2717,7.2717,7.2616,7.2365,7.2365,7.2365,7.2365,7.2365,7.2466,7.2692,7.2717,7.2717,7.2717,7.2717,7.3758,7.5872,7.8441,8.0408,8.1796,8.4469,8.5342,4.4003,0.0,0.0,0.0,0.0,0.0,0.0,0.0,0.0,0.0,0.0,0.0,0.0,0.0,0.0,0.0,0.0,4.3457,4.3223,4.4101,4.5373,4.6897,4.7874,0.0,0.0,0.0,0.0,0.0,0.0,5.2285,5.392,5.3998,5.3939,5.3848,5.5794,5.7969,6.0354,6.2082,6.4152,6.6564,6.6241,6.609,6.609,6.609,6.609,6.6115,6.6736,6.7138,6.7392,6.8249,6.9403,7.0656,7.0981,7.1282,7.1636,7.2415,7.2717,7.2692,7.2541,7.1786,7.0729,6.973,6.9406,6.9406,6.9406,6.9406,6.9406,6.9406,6.9506,6.9654,6.9654,6.9654,6.9654,6.9654,6.9506,6.9506,6.9953,7.0177,7.0554,7.1485,7.1811,7.2087,7.2616,7.2365,7.2138,7.2138,7.2441,7.2717,7.2717,7.2717,7.2717,7.2717,7.2717,7.2717,7.2717,7.2717,7.2717,7.2717,7.2717,7.2717,7.2717,7.2717,7.2717,7.2717,7.2717,7.416,7.7158,7.8885,8.1243,8.4202,8.5406,8.5611,0.0,0.0,0.0,4.3144,0.0,0.0,0.0,0.0,4.1484,0.0,0.0,0.0,0.0,0.0,0.0,0.0,0.0,0.0,0.0,4.2226,4.332,4.551,4.7623,4.9066,0.0,4.8805,0.0,0.0,5.0981,0.0,5.3861,5.3998,5.3828,5.3424,5.5373,5.7919,6.1037,6.2033,6.4265,6.7744,6.6639,6.609,6.609,6.609,6.609,6.6115,6.6736,6.6686,6.6266,6.7922,6.8952,6.9556,7.0681,7.1736,7.2666,7.2692,7.2717,7.2641,7.2113,7.1232,7.0227,6.9604,6.9406,6.9406,6.9406,6.9406,6.9406,6.9406,6.9828,7.0275,7.0275,7.0275,7.0275,7.0275,6.9828,6.9406,6.9406,6.9878,7.0476,7.1031,7.1535,7.2087,7.2616,7.2692,7.2666,7.2666,7.2692,7.2717,7.2717,7.2717,7.2717,7.2717,7.2717,7.2717,7.2717,7.2717,7.2717,7.2717,7.2717,7.2717,7.2717,7.2717,7.2717,7.2717,7.2717,7.4991,7.9579,7.9644,8.2077,8.6579,8.6639,8.6319,0.0,0.0,4.8711,4.5391,0.0,0.0,0.0,0.0,0.0,0.0,0.0,0.0,0.0,0.0,0.0,0.0,0.0,0.0,0.0,4.2148,4.2577,4.3047,4.5508,4.7132,4.6992,4.8516,0.0,0.0,5.1367,0.0,5.392,5.3998,5.3939,5.3808,5.4466,5.597,5.8345,6.04,6.2524,6.4707,6.6052,6.6488,6.609,6.609,6.609,6.6115,6.6736,6.6887,6.6815,6.845,6.9479,7.0104,7.1209,7.2087,7.2717,7.2717,7.2717,7.2616,7.2087,7.141,7.0729,7.0177,6.973,6.9406,6.9406,6.9406,6.9406,6.9406,6.9554,6.9803,7.0202,7.03,7.0401,7.0755,7.0656,7.0631,7.096,7.1209,7.151,7.2039,7.2315,7.2491,7.2666,7.2717,7.2717,7.2717,7.2717,7.2717,7.2717,7.2717,7.2717,7.2717,7.2717,7.2717,7.2717,7.2717,7.2717,7.2717,7.2717,7.2717,7.2717,7.2717,7.2717,7.2717,7.2717,7.4988,7.9687,7.9687,8.212,8.6708,8.6708,8.6589,4.9371,5.0152,0.0,4.7324,4.6604,0.0,4.2598,0.0,0.0,0.0,0.0,0.0,0.0,0.0,0.0,0.0,0.0,0.0,0.0,4.1816,4.2089,4.1836,4.4062,4.5762,4.6094,4.7366,4.9027,5.1094,5.1079,5.1836,0.0,0.0,5.3998,5.3998,5.3842,5.4909,5.7297,5.8643,6.0776,6.3733,6.5015,6.5887,6.6413,6.6212,6.609,6.6115,6.6736,6.6887,6.6789,6.845,6.9328,6.98,7.0905,7.1786,7.2441,7.2641,7.2466,7.2064,7.1736,7.1133,7.043,7.0079,6.9705,6.9406,6.9406,6.9406,6.9406,6.9406,6.9554,6.9828,7.0202,7.03,7.0401,7.0729,7.0805,7.0905,7.1282,7.1636,7.2012,7.234,7.2566,7.2717,7.2717,7.2717,7.2717,7.2717,7.2717,7.2717,7.2717,7.2717,7.2717,7.2717,7.2717,7.2717,7.2717,7.2717,7.2717,7.2717,7.2717,7.2717,7.2717,7.2717,7.2717,7.2717,7.3512,7.5855,7.9687,8.0558,8.2945,8.6708,8.6708,8.6708]}]]